<?xml version="1.0" encoding="UTF-8" standalone="no" ?>
<gpx xmlns="http://www.topografix.com/GPX/1/1" xmlns:xsi="http://www.w3.org/2001/XMLSchema-instance" xsi:schemaLocation="http://www.topografix.com/GPX/1/1 http://www.topografix.com/GPX/1/1/gpx.xsd" version="1.1" creator="VisuGPX - https://www.visugpx.com">
  <metadata>
    <name>Dans les bois de Nouzonville.</name>
  </metadata>
  <trk>
    <name><![CDATA[Dans les bois de Nouzonville._1]]></name>
    <trkseg>
      <trkpt lat="49.79395" lon="4.75001">
        <ele>213.4</ele>
        <time>2021-04-18T05:45:30Z</time>
      </trkpt>
      <trkpt lat="49.79398" lon="4.75009">
        <ele>213.4</ele>
        <time>2021-04-18T05:45:31Z</time>
      </trkpt>
      <trkpt lat="49.79406" lon="4.75016">
        <ele>213.5</ele>
        <time>2021-04-18T05:46:03Z</time>
      </trkpt>
      <trkpt lat="49.79406" lon="4.75008">
        <ele>213.1</ele>
        <time>2021-04-18T05:49:06Z</time>
      </trkpt>
      <trkpt lat="49.79406" lon="4.75017">
        <ele>213.6</ele>
        <time>2021-04-18T05:49:18Z</time>
      </trkpt>
      <trkpt lat="49.79407" lon="4.75024">
        <ele>213.6</ele>
        <time>2021-04-18T05:49:26Z</time>
      </trkpt>
      <trkpt lat="49.79412" lon="4.75028">
        <ele>213.5</ele>
        <time>2021-04-18T05:49:31Z</time>
      </trkpt>
      <trkpt lat="49.79418" lon="4.75025">
        <ele>213.3</ele>
        <time>2021-04-18T05:50:37Z</time>
      </trkpt>
      <trkpt lat="49.79413" lon="4.75025">
        <ele>213.5</ele>
        <time>2021-04-18T05:51:15Z</time>
      </trkpt>
      <trkpt lat="49.79404" lon="4.75032">
        <ele>213.4</ele>
        <time>2021-04-18T05:51:18Z</time>
      </trkpt>
      <trkpt lat="49.79387" lon="4.75047">
        <ele>213.4</ele>
        <time>2021-04-18T05:51:20Z</time>
      </trkpt>
      <trkpt lat="49.79379" lon="4.75055">
        <ele>213.4</ele>
        <time>2021-04-18T05:51:21Z</time>
      </trkpt>
      <trkpt lat="49.79372" lon="4.75062">
        <ele>213.4</ele>
        <time>2021-04-18T05:51:22Z</time>
      </trkpt>
      <trkpt lat="49.7936" lon="4.75075">
        <ele>213.3</ele>
        <time>2021-04-18T05:51:24Z</time>
      </trkpt>
      <trkpt lat="49.79354" lon="4.75081">
        <ele>213.4</ele>
        <time>2021-04-18T05:51:25Z</time>
      </trkpt>
      <trkpt lat="49.79346" lon="4.75091">
        <ele>213.4</ele>
        <time>2021-04-18T05:51:27Z</time>
      </trkpt>
      <trkpt lat="49.79338" lon="4.75101">
        <ele>213.3</ele>
        <time>2021-04-18T05:51:29Z</time>
      </trkpt>
      <trkpt lat="49.79329" lon="4.7511">
        <ele>213.4</ele>
        <time>2021-04-18T05:51:31Z</time>
      </trkpt>
      <trkpt lat="49.7932" lon="4.75121">
        <ele>213.4</ele>
        <time>2021-04-18T05:51:33Z</time>
      </trkpt>
      <trkpt lat="49.79315" lon="4.75127">
        <ele>213.4</ele>
        <time>2021-04-18T05:51:34Z</time>
      </trkpt>
      <trkpt lat="49.79311" lon="4.75132">
        <ele>213.4</ele>
        <time>2021-04-18T05:51:35Z</time>
      </trkpt>
      <trkpt lat="49.79302" lon="4.75141">
        <ele>213.4</ele>
        <time>2021-04-18T05:51:37Z</time>
      </trkpt>
      <trkpt lat="49.79295" lon="4.7515">
        <ele>213.4</ele>
        <time>2021-04-18T05:51:39Z</time>
      </trkpt>
      <trkpt lat="49.7929" lon="4.75156">
        <ele>213.4</ele>
        <time>2021-04-18T05:51:40Z</time>
      </trkpt>
      <trkpt lat="49.79283" lon="4.75165">
        <ele>213.4</ele>
        <time>2021-04-18T05:51:41Z</time>
      </trkpt>
      <trkpt lat="49.79268" lon="4.75183">
        <ele>213.4</ele>
        <time>2021-04-18T05:51:43Z</time>
      </trkpt>
      <trkpt lat="49.7926" lon="4.75191">
        <ele>213.4</ele>
        <time>2021-04-18T05:51:44Z</time>
      </trkpt>
      <trkpt lat="49.79252" lon="4.75198">
        <ele>213.4</ele>
        <time>2021-04-18T05:51:45Z</time>
      </trkpt>
      <trkpt lat="49.79238" lon="4.75208">
        <ele>213.4</ele>
        <time>2021-04-18T05:51:47Z</time>
      </trkpt>
      <trkpt lat="49.79231" lon="4.75211">
        <ele>213.4</ele>
        <time>2021-04-18T05:51:48Z</time>
      </trkpt>
      <trkpt lat="49.79224" lon="4.75212">
        <ele>213.3</ele>
        <time>2021-04-18T05:51:49Z</time>
      </trkpt>
      <trkpt lat="49.79211" lon="4.75215">
        <ele>213.3</ele>
        <time>2021-04-18T05:51:51Z</time>
      </trkpt>
      <trkpt lat="49.79199" lon="4.75215">
        <ele>213.3</ele>
        <time>2021-04-18T05:51:53Z</time>
      </trkpt>
      <trkpt lat="49.79186" lon="4.75214">
        <ele>213.3</ele>
        <time>2021-04-18T05:51:55Z</time>
      </trkpt>
      <trkpt lat="49.7918" lon="4.75214">
        <ele>213.2</ele>
        <time>2021-04-18T05:51:56Z</time>
      </trkpt>
      <trkpt lat="49.79174" lon="4.75213">
        <ele>213.2</ele>
        <time>2021-04-18T05:51:57Z</time>
      </trkpt>
      <trkpt lat="49.79164" lon="4.75212">
        <ele>213.2</ele>
        <time>2021-04-18T05:51:59Z</time>
      </trkpt>
      <trkpt lat="49.79152" lon="4.75211">
        <ele>213.3</ele>
        <time>2021-04-18T05:52:01Z</time>
      </trkpt>
      <trkpt lat="49.79146" lon="4.7521">
        <ele>213.3</ele>
        <time>2021-04-18T05:52:02Z</time>
      </trkpt>
      <trkpt lat="49.79134" lon="4.75208">
        <ele>213.3</ele>
        <time>2021-04-18T05:52:04Z</time>
      </trkpt>
      <trkpt lat="49.79128" lon="4.75207">
        <ele>213.3</ele>
        <time>2021-04-18T05:52:05Z</time>
      </trkpt>
      <trkpt lat="49.79116" lon="4.75203">
        <ele>213.2</ele>
        <time>2021-04-18T05:52:07Z</time>
      </trkpt>
      <trkpt lat="49.7911" lon="4.75202">
        <ele>213.2</ele>
        <time>2021-04-18T05:52:08Z</time>
      </trkpt>
      <trkpt lat="49.79101" lon="4.75199">
        <ele>223.5</ele>
        <time>2021-04-18T05:52:10Z</time>
      </trkpt>
      <trkpt lat="49.79094" lon="4.75198">
        <ele>219.1</ele>
        <time>2021-04-18T05:52:12Z</time>
      </trkpt>
      <trkpt lat="49.79085" lon="4.75196">
        <ele>223.6</ele>
        <time>2021-04-18T05:52:14Z</time>
      </trkpt>
      <trkpt lat="49.79078" lon="4.75193">
        <ele>222.7</ele>
        <time>2021-04-18T05:52:15Z</time>
      </trkpt>
      <trkpt lat="49.7907" lon="4.75187">
        <ele>219.3</ele>
        <time>2021-04-18T05:52:18Z</time>
      </trkpt>
      <trkpt lat="49.79065" lon="4.75185">
        <ele>221.5</ele>
        <time>2021-04-18T05:52:19Z</time>
      </trkpt>
      <trkpt lat="49.79023" lon="4.75174">
        <ele>222.1</ele>
        <time>2021-04-18T05:52:24Z</time>
      </trkpt>
      <trkpt lat="49.79019" lon="4.75173">
        <ele>219.2</ele>
        <time>2021-04-18T05:52:25Z</time>
      </trkpt>
      <trkpt lat="49.79011" lon="4.7517">
        <ele>222.4</ele>
        <time>2021-04-18T05:52:26Z</time>
      </trkpt>
      <trkpt lat="49.78998" lon="4.75166">
        <ele>219.7</ele>
        <time>2021-04-18T05:52:28Z</time>
      </trkpt>
      <trkpt lat="49.78991" lon="4.75165">
        <ele>218.2</ele>
        <time>2021-04-18T05:52:29Z</time>
      </trkpt>
      <trkpt lat="49.7898" lon="4.75163">
        <ele>219.1</ele>
        <time>2021-04-18T05:52:31Z</time>
      </trkpt>
      <trkpt lat="49.78973" lon="4.75162">
        <ele>219.4</ele>
        <time>2021-04-18T05:52:32Z</time>
      </trkpt>
      <trkpt lat="49.78959" lon="4.7516">
        <ele>220.9</ele>
        <time>2021-04-18T05:52:34Z</time>
      </trkpt>
      <trkpt lat="49.78943" lon="4.75159">
        <ele>219.2</ele>
        <time>2021-04-18T05:52:36Z</time>
      </trkpt>
      <trkpt lat="49.78929" lon="4.75159">
        <ele>216.3</ele>
        <time>2021-04-18T05:52:38Z</time>
      </trkpt>
      <trkpt lat="49.78922" lon="4.75159">
        <ele>215.1</ele>
        <time>2021-04-18T05:52:39Z</time>
      </trkpt>
      <trkpt lat="49.78908" lon="4.75157">
        <ele>214.8</ele>
        <time>2021-04-18T05:52:41Z</time>
      </trkpt>
      <trkpt lat="49.78895" lon="4.75155">
        <ele>214.3</ele>
        <time>2021-04-18T05:52:43Z</time>
      </trkpt>
      <trkpt lat="49.78889" lon="4.75153">
        <ele>212.1</ele>
        <time>2021-04-18T05:52:44Z</time>
      </trkpt>
      <trkpt lat="49.78883" lon="4.7515">
        <ele>211.8</ele>
        <time>2021-04-18T05:52:45Z</time>
      </trkpt>
      <trkpt lat="49.78871" lon="4.75145">
        <ele>210.1</ele>
        <time>2021-04-18T05:52:47Z</time>
      </trkpt>
      <trkpt lat="49.78865" lon="4.75143">
        <ele>208.5</ele>
        <time>2021-04-18T05:52:48Z</time>
      </trkpt>
      <trkpt lat="49.78856" lon="4.75141">
        <ele>207.5</ele>
        <time>2021-04-18T05:52:50Z</time>
      </trkpt>
      <trkpt lat="49.78849" lon="4.75143">
        <ele>206.7</ele>
        <time>2021-04-18T05:52:52Z</time>
      </trkpt>
      <trkpt lat="49.78847" lon="4.7515">
        <ele>205.6</ele>
        <time>2021-04-18T05:52:55Z</time>
      </trkpt>
      <trkpt lat="49.78845" lon="4.75157">
        <ele>207.9</ele>
        <time>2021-04-18T05:53:05Z</time>
      </trkpt>
      <trkpt lat="49.78842" lon="4.75166">
        <ele>210.1</ele>
        <time>2021-04-18T05:53:09Z</time>
      </trkpt>
      <trkpt lat="49.78841" lon="4.75174">
        <ele>210.4</ele>
        <time>2021-04-18T05:53:11Z</time>
      </trkpt>
      <trkpt lat="49.78841" lon="4.75181">
        <ele>211.7</ele>
        <time>2021-04-18T05:53:14Z</time>
      </trkpt>
      <trkpt lat="49.78842" lon="4.75189">
        <ele>210.2</ele>
        <time>2021-04-18T05:53:18Z</time>
      </trkpt>
      <trkpt lat="49.7884" lon="4.75213">
        <ele>211.3</ele>
        <time>2021-04-18T05:53:38Z</time>
      </trkpt>
      <trkpt lat="49.78841" lon="4.7522">
        <ele>210.7</ele>
        <time>2021-04-18T05:53:41Z</time>
      </trkpt>
      <trkpt lat="49.7884" lon="4.75232">
        <ele>212.6</ele>
        <time>2021-04-18T05:53:50Z</time>
      </trkpt>
      <trkpt lat="49.78834" lon="4.7524">
        <ele>211.4</ele>
        <time>2021-04-18T05:53:52Z</time>
      </trkpt>
      <trkpt lat="49.78826" lon="4.75251">
        <ele>213.4</ele>
        <time>2021-04-18T05:53:54Z</time>
      </trkpt>
      <trkpt lat="49.78819" lon="4.75267">
        <ele>214.5</ele>
        <time>2021-04-18T05:53:56Z</time>
      </trkpt>
      <trkpt lat="49.78816" lon="4.75275">
        <ele>214.7</ele>
        <time>2021-04-18T05:53:57Z</time>
      </trkpt>
      <trkpt lat="49.78811" lon="4.75283">
        <ele>212.6</ele>
        <time>2021-04-18T05:53:58Z</time>
      </trkpt>
      <trkpt lat="49.78801" lon="4.75297">
        <ele>212.5</ele>
        <time>2021-04-18T05:54:00Z</time>
      </trkpt>
      <trkpt lat="49.78791" lon="4.75311">
        <ele>215.6</ele>
        <time>2021-04-18T05:54:02Z</time>
      </trkpt>
      <trkpt lat="49.78784" lon="4.75326">
        <ele>216.8</ele>
        <time>2021-04-18T05:54:04Z</time>
      </trkpt>
      <trkpt lat="49.78777" lon="4.75342">
        <ele>212.7</ele>
        <time>2021-04-18T05:54:06Z</time>
      </trkpt>
      <trkpt lat="49.78771" lon="4.75356">
        <ele>218.6</ele>
        <time>2021-04-18T05:54:08Z</time>
      </trkpt>
      <trkpt lat="49.78763" lon="4.75366">
        <ele>216</ele>
        <time>2021-04-18T05:54:10Z</time>
      </trkpt>
      <trkpt lat="49.78758" lon="4.7537">
        <ele>214.3</ele>
        <time>2021-04-18T05:54:11Z</time>
      </trkpt>
      <trkpt lat="49.78751" lon="4.75382">
        <ele>216.4</ele>
        <time>2021-04-18T05:54:13Z</time>
      </trkpt>
      <trkpt lat="49.78708" lon="4.75383">
        <ele>209.2</ele>
        <time>2021-04-18T05:54:19Z</time>
      </trkpt>
      <trkpt lat="49.78691" lon="4.7538">
        <ele>207.6</ele>
        <time>2021-04-18T05:54:21Z</time>
      </trkpt>
      <trkpt lat="49.78682" lon="4.75378">
        <ele>210.6</ele>
        <time>2021-04-18T05:54:22Z</time>
      </trkpt>
      <trkpt lat="49.78673" lon="4.75377">
        <ele>207</ele>
        <time>2021-04-18T05:54:23Z</time>
      </trkpt>
      <trkpt lat="49.78665" lon="4.75376">
        <ele>207.7</ele>
        <time>2021-04-18T05:54:24Z</time>
      </trkpt>
      <trkpt lat="49.7865" lon="4.75375">
        <ele>207.6</ele>
        <time>2021-04-18T05:54:26Z</time>
      </trkpt>
      <trkpt lat="49.78643" lon="4.75375">
        <ele>209.8</ele>
        <time>2021-04-18T05:54:27Z</time>
      </trkpt>
      <trkpt lat="49.78632" lon="4.75375">
        <ele>205.3</ele>
        <time>2021-04-18T05:54:29Z</time>
      </trkpt>
      <trkpt lat="49.78623" lon="4.75374">
        <ele>205</ele>
        <time>2021-04-18T05:54:31Z</time>
      </trkpt>
      <trkpt lat="49.7861" lon="4.75373">
        <ele>201.1</ele>
        <time>2021-04-18T05:54:33Z</time>
      </trkpt>
      <trkpt lat="49.78602" lon="4.75373">
        <ele>199.7</ele>
        <time>2021-04-18T05:54:34Z</time>
      </trkpt>
      <trkpt lat="49.78587" lon="4.75372">
        <ele>198.3</ele>
        <time>2021-04-18T05:54:36Z</time>
      </trkpt>
      <trkpt lat="49.78578" lon="4.75373">
        <ele>197</ele>
        <time>2021-04-18T05:54:37Z</time>
      </trkpt>
      <trkpt lat="49.78562" lon="4.75374">
        <ele>200.3</ele>
        <time>2021-04-18T05:54:39Z</time>
      </trkpt>
      <trkpt lat="49.78554" lon="4.75374">
        <ele>200.3</ele>
        <time>2021-04-18T05:54:40Z</time>
      </trkpt>
      <trkpt lat="49.78546" lon="4.75373">
        <ele>196.6</ele>
        <time>2021-04-18T05:54:41Z</time>
      </trkpt>
      <trkpt lat="49.7853" lon="4.7537">
        <ele>191</ele>
        <time>2021-04-18T05:54:43Z</time>
      </trkpt>
      <trkpt lat="49.78513" lon="4.75365">
        <ele>192</ele>
        <time>2021-04-18T05:54:45Z</time>
      </trkpt>
      <trkpt lat="49.78496" lon="4.7536">
        <ele>184.4</ele>
        <time>2021-04-18T05:54:47Z</time>
      </trkpt>
      <trkpt lat="49.78484" lon="4.75362">
        <ele>177.3</ele>
        <time>2021-04-18T05:54:49Z</time>
      </trkpt>
      <trkpt lat="49.78474" lon="4.75366">
        <ele>175.7</ele>
        <time>2021-04-18T05:54:52Z</time>
      </trkpt>
      <trkpt lat="49.78467" lon="4.7537">
        <ele>172.1</ele>
        <time>2021-04-18T05:54:54Z</time>
      </trkpt>
      <trkpt lat="49.78472" lon="4.75372">
        <ele>164.5</ele>
        <time>2021-04-18T05:54:57Z</time>
      </trkpt>
      <trkpt lat="49.78509" lon="4.75419">
        <ele>137.3</ele>
        <time>2021-04-18T05:55:23Z</time>
      </trkpt>
      <trkpt lat="49.78517" lon="4.75423">
        <ele>138.6</ele>
        <time>2021-04-18T05:55:26Z</time>
      </trkpt>
      <trkpt lat="49.78523" lon="4.75426">
        <ele>137.9</ele>
        <time>2021-04-18T05:55:27Z</time>
      </trkpt>
      <trkpt lat="49.78532" lon="4.75429">
        <ele>136.4</ele>
        <time>2021-04-18T05:55:29Z</time>
      </trkpt>
      <trkpt lat="49.78537" lon="4.75432">
        <ele>136.4</ele>
        <time>2021-04-18T05:55:30Z</time>
      </trkpt>
      <trkpt lat="49.78545" lon="4.75439">
        <ele>133.8</ele>
        <time>2021-04-18T05:55:32Z</time>
      </trkpt>
      <trkpt lat="49.78555" lon="4.75438">
        <ele>133.3</ele>
        <time>2021-04-18T05:55:35Z</time>
      </trkpt>
      <trkpt lat="49.78561" lon="4.75443">
        <ele>132.9</ele>
        <time>2021-04-18T05:55:36Z</time>
      </trkpt>
      <trkpt lat="49.7857" lon="4.75453">
        <ele>131.5</ele>
        <time>2021-04-18T05:55:38Z</time>
      </trkpt>
      <trkpt lat="49.78574" lon="4.75456">
        <ele>130.6</ele>
        <time>2021-04-18T05:55:39Z</time>
      </trkpt>
      <trkpt lat="49.78584" lon="4.75462">
        <ele>131.5</ele>
        <time>2021-04-18T05:55:41Z</time>
      </trkpt>
      <trkpt lat="49.78589" lon="4.75465">
        <ele>131</ele>
        <time>2021-04-18T05:55:42Z</time>
      </trkpt>
      <trkpt lat="49.78598" lon="4.75472">
        <ele>130.1</ele>
        <time>2021-04-18T05:55:44Z</time>
      </trkpt>
      <trkpt lat="49.78602" lon="4.75476">
        <ele>127.5</ele>
        <time>2021-04-18T05:55:45Z</time>
      </trkpt>
      <trkpt lat="49.78607" lon="4.75479">
        <ele>127.5</ele>
        <time>2021-04-18T05:55:46Z</time>
      </trkpt>
      <trkpt lat="49.78611" lon="4.75482">
        <ele>129.2</ele>
        <time>2021-04-18T05:55:47Z</time>
      </trkpt>
      <trkpt lat="49.78616" lon="4.75485">
        <ele>127.5</ele>
        <time>2021-04-18T05:55:48Z</time>
      </trkpt>
      <trkpt lat="49.78625" lon="4.75491">
        <ele>128.7</ele>
        <time>2021-04-18T05:55:50Z</time>
      </trkpt>
      <trkpt lat="49.78629" lon="4.75494">
        <ele>127.3</ele>
        <time>2021-04-18T05:55:51Z</time>
      </trkpt>
      <trkpt lat="49.78634" lon="4.75496">
        <ele>127.2</ele>
        <time>2021-04-18T05:55:52Z</time>
      </trkpt>
      <trkpt lat="49.78643" lon="4.75502">
        <ele>127.3</ele>
        <time>2021-04-18T05:55:54Z</time>
      </trkpt>
      <trkpt lat="49.78648" lon="4.75505">
        <ele>128.2</ele>
        <time>2021-04-18T05:55:55Z</time>
      </trkpt>
      <trkpt lat="49.78656" lon="4.7551">
        <ele>125.6</ele>
        <time>2021-04-18T05:55:57Z</time>
      </trkpt>
      <trkpt lat="49.78669" lon="4.75519">
        <ele>124.1</ele>
        <time>2021-04-18T05:56:00Z</time>
      </trkpt>
      <trkpt lat="49.78674" lon="4.75522">
        <ele>125.6</ele>
        <time>2021-04-18T05:56:01Z</time>
      </trkpt>
      <trkpt lat="49.78684" lon="4.75528">
        <ele>125.5</ele>
        <time>2021-04-18T05:56:03Z</time>
      </trkpt>
      <trkpt lat="49.78688" lon="4.75531">
        <ele>126.4</ele>
        <time>2021-04-18T05:56:04Z</time>
      </trkpt>
      <trkpt lat="49.78693" lon="4.75534">
        <ele>124</ele>
        <time>2021-04-18T05:56:05Z</time>
      </trkpt>
      <trkpt lat="49.78697" lon="4.75537">
        <ele>125.4</ele>
        <time>2021-04-18T05:56:06Z</time>
      </trkpt>
      <trkpt lat="49.78706" lon="4.75543">
        <ele>125.9</ele>
        <time>2021-04-18T05:56:08Z</time>
      </trkpt>
      <trkpt lat="49.78711" lon="4.75546">
        <ele>125.4</ele>
        <time>2021-04-18T05:56:09Z</time>
      </trkpt>
      <trkpt lat="49.7872" lon="4.75553">
        <ele>123.2</ele>
        <time>2021-04-18T05:56:11Z</time>
      </trkpt>
      <trkpt lat="49.78729" lon="4.7556">
        <ele>121.6</ele>
        <time>2021-04-18T05:56:13Z</time>
      </trkpt>
      <trkpt lat="49.78734" lon="4.75563">
        <ele>123.1</ele>
        <time>2021-04-18T05:56:14Z</time>
      </trkpt>
      <trkpt lat="49.78738" lon="4.75567">
        <ele>123.6</ele>
        <time>2021-04-18T05:56:15Z</time>
      </trkpt>
      <trkpt lat="49.78747" lon="4.75573">
        <ele>124.1</ele>
        <time>2021-04-18T05:56:17Z</time>
      </trkpt>
      <trkpt lat="49.78752" lon="4.75575">
        <ele>123.5</ele>
        <time>2021-04-18T05:56:18Z</time>
      </trkpt>
      <trkpt lat="49.78761" lon="4.75581">
        <ele>125.6</ele>
        <time>2021-04-18T05:56:20Z</time>
      </trkpt>
      <trkpt lat="49.7877" lon="4.75587">
        <ele>125.2</ele>
        <time>2021-04-18T05:56:22Z</time>
      </trkpt>
      <trkpt lat="49.78779" lon="4.75592">
        <ele>125.1</ele>
        <time>2021-04-18T05:56:24Z</time>
      </trkpt>
      <trkpt lat="49.78789" lon="4.75598">
        <ele>126.6</ele>
        <time>2021-04-18T05:56:26Z</time>
      </trkpt>
      <trkpt lat="49.78798" lon="4.75603">
        <ele>127.5</ele>
        <time>2021-04-18T05:56:28Z</time>
      </trkpt>
      <trkpt lat="49.78803" lon="4.75606">
        <ele>126.8</ele>
        <time>2021-04-18T05:56:29Z</time>
      </trkpt>
      <trkpt lat="49.78812" lon="4.75613">
        <ele>127.7</ele>
        <time>2021-04-18T05:56:31Z</time>
      </trkpt>
      <trkpt lat="49.78817" lon="4.75616">
        <ele>127.6</ele>
        <time>2021-04-18T05:56:32Z</time>
      </trkpt>
      <trkpt lat="49.78825" lon="4.75623">
        <ele>128.5</ele>
        <time>2021-04-18T05:56:34Z</time>
      </trkpt>
      <trkpt lat="49.7883" lon="4.75626">
        <ele>131.1</ele>
        <time>2021-04-18T05:56:35Z</time>
      </trkpt>
      <trkpt lat="49.78835" lon="4.75629">
        <ele>129.1</ele>
        <time>2021-04-18T05:56:36Z</time>
      </trkpt>
      <trkpt lat="49.7884" lon="4.75632">
        <ele>130.5</ele>
        <time>2021-04-18T05:56:37Z</time>
      </trkpt>
      <trkpt lat="49.78844" lon="4.75635">
        <ele>127.9</ele>
        <time>2021-04-18T05:56:38Z</time>
      </trkpt>
      <trkpt lat="49.78854" lon="4.75641">
        <ele>131.2</ele>
        <time>2021-04-18T05:56:41Z</time>
      </trkpt>
      <trkpt lat="49.78859" lon="4.75645">
        <ele>132.5</ele>
        <time>2021-04-18T05:56:42Z</time>
      </trkpt>
      <trkpt lat="49.78864" lon="4.75648">
        <ele>129</ele>
        <time>2021-04-18T05:56:43Z</time>
      </trkpt>
      <trkpt lat="49.78874" lon="4.75653">
        <ele>130.8</ele>
        <time>2021-04-18T05:56:45Z</time>
      </trkpt>
      <trkpt lat="49.78885" lon="4.75658">
        <ele>135</ele>
        <time>2021-04-18T05:56:48Z</time>
      </trkpt>
      <trkpt lat="49.78898" lon="4.75664">
        <ele>134.1</ele>
        <time>2021-04-18T05:56:50Z</time>
      </trkpt>
      <trkpt lat="49.78909" lon="4.75669">
        <ele>132</ele>
        <time>2021-04-18T05:56:52Z</time>
      </trkpt>
      <trkpt lat="49.78919" lon="4.75673">
        <ele>134.5</ele>
        <time>2021-04-18T05:56:54Z</time>
      </trkpt>
      <trkpt lat="49.78924" lon="4.75675">
        <ele>133.7</ele>
        <time>2021-04-18T05:56:55Z</time>
      </trkpt>
      <trkpt lat="49.78934" lon="4.75679">
        <ele>135</ele>
        <time>2021-04-18T05:56:57Z</time>
      </trkpt>
      <trkpt lat="49.78938" lon="4.75681">
        <ele>134.9</ele>
        <time>2021-04-18T05:56:58Z</time>
      </trkpt>
      <trkpt lat="49.78948" lon="4.75685">
        <ele>136.6</ele>
        <time>2021-04-18T05:57:00Z</time>
      </trkpt>
      <trkpt lat="49.78958" lon="4.75689">
        <ele>134.8</ele>
        <time>2021-04-18T05:57:02Z</time>
      </trkpt>
      <trkpt lat="49.7897" lon="4.75694">
        <ele>136.6</ele>
        <time>2021-04-18T05:57:05Z</time>
      </trkpt>
      <trkpt lat="49.78981" lon="4.75698">
        <ele>137.9</ele>
        <time>2021-04-18T05:57:07Z</time>
      </trkpt>
      <trkpt lat="49.78991" lon="4.757">
        <ele>137.1</ele>
        <time>2021-04-18T05:57:09Z</time>
      </trkpt>
      <trkpt lat="49.79001" lon="4.75703">
        <ele>137.8</ele>
        <time>2021-04-18T05:57:11Z</time>
      </trkpt>
      <trkpt lat="49.79005" lon="4.75704">
        <ele>136.3</ele>
        <time>2021-04-18T05:57:12Z</time>
      </trkpt>
      <trkpt lat="49.79014" lon="4.75706">
        <ele>137.5</ele>
        <time>2021-04-18T05:57:14Z</time>
      </trkpt>
      <trkpt lat="49.79022" lon="4.75708">
        <ele>138.1</ele>
        <time>2021-04-18T05:57:16Z</time>
      </trkpt>
      <trkpt lat="49.7903" lon="4.7571">
        <ele>139</ele>
        <time>2021-04-18T05:57:18Z</time>
      </trkpt>
      <trkpt lat="49.79037" lon="4.75713">
        <ele>138.7</ele>
        <time>2021-04-18T05:57:20Z</time>
      </trkpt>
      <trkpt lat="49.79045" lon="4.75716">
        <ele>140.1</ele>
        <time>2021-04-18T05:57:22Z</time>
      </trkpt>
      <trkpt lat="49.7905" lon="4.75717">
        <ele>138.8</ele>
        <time>2021-04-18T05:57:24Z</time>
      </trkpt>
      <trkpt lat="49.79059" lon="4.7572">
        <ele>136.7</ele>
        <time>2021-04-18T05:57:26Z</time>
      </trkpt>
      <trkpt lat="49.79066" lon="4.75723">
        <ele>139.1</ele>
        <time>2021-04-18T05:57:28Z</time>
      </trkpt>
      <trkpt lat="49.79073" lon="4.75729">
        <ele>138.3</ele>
        <time>2021-04-18T05:57:30Z</time>
      </trkpt>
      <trkpt lat="49.7908" lon="4.7573">
        <ele>136.5</ele>
        <time>2021-04-18T05:57:32Z</time>
      </trkpt>
      <trkpt lat="49.79088" lon="4.75732">
        <ele>136.8</ele>
        <time>2021-04-18T05:57:34Z</time>
      </trkpt>
      <trkpt lat="49.791" lon="4.75735">
        <ele>138.5</ele>
        <time>2021-04-18T05:57:37Z</time>
      </trkpt>
      <trkpt lat="49.79109" lon="4.75737">
        <ele>138.9</ele>
        <time>2021-04-18T05:57:39Z</time>
      </trkpt>
      <trkpt lat="49.79117" lon="4.75739">
        <ele>138.1</ele>
        <time>2021-04-18T05:57:41Z</time>
      </trkpt>
      <trkpt lat="49.79126" lon="4.75741">
        <ele>138.8</ele>
        <time>2021-04-18T05:57:43Z</time>
      </trkpt>
      <trkpt lat="49.7913" lon="4.75742">
        <ele>137.9</ele>
        <time>2021-04-18T05:57:44Z</time>
      </trkpt>
      <trkpt lat="49.79136" lon="4.75744">
        <ele>138.5</ele>
        <time>2021-04-18T05:57:45Z</time>
      </trkpt>
      <trkpt lat="49.79146" lon="4.75747">
        <ele>137.6</ele>
        <time>2021-04-18T05:57:47Z</time>
      </trkpt>
      <trkpt lat="49.79156" lon="4.75749">
        <ele>138.2</ele>
        <time>2021-04-18T05:57:49Z</time>
      </trkpt>
      <trkpt lat="49.79169" lon="4.75753">
        <ele>138.4</ele>
        <time>2021-04-18T05:57:52Z</time>
      </trkpt>
      <trkpt lat="49.79179" lon="4.75757">
        <ele>137.2</ele>
        <time>2021-04-18T05:57:54Z</time>
      </trkpt>
      <trkpt lat="49.79185" lon="4.75759">
        <ele>136.8</ele>
        <time>2021-04-18T05:57:55Z</time>
      </trkpt>
      <trkpt lat="49.79195" lon="4.75761">
        <ele>138.4</ele>
        <time>2021-04-18T05:57:57Z</time>
      </trkpt>
      <trkpt lat="49.79204" lon="4.75764">
        <ele>136.9</ele>
        <time>2021-04-18T05:57:59Z</time>
      </trkpt>
      <trkpt lat="49.79208" lon="4.75765">
        <ele>136.1</ele>
        <time>2021-04-18T05:58:00Z</time>
      </trkpt>
      <trkpt lat="49.79221" lon="4.7577">
        <ele>137.5</ele>
        <time>2021-04-18T05:58:03Z</time>
      </trkpt>
      <trkpt lat="49.79232" lon="4.75773">
        <ele>140.4</ele>
        <time>2021-04-18T05:58:06Z</time>
      </trkpt>
      <trkpt lat="49.79239" lon="4.75773">
        <ele>142.3</ele>
        <time>2021-04-18T05:58:08Z</time>
      </trkpt>
      <trkpt lat="49.79246" lon="4.75773">
        <ele>143.2</ele>
        <time>2021-04-18T05:58:10Z</time>
      </trkpt>
      <trkpt lat="49.79252" lon="4.75774">
        <ele>143.7</ele>
        <time>2021-04-18T05:58:11Z</time>
      </trkpt>
      <trkpt lat="49.79257" lon="4.75774">
        <ele>145.2</ele>
        <time>2021-04-18T05:58:13Z</time>
      </trkpt>
      <trkpt lat="49.79264" lon="4.75775">
        <ele>144.8</ele>
        <time>2021-04-18T05:58:15Z</time>
      </trkpt>
      <trkpt lat="49.79269" lon="4.75776">
        <ele>145.5</ele>
        <time>2021-04-18T05:58:16Z</time>
      </trkpt>
      <trkpt lat="49.79285" lon="4.75778">
        <ele>144.2</ele>
        <time>2021-04-18T05:58:19Z</time>
      </trkpt>
      <trkpt lat="49.7929" lon="4.75779">
        <ele>145.8</ele>
        <time>2021-04-18T05:58:20Z</time>
      </trkpt>
      <trkpt lat="49.79296" lon="4.7578">
        <ele>141.4</ele>
        <time>2021-04-18T05:58:21Z</time>
      </trkpt>
      <trkpt lat="49.79308" lon="4.75781">
        <ele>143.6</ele>
        <time>2021-04-18T05:58:23Z</time>
      </trkpt>
      <trkpt lat="49.79314" lon="4.75782">
        <ele>141.6</ele>
        <time>2021-04-18T05:58:24Z</time>
      </trkpt>
      <trkpt lat="49.79322" lon="4.75781">
        <ele>142.6</ele>
        <time>2021-04-18T05:58:26Z</time>
      </trkpt>
      <trkpt lat="49.79329" lon="4.7578">
        <ele>142.1</ele>
        <time>2021-04-18T05:58:27Z</time>
      </trkpt>
      <trkpt lat="49.79335" lon="4.7578">
        <ele>139.3</ele>
        <time>2021-04-18T05:58:28Z</time>
      </trkpt>
      <trkpt lat="49.79341" lon="4.7578">
        <ele>138.3</ele>
        <time>2021-04-18T05:58:29Z</time>
      </trkpt>
      <trkpt lat="49.79351" lon="4.75781">
        <ele>139</ele>
        <time>2021-04-18T05:58:31Z</time>
      </trkpt>
      <trkpt lat="49.7936" lon="4.75781">
        <ele>137.4</ele>
        <time>2021-04-18T05:58:33Z</time>
      </trkpt>
      <trkpt lat="49.79366" lon="4.75781">
        <ele>137.2</ele>
        <time>2021-04-18T05:58:34Z</time>
      </trkpt>
      <trkpt lat="49.79372" lon="4.75781">
        <ele>139.1</ele>
        <time>2021-04-18T05:58:35Z</time>
      </trkpt>
      <trkpt lat="49.79377" lon="4.75781">
        <ele>138.7</ele>
        <time>2021-04-18T05:58:36Z</time>
      </trkpt>
      <trkpt lat="49.79383" lon="4.7578">
        <ele>139</ele>
        <time>2021-04-18T05:58:37Z</time>
      </trkpt>
      <trkpt lat="49.79391" lon="4.75778">
        <ele>136.7</ele>
        <time>2021-04-18T05:58:39Z</time>
      </trkpt>
      <trkpt lat="49.79396" lon="4.75777">
        <ele>136.8</ele>
        <time>2021-04-18T05:58:40Z</time>
      </trkpt>
      <trkpt lat="49.79401" lon="4.75778">
        <ele>137.3</ele>
        <time>2021-04-18T05:58:41Z</time>
      </trkpt>
      <trkpt lat="49.79411" lon="4.75778">
        <ele>135.3</ele>
        <time>2021-04-18T05:58:43Z</time>
      </trkpt>
      <trkpt lat="49.79416" lon="4.75772">
        <ele>136.2</ele>
        <time>2021-04-18T05:58:44Z</time>
      </trkpt>
      <trkpt lat="49.79424" lon="4.75773">
        <ele>134.3</ele>
        <time>2021-04-18T05:58:46Z</time>
      </trkpt>
      <trkpt lat="49.79434" lon="4.75774">
        <ele>134.3</ele>
        <time>2021-04-18T05:58:48Z</time>
      </trkpt>
      <trkpt lat="49.79446" lon="4.75775">
        <ele>134.7</ele>
        <time>2021-04-18T05:58:51Z</time>
      </trkpt>
      <trkpt lat="49.79452" lon="4.75777">
        <ele>133.8</ele>
        <time>2021-04-18T05:58:52Z</time>
      </trkpt>
      <trkpt lat="49.79464" lon="4.75777">
        <ele>130.8</ele>
        <time>2021-04-18T05:58:54Z</time>
      </trkpt>
      <trkpt lat="49.79474" lon="4.75778">
        <ele>132.7</ele>
        <time>2021-04-18T05:58:56Z</time>
      </trkpt>
      <trkpt lat="49.79485" lon="4.75778">
        <ele>131.7</ele>
        <time>2021-04-18T05:58:58Z</time>
      </trkpt>
      <trkpt lat="49.79495" lon="4.75778">
        <ele>134.4</ele>
        <time>2021-04-18T05:59:00Z</time>
      </trkpt>
      <trkpt lat="49.79503" lon="4.75778">
        <ele>131.2</ele>
        <time>2021-04-18T05:59:02Z</time>
      </trkpt>
      <trkpt lat="49.7951" lon="4.75776">
        <ele>130.7</ele>
        <time>2021-04-18T05:59:04Z</time>
      </trkpt>
      <trkpt lat="49.79517" lon="4.75776">
        <ele>131.7</ele>
        <time>2021-04-18T05:59:05Z</time>
      </trkpt>
      <trkpt lat="49.79525" lon="4.75773">
        <ele>131.5</ele>
        <time>2021-04-18T05:59:06Z</time>
      </trkpt>
      <trkpt lat="49.79529" lon="4.75769">
        <ele>130.5</ele>
        <time>2021-04-18T05:59:08Z</time>
      </trkpt>
      <trkpt lat="49.79534" lon="4.7577">
        <ele>129.6</ele>
        <time>2021-04-18T05:59:09Z</time>
      </trkpt>
      <trkpt lat="49.79541" lon="4.75774">
        <ele>130.7</ele>
        <time>2021-04-18T05:59:10Z</time>
      </trkpt>
      <trkpt lat="49.79552" lon="4.75775">
        <ele>128.1</ele>
        <time>2021-04-18T05:59:12Z</time>
      </trkpt>
      <trkpt lat="49.79558" lon="4.75775">
        <ele>129.3</ele>
        <time>2021-04-18T05:59:13Z</time>
      </trkpt>
      <trkpt lat="49.79566" lon="4.75772">
        <ele>127.9</ele>
        <time>2021-04-18T05:59:15Z</time>
      </trkpt>
      <trkpt lat="49.79574" lon="4.75767">
        <ele>127.6</ele>
        <time>2021-04-18T05:59:17Z</time>
      </trkpt>
      <trkpt lat="49.79584" lon="4.75768">
        <ele>128.4</ele>
        <time>2021-04-18T05:59:19Z</time>
      </trkpt>
      <trkpt lat="49.79589" lon="4.75768">
        <ele>129</ele>
        <time>2021-04-18T05:59:20Z</time>
      </trkpt>
      <trkpt lat="49.79597" lon="4.75768">
        <ele>128.9</ele>
        <time>2021-04-18T05:59:22Z</time>
      </trkpt>
      <trkpt lat="49.79606" lon="4.75769">
        <ele>129.7</ele>
        <time>2021-04-18T05:59:24Z</time>
      </trkpt>
      <trkpt lat="49.79618" lon="4.75767">
        <ele>130</ele>
        <time>2021-04-18T05:59:27Z</time>
      </trkpt>
      <trkpt lat="49.79627" lon="4.75765">
        <ele>129.2</ele>
        <time>2021-04-18T05:59:29Z</time>
      </trkpt>
      <trkpt lat="49.79635" lon="4.75765">
        <ele>130.2</ele>
        <time>2021-04-18T05:59:31Z</time>
      </trkpt>
      <trkpt lat="49.79649" lon="4.75766">
        <ele>128.2</ele>
        <time>2021-04-18T05:59:34Z</time>
      </trkpt>
      <trkpt lat="49.79659" lon="4.75766">
        <ele>130.3</ele>
        <time>2021-04-18T05:59:36Z</time>
      </trkpt>
      <trkpt lat="49.79664" lon="4.75765">
        <ele>125.8</ele>
        <time>2021-04-18T05:59:37Z</time>
      </trkpt>
      <trkpt lat="49.7967" lon="4.75765">
        <ele>128.3</ele>
        <time>2021-04-18T05:59:38Z</time>
      </trkpt>
      <trkpt lat="49.79679" lon="4.75764">
        <ele>126.4</ele>
        <time>2021-04-18T05:59:40Z</time>
      </trkpt>
      <trkpt lat="49.79684" lon="4.75764">
        <ele>127</ele>
        <time>2021-04-18T05:59:41Z</time>
      </trkpt>
      <trkpt lat="49.79695" lon="4.75763">
        <ele>126.2</ele>
        <time>2021-04-18T05:59:44Z</time>
      </trkpt>
      <trkpt lat="49.79701" lon="4.75763">
        <ele>126.6</ele>
        <time>2021-04-18T05:59:45Z</time>
      </trkpt>
      <trkpt lat="49.7971" lon="4.75764">
        <ele>128.2</ele>
        <time>2021-04-18T05:59:47Z</time>
      </trkpt>
      <trkpt lat="49.7972" lon="4.75764">
        <ele>124.5</ele>
        <time>2021-04-18T05:59:49Z</time>
      </trkpt>
      <trkpt lat="49.79727" lon="4.75764">
        <ele>125</ele>
        <time>2021-04-18T05:59:50Z</time>
      </trkpt>
      <trkpt lat="49.79735" lon="4.75763">
        <ele>126.4</ele>
        <time>2021-04-18T05:59:52Z</time>
      </trkpt>
      <trkpt lat="49.7974" lon="4.75763">
        <ele>125.6</ele>
        <time>2021-04-18T05:59:53Z</time>
      </trkpt>
      <trkpt lat="49.79751" lon="4.75762">
        <ele>127.3</ele>
        <time>2021-04-18T05:59:55Z</time>
      </trkpt>
      <trkpt lat="49.79756" lon="4.75762">
        <ele>126</ele>
        <time>2021-04-18T05:59:56Z</time>
      </trkpt>
      <trkpt lat="49.79765" lon="4.7576">
        <ele>125.3</ele>
        <time>2021-04-18T05:59:58Z</time>
      </trkpt>
      <trkpt lat="49.79778" lon="4.75757">
        <ele>126.8</ele>
        <time>2021-04-18T06:00:01Z</time>
      </trkpt>
      <trkpt lat="49.79788" lon="4.75757">
        <ele>127.1</ele>
        <time>2021-04-18T06:00:03Z</time>
      </trkpt>
      <trkpt lat="49.79795" lon="4.75758">
        <ele>123.8</ele>
        <time>2021-04-18T06:00:05Z</time>
      </trkpt>
      <trkpt lat="49.79802" lon="4.75756">
        <ele>125.5</ele>
        <time>2021-04-18T06:00:07Z</time>
      </trkpt>
      <trkpt lat="49.79811" lon="4.75755">
        <ele>127.9</ele>
        <time>2021-04-18T06:00:09Z</time>
      </trkpt>
      <trkpt lat="49.79819" lon="4.75754">
        <ele>125.9</ele>
        <time>2021-04-18T06:00:11Z</time>
      </trkpt>
      <trkpt lat="49.79824" lon="4.75752">
        <ele>124.9</ele>
        <time>2021-04-18T06:00:12Z</time>
      </trkpt>
      <trkpt lat="49.79835" lon="4.75748">
        <ele>125.6</ele>
        <time>2021-04-18T06:00:14Z</time>
      </trkpt>
      <trkpt lat="49.79847" lon="4.75746">
        <ele>125.6</ele>
        <time>2021-04-18T06:00:17Z</time>
      </trkpt>
      <trkpt lat="49.79856" lon="4.75743">
        <ele>125.1</ele>
        <time>2021-04-18T06:00:19Z</time>
      </trkpt>
      <trkpt lat="49.79867" lon="4.75737">
        <ele>124.9</ele>
        <time>2021-04-18T06:00:22Z</time>
      </trkpt>
      <trkpt lat="49.79876" lon="4.75734">
        <ele>127.4</ele>
        <time>2021-04-18T06:00:24Z</time>
      </trkpt>
      <trkpt lat="49.79889" lon="4.7573">
        <ele>126.9</ele>
        <time>2021-04-18T06:00:27Z</time>
      </trkpt>
      <trkpt lat="49.79893" lon="4.75728">
        <ele>127</ele>
        <time>2021-04-18T06:00:28Z</time>
      </trkpt>
      <trkpt lat="49.79898" lon="4.75726">
        <ele>128.2</ele>
        <time>2021-04-18T06:00:29Z</time>
      </trkpt>
      <trkpt lat="49.79902" lon="4.75724">
        <ele>129</ele>
        <time>2021-04-18T06:00:30Z</time>
      </trkpt>
      <trkpt lat="49.7991" lon="4.75718">
        <ele>127.1</ele>
        <time>2021-04-18T06:00:32Z</time>
      </trkpt>
      <trkpt lat="49.79918" lon="4.75713">
        <ele>126.2</ele>
        <time>2021-04-18T06:00:34Z</time>
      </trkpt>
      <trkpt lat="49.79923" lon="4.75708">
        <ele>127.6</ele>
        <time>2021-04-18T06:00:36Z</time>
      </trkpt>
      <trkpt lat="49.79933" lon="4.757">
        <ele>127.1</ele>
        <time>2021-04-18T06:00:39Z</time>
      </trkpt>
      <trkpt lat="49.7994" lon="4.75695">
        <ele>127.1</ele>
        <time>2021-04-18T06:00:42Z</time>
      </trkpt>
      <trkpt lat="49.79948" lon="4.75688">
        <ele>126.6</ele>
        <time>2021-04-18T06:00:44Z</time>
      </trkpt>
      <trkpt lat="49.79958" lon="4.75676">
        <ele>128.3</ele>
        <time>2021-04-18T06:00:47Z</time>
      </trkpt>
      <trkpt lat="49.79965" lon="4.75667">
        <ele>129.3</ele>
        <time>2021-04-18T06:00:49Z</time>
      </trkpt>
      <trkpt lat="49.79969" lon="4.75662">
        <ele>130</ele>
        <time>2021-04-18T06:00:51Z</time>
      </trkpt>
      <trkpt lat="49.79974" lon="4.75657">
        <ele>131.6</ele>
        <time>2021-04-18T06:00:53Z</time>
      </trkpt>
      <trkpt lat="49.79982" lon="4.75645">
        <ele>132.5</ele>
        <time>2021-04-18T06:00:57Z</time>
      </trkpt>
      <trkpt lat="49.79985" lon="4.7564">
        <ele>132</ele>
        <time>2021-04-18T06:00:58Z</time>
      </trkpt>
      <trkpt lat="49.79989" lon="4.75634">
        <ele>134.1</ele>
        <time>2021-04-18T06:01:00Z</time>
      </trkpt>
      <trkpt lat="49.79995" lon="4.75626">
        <ele>137.5</ele>
        <time>2021-04-18T06:01:02Z</time>
      </trkpt>
      <trkpt lat="49.79999" lon="4.7562">
        <ele>135.3</ele>
        <time>2021-04-18T06:01:03Z</time>
      </trkpt>
      <trkpt lat="49.80006" lon="4.7561">
        <ele>137.1</ele>
        <time>2021-04-18T06:01:05Z</time>
      </trkpt>
      <trkpt lat="49.80013" lon="4.75602">
        <ele>136.3</ele>
        <time>2021-04-18T06:01:07Z</time>
      </trkpt>
      <trkpt lat="49.80024" lon="4.75588">
        <ele>134.2</ele>
        <time>2021-04-18T06:01:10Z</time>
      </trkpt>
      <trkpt lat="49.80031" lon="4.75576">
        <ele>134.8</ele>
        <time>2021-04-18T06:01:13Z</time>
      </trkpt>
      <trkpt lat="49.8004" lon="4.75561">
        <ele>135.4</ele>
        <time>2021-04-18T06:01:16Z</time>
      </trkpt>
      <trkpt lat="49.80045" lon="4.75551">
        <ele>136</ele>
        <time>2021-04-18T06:01:18Z</time>
      </trkpt>
      <trkpt lat="49.80052" lon="4.75536">
        <ele>135.3</ele>
        <time>2021-04-18T06:01:21Z</time>
      </trkpt>
      <trkpt lat="49.80061" lon="4.75521">
        <ele>137.9</ele>
        <time>2021-04-18T06:01:24Z</time>
      </trkpt>
      <trkpt lat="49.80067" lon="4.75512">
        <ele>137.8</ele>
        <time>2021-04-18T06:01:26Z</time>
      </trkpt>
      <trkpt lat="49.80072" lon="4.75504">
        <ele>136.1</ele>
        <time>2021-04-18T06:01:28Z</time>
      </trkpt>
      <trkpt lat="49.80077" lon="4.75496">
        <ele>137.5</ele>
        <time>2021-04-18T06:01:30Z</time>
      </trkpt>
      <trkpt lat="49.80081" lon="4.75488">
        <ele>138.9</ele>
        <time>2021-04-18T06:01:32Z</time>
      </trkpt>
      <trkpt lat="49.80085" lon="4.75479">
        <ele>138.8</ele>
        <time>2021-04-18T06:01:34Z</time>
      </trkpt>
      <trkpt lat="49.8009" lon="4.75467">
        <ele>139.8</ele>
        <time>2021-04-18T06:01:36Z</time>
      </trkpt>
      <trkpt lat="49.80093" lon="4.7546">
        <ele>136.9</ele>
        <time>2021-04-18T06:01:37Z</time>
      </trkpt>
      <trkpt lat="49.801" lon="4.75445">
        <ele>136.2</ele>
        <time>2021-04-18T06:01:39Z</time>
      </trkpt>
      <trkpt lat="49.80105" lon="4.75432">
        <ele>137.5</ele>
        <time>2021-04-18T06:01:41Z</time>
      </trkpt>
      <trkpt lat="49.80109" lon="4.75419">
        <ele>136</ele>
        <time>2021-04-18T06:01:43Z</time>
      </trkpt>
      <trkpt lat="49.80115" lon="4.75407">
        <ele>135.8</ele>
        <time>2021-04-18T06:01:45Z</time>
      </trkpt>
      <trkpt lat="49.80121" lon="4.75393">
        <ele>133.8</ele>
        <time>2021-04-18T06:01:48Z</time>
      </trkpt>
      <trkpt lat="49.80124" lon="4.75386">
        <ele>132.9</ele>
        <time>2021-04-18T06:01:49Z</time>
      </trkpt>
      <trkpt lat="49.80128" lon="4.75377">
        <ele>130.4</ele>
        <time>2021-04-18T06:01:51Z</time>
      </trkpt>
      <trkpt lat="49.80133" lon="4.75366">
        <ele>128.8</ele>
        <time>2021-04-18T06:01:53Z</time>
      </trkpt>
      <trkpt lat="49.80136" lon="4.75359">
        <ele>131.2</ele>
        <time>2021-04-18T06:01:54Z</time>
      </trkpt>
      <trkpt lat="49.8014" lon="4.75351">
        <ele>129</ele>
        <time>2021-04-18T06:01:56Z</time>
      </trkpt>
      <trkpt lat="49.80144" lon="4.75342">
        <ele>130.2</ele>
        <time>2021-04-18T06:01:58Z</time>
      </trkpt>
      <trkpt lat="49.80149" lon="4.7533">
        <ele>131</ele>
        <time>2021-04-18T06:02:01Z</time>
      </trkpt>
      <trkpt lat="49.80153" lon="4.75322">
        <ele>128</ele>
        <time>2021-04-18T06:02:03Z</time>
      </trkpt>
      <trkpt lat="49.80156" lon="4.75313">
        <ele>128.2</ele>
        <time>2021-04-18T06:02:05Z</time>
      </trkpt>
      <trkpt lat="49.80162" lon="4.75301">
        <ele>129.8</ele>
        <time>2021-04-18T06:02:08Z</time>
      </trkpt>
      <trkpt lat="49.80167" lon="4.75292">
        <ele>128.7</ele>
        <time>2021-04-18T06:02:10Z</time>
      </trkpt>
      <trkpt lat="49.80172" lon="4.75284">
        <ele>129.4</ele>
        <time>2021-04-18T06:02:12Z</time>
      </trkpt>
      <trkpt lat="49.80177" lon="4.75278">
        <ele>128.6</ele>
        <time>2021-04-18T06:02:14Z</time>
      </trkpt>
      <trkpt lat="49.80182" lon="4.75273">
        <ele>129.2</ele>
        <time>2021-04-18T06:02:16Z</time>
      </trkpt>
      <trkpt lat="49.80188" lon="4.75264">
        <ele>129.1</ele>
        <time>2021-04-18T06:02:18Z</time>
      </trkpt>
      <trkpt lat="49.80191" lon="4.75259">
        <ele>129.6</ele>
        <time>2021-04-18T06:02:19Z</time>
      </trkpt>
      <trkpt lat="49.80196" lon="4.75253">
        <ele>131.4</ele>
        <time>2021-04-18T06:02:21Z</time>
      </trkpt>
      <trkpt lat="49.80201" lon="4.7524">
        <ele>132</ele>
        <time>2021-04-18T06:02:24Z</time>
      </trkpt>
      <trkpt lat="49.80206" lon="4.75231">
        <ele>134.3</ele>
        <time>2021-04-18T06:02:27Z</time>
      </trkpt>
      <trkpt lat="49.80212" lon="4.75221">
        <ele>132.8</ele>
        <time>2021-04-18T06:02:29Z</time>
      </trkpt>
      <trkpt lat="49.80215" lon="4.75216">
        <ele>134.6</ele>
        <time>2021-04-18T06:02:31Z</time>
      </trkpt>
      <trkpt lat="49.80221" lon="4.75203">
        <ele>138.2</ele>
        <time>2021-04-18T06:02:34Z</time>
      </trkpt>
      <trkpt lat="49.80224" lon="4.75196">
        <ele>138.5</ele>
        <time>2021-04-18T06:02:36Z</time>
      </trkpt>
      <trkpt lat="49.8023" lon="4.75187">
        <ele>138.3</ele>
        <time>2021-04-18T06:02:38Z</time>
      </trkpt>
      <trkpt lat="49.80236" lon="4.75176">
        <ele>141.4</ele>
        <time>2021-04-18T06:02:40Z</time>
      </trkpt>
      <trkpt lat="49.80242" lon="4.75166">
        <ele>140.8</ele>
        <time>2021-04-18T06:02:42Z</time>
      </trkpt>
      <trkpt lat="49.80247" lon="4.75154">
        <ele>141.5</ele>
        <time>2021-04-18T06:02:44Z</time>
      </trkpt>
      <trkpt lat="49.80253" lon="4.75144">
        <ele>143.3</ele>
        <time>2021-04-18T06:02:46Z</time>
      </trkpt>
      <trkpt lat="49.80259" lon="4.75135">
        <ele>145.4</ele>
        <time>2021-04-18T06:02:48Z</time>
      </trkpt>
      <trkpt lat="49.80265" lon="4.75125">
        <ele>144.6</ele>
        <time>2021-04-18T06:02:50Z</time>
      </trkpt>
      <trkpt lat="49.80271" lon="4.75116">
        <ele>144.2</ele>
        <time>2021-04-18T06:02:52Z</time>
      </trkpt>
      <trkpt lat="49.80277" lon="4.75105">
        <ele>146</ele>
        <time>2021-04-18T06:02:54Z</time>
      </trkpt>
      <trkpt lat="49.8028" lon="4.75099">
        <ele>145.3</ele>
        <time>2021-04-18T06:02:55Z</time>
      </trkpt>
      <trkpt lat="49.80284" lon="4.75092">
        <ele>145.1</ele>
        <time>2021-04-18T06:02:56Z</time>
      </trkpt>
      <trkpt lat="49.80288" lon="4.75085">
        <ele>145.7</ele>
        <time>2021-04-18T06:02:58Z</time>
      </trkpt>
      <trkpt lat="49.80294" lon="4.75075">
        <ele>144.7</ele>
        <time>2021-04-18T06:03:00Z</time>
      </trkpt>
      <trkpt lat="49.80303" lon="4.7506">
        <ele>144.5</ele>
        <time>2021-04-18T06:03:03Z</time>
      </trkpt>
      <trkpt lat="49.80308" lon="4.7505">
        <ele>143.4</ele>
        <time>2021-04-18T06:03:05Z</time>
      </trkpt>
      <trkpt lat="49.80315" lon="4.75037">
        <ele>144</ele>
        <time>2021-04-18T06:03:08Z</time>
      </trkpt>
      <trkpt lat="49.80321" lon="4.75029">
        <ele>145.1</ele>
        <time>2021-04-18T06:03:10Z</time>
      </trkpt>
      <trkpt lat="49.8033" lon="4.75018">
        <ele>145.5</ele>
        <time>2021-04-18T06:03:13Z</time>
      </trkpt>
      <trkpt lat="49.80335" lon="4.75011">
        <ele>145.4</ele>
        <time>2021-04-18T06:03:15Z</time>
      </trkpt>
      <trkpt lat="49.80344" lon="4.74998">
        <ele>146.8</ele>
        <time>2021-04-18T06:03:18Z</time>
      </trkpt>
      <trkpt lat="49.80349" lon="4.74991">
        <ele>147.1</ele>
        <time>2021-04-18T06:03:20Z</time>
      </trkpt>
      <trkpt lat="49.80357" lon="4.74981">
        <ele>149</ele>
        <time>2021-04-18T06:03:23Z</time>
      </trkpt>
      <trkpt lat="49.80364" lon="4.7497">
        <ele>148</ele>
        <time>2021-04-18T06:03:26Z</time>
      </trkpt>
      <trkpt lat="49.80372" lon="4.74956">
        <ele>147.8</ele>
        <time>2021-04-18T06:03:29Z</time>
      </trkpt>
      <trkpt lat="49.80377" lon="4.7495">
        <ele>149.7</ele>
        <time>2021-04-18T06:03:31Z</time>
      </trkpt>
      <trkpt lat="49.80379" lon="4.74944">
        <ele>148.8</ele>
        <time>2021-04-18T06:03:33Z</time>
      </trkpt>
      <trkpt lat="49.80384" lon="4.74937">
        <ele>148.8</ele>
        <time>2021-04-18T06:03:36Z</time>
      </trkpt>
      <trkpt lat="49.8039" lon="4.74932">
        <ele>152.6</ele>
        <time>2021-04-18T06:03:38Z</time>
      </trkpt>
      <trkpt lat="49.80395" lon="4.74927">
        <ele>153.7</ele>
        <time>2021-04-18T06:03:42Z</time>
      </trkpt>
      <trkpt lat="49.80402" lon="4.74922">
        <ele>156.7</ele>
        <time>2021-04-18T06:03:45Z</time>
      </trkpt>
      <trkpt lat="49.80407" lon="4.74916">
        <ele>155.5</ele>
        <time>2021-04-18T06:03:47Z</time>
      </trkpt>
      <trkpt lat="49.80412" lon="4.74912">
        <ele>157.5</ele>
        <time>2021-04-18T06:03:48Z</time>
      </trkpt>
      <trkpt lat="49.80416" lon="4.74907">
        <ele>159.3</ele>
        <time>2021-04-18T06:03:50Z</time>
      </trkpt>
      <trkpt lat="49.80421" lon="4.74901">
        <ele>159.7</ele>
        <time>2021-04-18T06:03:52Z</time>
      </trkpt>
      <trkpt lat="49.80425" lon="4.74896">
        <ele>160.1</ele>
        <time>2021-04-18T06:03:53Z</time>
      </trkpt>
      <trkpt lat="49.80429" lon="4.7489">
        <ele>160.4</ele>
        <time>2021-04-18T06:03:55Z</time>
      </trkpt>
      <trkpt lat="49.80436" lon="4.74879">
        <ele>163.7</ele>
        <time>2021-04-18T06:03:57Z</time>
      </trkpt>
      <trkpt lat="49.80439" lon="4.74874">
        <ele>163.5</ele>
        <time>2021-04-18T06:03:59Z</time>
      </trkpt>
      <trkpt lat="49.80442" lon="4.74868">
        <ele>164.8</ele>
        <time>2021-04-18T06:04:00Z</time>
      </trkpt>
      <trkpt lat="49.80447" lon="4.7486">
        <ele>162.6</ele>
        <time>2021-04-18T06:04:03Z</time>
      </trkpt>
      <trkpt lat="49.80452" lon="4.74851">
        <ele>163</ele>
        <time>2021-04-18T06:04:05Z</time>
      </trkpt>
      <trkpt lat="49.80456" lon="4.74841">
        <ele>164.4</ele>
        <time>2021-04-18T06:04:07Z</time>
      </trkpt>
      <trkpt lat="49.80461" lon="4.74831">
        <ele>163.7</ele>
        <time>2021-04-18T06:04:09Z</time>
      </trkpt>
      <trkpt lat="49.80466" lon="4.7482">
        <ele>163</ele>
        <time>2021-04-18T06:04:11Z</time>
      </trkpt>
      <trkpt lat="49.8047" lon="4.74809">
        <ele>163.1</ele>
        <time>2021-04-18T06:04:13Z</time>
      </trkpt>
      <trkpt lat="49.80474" lon="4.74799">
        <ele>164.8</ele>
        <time>2021-04-18T06:04:15Z</time>
      </trkpt>
      <trkpt lat="49.8048" lon="4.74784">
        <ele>162.6</ele>
        <time>2021-04-18T06:04:17Z</time>
      </trkpt>
      <trkpt lat="49.80485" lon="4.74774">
        <ele>163.8</ele>
        <time>2021-04-18T06:04:19Z</time>
      </trkpt>
      <trkpt lat="49.8049" lon="4.74766">
        <ele>165.4</ele>
        <time>2021-04-18T06:04:21Z</time>
      </trkpt>
      <trkpt lat="49.80498" lon="4.74752">
        <ele>162.4</ele>
        <time>2021-04-18T06:04:24Z</time>
      </trkpt>
      <trkpt lat="49.80504" lon="4.74744">
        <ele>161</ele>
        <time>2021-04-18T06:04:26Z</time>
      </trkpt>
      <trkpt lat="49.80509" lon="4.74737">
        <ele>162.9</ele>
        <time>2021-04-18T06:04:28Z</time>
      </trkpt>
      <trkpt lat="49.80515" lon="4.74729">
        <ele>163.8</ele>
        <time>2021-04-18T06:04:30Z</time>
      </trkpt>
      <trkpt lat="49.80523" lon="4.74719">
        <ele>162.2</ele>
        <time>2021-04-18T06:04:32Z</time>
      </trkpt>
      <trkpt lat="49.80528" lon="4.74712">
        <ele>163.8</ele>
        <time>2021-04-18T06:04:34Z</time>
      </trkpt>
      <trkpt lat="49.80532" lon="4.74702">
        <ele>161.3</ele>
        <time>2021-04-18T06:04:36Z</time>
      </trkpt>
      <trkpt lat="49.80536" lon="4.74696">
        <ele>163.3</ele>
        <time>2021-04-18T06:04:37Z</time>
      </trkpt>
      <trkpt lat="49.80541" lon="4.74689">
        <ele>162.8</ele>
        <time>2021-04-18T06:04:39Z</time>
      </trkpt>
      <trkpt lat="49.80547" lon="4.7468">
        <ele>162.3</ele>
        <time>2021-04-18T06:04:41Z</time>
      </trkpt>
      <trkpt lat="49.80554" lon="4.74671">
        <ele>161.9</ele>
        <time>2021-04-18T06:04:43Z</time>
      </trkpt>
      <trkpt lat="49.8056" lon="4.74665">
        <ele>162.7</ele>
        <time>2021-04-18T06:04:45Z</time>
      </trkpt>
      <trkpt lat="49.80569" lon="4.74652">
        <ele>164.1</ele>
        <time>2021-04-18T06:04:48Z</time>
      </trkpt>
      <trkpt lat="49.80574" lon="4.74645">
        <ele>164.1</ele>
        <time>2021-04-18T06:04:50Z</time>
      </trkpt>
      <trkpt lat="49.80581" lon="4.74635">
        <ele>161.5</ele>
        <time>2021-04-18T06:04:52Z</time>
      </trkpt>
      <trkpt lat="49.80588" lon="4.74622">
        <ele>164.4</ele>
        <time>2021-04-18T06:04:55Z</time>
      </trkpt>
      <trkpt lat="49.80595" lon="4.7461">
        <ele>164.5</ele>
        <time>2021-04-18T06:04:57Z</time>
      </trkpt>
      <trkpt lat="49.80601" lon="4.74603">
        <ele>164</ele>
        <time>2021-04-18T06:04:59Z</time>
      </trkpt>
      <trkpt lat="49.80611" lon="4.74589">
        <ele>165.8</ele>
        <time>2021-04-18T06:05:02Z</time>
      </trkpt>
      <trkpt lat="49.8062" lon="4.74579">
        <ele>164.4</ele>
        <time>2021-04-18T06:05:05Z</time>
      </trkpt>
      <trkpt lat="49.80629" lon="4.74563">
        <ele>163.4</ele>
        <time>2021-04-18T06:05:08Z</time>
      </trkpt>
      <trkpt lat="49.80635" lon="4.74553">
        <ele>163.7</ele>
        <time>2021-04-18T06:05:10Z</time>
      </trkpt>
      <trkpt lat="49.80641" lon="4.74541">
        <ele>163.1</ele>
        <time>2021-04-18T06:05:12Z</time>
      </trkpt>
      <trkpt lat="49.80646" lon="4.74533">
        <ele>164.4</ele>
        <time>2021-04-18T06:05:14Z</time>
      </trkpt>
      <trkpt lat="49.80652" lon="4.74524">
        <ele>162.2</ele>
        <time>2021-04-18T06:05:16Z</time>
      </trkpt>
      <trkpt lat="49.80658" lon="4.74515">
        <ele>164.3</ele>
        <time>2021-04-18T06:05:18Z</time>
      </trkpt>
      <trkpt lat="49.80667" lon="4.74501">
        <ele>162.3</ele>
        <time>2021-04-18T06:05:21Z</time>
      </trkpt>
      <trkpt lat="49.80671" lon="4.74495">
        <ele>163.3</ele>
        <time>2021-04-18T06:05:22Z</time>
      </trkpt>
      <trkpt lat="49.80675" lon="4.74488">
        <ele>160.8</ele>
        <time>2021-04-18T06:05:24Z</time>
      </trkpt>
      <trkpt lat="49.80685" lon="4.74471">
        <ele>160.2</ele>
        <time>2021-04-18T06:05:27Z</time>
      </trkpt>
      <trkpt lat="49.80692" lon="4.74457">
        <ele>158.5</ele>
        <time>2021-04-18T06:05:30Z</time>
      </trkpt>
      <trkpt lat="49.80697" lon="4.74448">
        <ele>156.9</ele>
        <time>2021-04-18T06:05:32Z</time>
      </trkpt>
      <trkpt lat="49.80703" lon="4.74437">
        <ele>156.4</ele>
        <time>2021-04-18T06:05:34Z</time>
      </trkpt>
      <trkpt lat="49.80706" lon="4.74432">
        <ele>155.3</ele>
        <time>2021-04-18T06:05:35Z</time>
      </trkpt>
      <trkpt lat="49.80713" lon="4.74421">
        <ele>153.3</ele>
        <time>2021-04-18T06:05:37Z</time>
      </trkpt>
      <trkpt lat="49.8072" lon="4.7441">
        <ele>152.4</ele>
        <time>2021-04-18T06:05:39Z</time>
      </trkpt>
      <trkpt lat="49.80728" lon="4.744">
        <ele>152.1</ele>
        <time>2021-04-18T06:05:41Z</time>
      </trkpt>
      <trkpt lat="49.80735" lon="4.7439">
        <ele>150.2</ele>
        <time>2021-04-18T06:05:43Z</time>
      </trkpt>
      <trkpt lat="49.80741" lon="4.7438">
        <ele>150.6</ele>
        <time>2021-04-18T06:05:45Z</time>
      </trkpt>
      <trkpt lat="49.80747" lon="4.74373">
        <ele>148.4</ele>
        <time>2021-04-18T06:05:47Z</time>
      </trkpt>
      <trkpt lat="49.80754" lon="4.74363">
        <ele>147.3</ele>
        <time>2021-04-18T06:05:49Z</time>
      </trkpt>
      <trkpt lat="49.80763" lon="4.74352">
        <ele>145</ele>
        <time>2021-04-18T06:05:52Z</time>
      </trkpt>
      <trkpt lat="49.8077" lon="4.74345">
        <ele>145.5</ele>
        <time>2021-04-18T06:05:54Z</time>
      </trkpt>
      <trkpt lat="49.80778" lon="4.74336">
        <ele>146.7</ele>
        <time>2021-04-18T06:05:57Z</time>
      </trkpt>
      <trkpt lat="49.80784" lon="4.7433">
        <ele>146.5</ele>
        <time>2021-04-18T06:05:59Z</time>
      </trkpt>
      <trkpt lat="49.80791" lon="4.74323">
        <ele>143.1</ele>
        <time>2021-04-18T06:06:01Z</time>
      </trkpt>
      <trkpt lat="49.808" lon="4.74314">
        <ele>145.1</ele>
        <time>2021-04-18T06:06:03Z</time>
      </trkpt>
      <trkpt lat="49.80807" lon="4.74307">
        <ele>142.9</ele>
        <time>2021-04-18T06:06:05Z</time>
      </trkpt>
      <trkpt lat="49.80815" lon="4.74299">
        <ele>143.7</ele>
        <time>2021-04-18T06:06:07Z</time>
      </trkpt>
      <trkpt lat="49.80819" lon="4.74296">
        <ele>143.1</ele>
        <time>2021-04-18T06:06:08Z</time>
      </trkpt>
      <trkpt lat="49.80823" lon="4.74292">
        <ele>143</ele>
        <time>2021-04-18T06:06:09Z</time>
      </trkpt>
      <trkpt lat="49.8083" lon="4.74284">
        <ele>140.5</ele>
        <time>2021-04-18T06:06:11Z</time>
      </trkpt>
      <trkpt lat="49.80838" lon="4.74276">
        <ele>142.1</ele>
        <time>2021-04-18T06:06:13Z</time>
      </trkpt>
      <trkpt lat="49.80842" lon="4.74272">
        <ele>141.8</ele>
        <time>2021-04-18T06:06:14Z</time>
      </trkpt>
      <trkpt lat="49.80849" lon="4.74264">
        <ele>141.3</ele>
        <time>2021-04-18T06:06:16Z</time>
      </trkpt>
      <trkpt lat="49.8086" lon="4.74252">
        <ele>141.7</ele>
        <time>2021-04-18T06:06:19Z</time>
      </trkpt>
      <trkpt lat="49.8087" lon="4.74243">
        <ele>141.2</ele>
        <time>2021-04-18T06:06:22Z</time>
      </trkpt>
      <trkpt lat="49.80881" lon="4.74235">
        <ele>142.1</ele>
        <time>2021-04-18T06:06:25Z</time>
      </trkpt>
      <trkpt lat="49.80888" lon="4.74228">
        <ele>142.8</ele>
        <time>2021-04-18T06:06:27Z</time>
      </trkpt>
      <trkpt lat="49.80897" lon="4.7422">
        <ele>145.2</ele>
        <time>2021-04-18T06:06:30Z</time>
      </trkpt>
      <trkpt lat="49.80905" lon="4.74215">
        <ele>146.1</ele>
        <time>2021-04-18T06:06:32Z</time>
      </trkpt>
      <trkpt lat="49.8091" lon="4.74209">
        <ele>146.2</ele>
        <time>2021-04-18T06:06:34Z</time>
      </trkpt>
      <trkpt lat="49.8092" lon="4.74202">
        <ele>148</ele>
        <time>2021-04-18T06:06:37Z</time>
      </trkpt>
      <trkpt lat="49.80926" lon="4.74195">
        <ele>149.4</ele>
        <time>2021-04-18T06:06:38Z</time>
      </trkpt>
      <trkpt lat="49.8093" lon="4.7419">
        <ele>149.3</ele>
        <time>2021-04-18T06:06:40Z</time>
      </trkpt>
      <trkpt lat="49.80941" lon="4.7418">
        <ele>151.7</ele>
        <time>2021-04-18T06:06:43Z</time>
      </trkpt>
      <trkpt lat="49.80948" lon="4.74173">
        <ele>151.1</ele>
        <time>2021-04-18T06:06:45Z</time>
      </trkpt>
      <trkpt lat="49.80954" lon="4.74165">
        <ele>150.6</ele>
        <time>2021-04-18T06:06:47Z</time>
      </trkpt>
      <trkpt lat="49.80961" lon="4.74162">
        <ele>149.3</ele>
        <time>2021-04-18T06:06:49Z</time>
      </trkpt>
      <trkpt lat="49.80967" lon="4.74158">
        <ele>150.9</ele>
        <time>2021-04-18T06:06:51Z</time>
      </trkpt>
      <trkpt lat="49.80978" lon="4.74151">
        <ele>152.1</ele>
        <time>2021-04-18T06:06:54Z</time>
      </trkpt>
      <trkpt lat="49.80991" lon="4.7414">
        <ele>153.4</ele>
        <time>2021-04-18T06:06:57Z</time>
      </trkpt>
      <trkpt lat="49.80999" lon="4.74133">
        <ele>150.9</ele>
        <time>2021-04-18T06:06:59Z</time>
      </trkpt>
      <trkpt lat="49.81006" lon="4.74127">
        <ele>152.4</ele>
        <time>2021-04-18T06:07:01Z</time>
      </trkpt>
      <trkpt lat="49.81016" lon="4.74119">
        <ele>152.2</ele>
        <time>2021-04-18T06:07:04Z</time>
      </trkpt>
      <trkpt lat="49.81023" lon="4.74114">
        <ele>153.2</ele>
        <time>2021-04-18T06:07:06Z</time>
      </trkpt>
      <trkpt lat="49.81031" lon="4.74109">
        <ele>154.1</ele>
        <time>2021-04-18T06:07:08Z</time>
      </trkpt>
      <trkpt lat="49.8104" lon="4.74102">
        <ele>153.5</ele>
        <time>2021-04-18T06:07:10Z</time>
      </trkpt>
      <trkpt lat="49.81048" lon="4.74097">
        <ele>153.2</ele>
        <time>2021-04-18T06:07:12Z</time>
      </trkpt>
      <trkpt lat="49.81056" lon="4.74091">
        <ele>152.8</ele>
        <time>2021-04-18T06:07:14Z</time>
      </trkpt>
      <trkpt lat="49.81067" lon="4.74082">
        <ele>152.4</ele>
        <time>2021-04-18T06:07:17Z</time>
      </trkpt>
      <trkpt lat="49.81074" lon="4.74077">
        <ele>152.1</ele>
        <time>2021-04-18T06:07:19Z</time>
      </trkpt>
      <trkpt lat="49.81082" lon="4.74072">
        <ele>149.9</ele>
        <time>2021-04-18T06:07:21Z</time>
      </trkpt>
      <trkpt lat="49.8109" lon="4.74066">
        <ele>151.7</ele>
        <time>2021-04-18T06:07:23Z</time>
      </trkpt>
      <trkpt lat="49.81097" lon="4.7406">
        <ele>150.6</ele>
        <time>2021-04-18T06:07:25Z</time>
      </trkpt>
      <trkpt lat="49.81105" lon="4.74055">
        <ele>154.2</ele>
        <time>2021-04-18T06:07:27Z</time>
      </trkpt>
      <trkpt lat="49.81113" lon="4.7405">
        <ele>153.3</ele>
        <time>2021-04-18T06:07:29Z</time>
      </trkpt>
      <trkpt lat="49.81122" lon="4.74047">
        <ele>154.6</ele>
        <time>2021-04-18T06:07:31Z</time>
      </trkpt>
      <trkpt lat="49.81133" lon="4.74044">
        <ele>154.5</ele>
        <time>2021-04-18T06:07:34Z</time>
      </trkpt>
      <trkpt lat="49.81141" lon="4.74039">
        <ele>154.9</ele>
        <time>2021-04-18T06:07:36Z</time>
      </trkpt>
      <trkpt lat="49.81145" lon="4.74037">
        <ele>154.1</ele>
        <time>2021-04-18T06:07:37Z</time>
      </trkpt>
      <trkpt lat="49.81153" lon="4.74034">
        <ele>155.9</ele>
        <time>2021-04-18T06:07:39Z</time>
      </trkpt>
      <trkpt lat="49.81162" lon="4.7403">
        <ele>154.3</ele>
        <time>2021-04-18T06:07:41Z</time>
      </trkpt>
      <trkpt lat="49.81169" lon="4.74029">
        <ele>153.2</ele>
        <time>2021-04-18T06:07:43Z</time>
      </trkpt>
      <trkpt lat="49.81174" lon="4.74027">
        <ele>153.9</ele>
        <time>2021-04-18T06:07:44Z</time>
      </trkpt>
      <trkpt lat="49.81188" lon="4.7402">
        <ele>153.1</ele>
        <time>2021-04-18T06:07:47Z</time>
      </trkpt>
      <trkpt lat="49.81197" lon="4.74017">
        <ele>154.1</ele>
        <time>2021-04-18T06:07:49Z</time>
      </trkpt>
      <trkpt lat="49.81207" lon="4.74013">
        <ele>153.8</ele>
        <time>2021-04-18T06:07:52Z</time>
      </trkpt>
      <trkpt lat="49.81216" lon="4.74011">
        <ele>151.8</ele>
        <time>2021-04-18T06:07:54Z</time>
      </trkpt>
      <trkpt lat="49.8122" lon="4.7401">
        <ele>150.6</ele>
        <time>2021-04-18T06:07:55Z</time>
      </trkpt>
      <trkpt lat="49.81229" lon="4.74007">
        <ele>149.8</ele>
        <time>2021-04-18T06:07:57Z</time>
      </trkpt>
      <trkpt lat="49.81239" lon="4.74003">
        <ele>148.3</ele>
        <time>2021-04-18T06:07:59Z</time>
      </trkpt>
      <trkpt lat="49.81246" lon="4.73998">
        <ele>147.3</ele>
        <time>2021-04-18T06:08:00Z</time>
      </trkpt>
      <trkpt lat="49.81253" lon="4.73995">
        <ele>145.5</ele>
        <time>2021-04-18T06:08:02Z</time>
      </trkpt>
      <trkpt lat="49.81266" lon="4.73988">
        <ele>144.2</ele>
        <time>2021-04-18T06:08:05Z</time>
      </trkpt>
      <trkpt lat="49.81274" lon="4.73985">
        <ele>144.8</ele>
        <time>2021-04-18T06:08:07Z</time>
      </trkpt>
      <trkpt lat="49.8128" lon="4.73977">
        <ele>141.8</ele>
        <time>2021-04-18T06:08:08Z</time>
      </trkpt>
      <trkpt lat="49.81285" lon="4.73975">
        <ele>141.9</ele>
        <time>2021-04-18T06:08:09Z</time>
      </trkpt>
      <trkpt lat="49.81292" lon="4.73976">
        <ele>142.1</ele>
        <time>2021-04-18T06:08:11Z</time>
      </trkpt>
      <trkpt lat="49.81298" lon="4.73977">
        <ele>139.4</ele>
        <time>2021-04-18T06:08:13Z</time>
      </trkpt>
      <trkpt lat="49.81305" lon="4.73974">
        <ele>136.2</ele>
        <time>2021-04-18T06:08:15Z</time>
      </trkpt>
      <trkpt lat="49.81312" lon="4.73968">
        <ele>138.5</ele>
        <time>2021-04-18T06:08:17Z</time>
      </trkpt>
      <trkpt lat="49.81321" lon="4.73965">
        <ele>135.9</ele>
        <time>2021-04-18T06:08:19Z</time>
      </trkpt>
      <trkpt lat="49.81329" lon="4.73961">
        <ele>134.8</ele>
        <time>2021-04-18T06:08:22Z</time>
      </trkpt>
      <trkpt lat="49.81334" lon="4.7396">
        <ele>136.2</ele>
        <time>2021-04-18T06:08:23Z</time>
      </trkpt>
      <trkpt lat="49.81338" lon="4.7396">
        <ele>134.6</ele>
        <time>2021-04-18T06:08:24Z</time>
      </trkpt>
      <trkpt lat="49.81351" lon="4.73959">
        <ele>135.5</ele>
        <time>2021-04-18T06:08:27Z</time>
      </trkpt>
      <trkpt lat="49.81363" lon="4.73961">
        <ele>134.9</ele>
        <time>2021-04-18T06:08:30Z</time>
      </trkpt>
      <trkpt lat="49.81376" lon="4.73963">
        <ele>136.1</ele>
        <time>2021-04-18T06:08:33Z</time>
      </trkpt>
      <trkpt lat="49.81387" lon="4.73966">
        <ele>135.9</ele>
        <time>2021-04-18T06:08:36Z</time>
      </trkpt>
      <trkpt lat="49.81394" lon="4.73969">
        <ele>135.7</ele>
        <time>2021-04-18T06:08:38Z</time>
      </trkpt>
      <trkpt lat="49.814" lon="4.7397">
        <ele>133.6</ele>
        <time>2021-04-18T06:08:40Z</time>
      </trkpt>
      <trkpt lat="49.81406" lon="4.73973">
        <ele>135.2</ele>
        <time>2021-04-18T06:08:41Z</time>
      </trkpt>
      <trkpt lat="49.81412" lon="4.73976">
        <ele>134.6</ele>
        <time>2021-04-18T06:08:43Z</time>
      </trkpt>
      <trkpt lat="49.81422" lon="4.73981">
        <ele>134.8</ele>
        <time>2021-04-18T06:08:45Z</time>
      </trkpt>
      <trkpt lat="49.81426" lon="4.73983">
        <ele>133.2</ele>
        <time>2021-04-18T06:08:46Z</time>
      </trkpt>
      <trkpt lat="49.81438" lon="4.7399">
        <ele>135.9</ele>
        <time>2021-04-18T06:08:49Z</time>
      </trkpt>
      <trkpt lat="49.81445" lon="4.73994">
        <ele>137.9</ele>
        <time>2021-04-18T06:08:51Z</time>
      </trkpt>
      <trkpt lat="49.81453" lon="4.73997">
        <ele>137.4</ele>
        <time>2021-04-18T06:08:53Z</time>
      </trkpt>
      <trkpt lat="49.81461" lon="4.74001">
        <ele>137.1</ele>
        <time>2021-04-18T06:08:55Z</time>
      </trkpt>
      <trkpt lat="49.81467" lon="4.74005">
        <ele>138.7</ele>
        <time>2021-04-18T06:08:56Z</time>
      </trkpt>
      <trkpt lat="49.81472" lon="4.74007">
        <ele>139.1</ele>
        <time>2021-04-18T06:08:58Z</time>
      </trkpt>
      <trkpt lat="49.81505" lon="4.74018">
        <ele>140.2</ele>
        <time>2021-04-18T06:09:06Z</time>
      </trkpt>
      <trkpt lat="49.81516" lon="4.74022">
        <ele>138.3</ele>
        <time>2021-04-18T06:09:09Z</time>
      </trkpt>
      <trkpt lat="49.81525" lon="4.74025">
        <ele>139.8</ele>
        <time>2021-04-18T06:09:11Z</time>
      </trkpt>
      <trkpt lat="49.81533" lon="4.74026">
        <ele>141.7</ele>
        <time>2021-04-18T06:09:13Z</time>
      </trkpt>
      <trkpt lat="49.81539" lon="4.74028">
        <ele>140.8</ele>
        <time>2021-04-18T06:09:15Z</time>
      </trkpt>
      <trkpt lat="49.81548" lon="4.7403">
        <ele>138.3</ele>
        <time>2021-04-18T06:09:17Z</time>
      </trkpt>
      <trkpt lat="49.81557" lon="4.74031">
        <ele>142</ele>
        <time>2021-04-18T06:09:19Z</time>
      </trkpt>
      <trkpt lat="49.81568" lon="4.74034">
        <ele>139.9</ele>
        <time>2021-04-18T06:09:21Z</time>
      </trkpt>
      <trkpt lat="49.81578" lon="4.74037">
        <ele>140.9</ele>
        <time>2021-04-18T06:09:23Z</time>
      </trkpt>
      <trkpt lat="49.81582" lon="4.7404">
        <ele>139.6</ele>
        <time>2021-04-18T06:09:24Z</time>
      </trkpt>
      <trkpt lat="49.81592" lon="4.74047">
        <ele>144.1</ele>
        <time>2021-04-18T06:09:27Z</time>
      </trkpt>
      <trkpt lat="49.81597" lon="4.74054">
        <ele>141.2</ele>
        <time>2021-04-18T06:09:29Z</time>
      </trkpt>
      <trkpt lat="49.81602" lon="4.74057">
        <ele>143.8</ele>
        <time>2021-04-18T06:09:31Z</time>
      </trkpt>
      <trkpt lat="49.81608" lon="4.74059">
        <ele>144.5</ele>
        <time>2021-04-18T06:09:33Z</time>
      </trkpt>
      <trkpt lat="49.81613" lon="4.74059">
        <ele>143.5</ele>
        <time>2021-04-18T06:09:35Z</time>
      </trkpt>
      <trkpt lat="49.81617" lon="4.74052">
        <ele>143.9</ele>
        <time>2021-04-18T06:09:38Z</time>
      </trkpt>
      <trkpt lat="49.81622" lon="4.74047">
        <ele>138.9</ele>
        <time>2021-04-18T06:09:43Z</time>
      </trkpt>
      <trkpt lat="49.81628" lon="4.74046">
        <ele>146.5</ele>
        <time>2021-04-18T06:09:49Z</time>
      </trkpt>
      <trkpt lat="49.81633" lon="4.74047">
        <ele>146.5</ele>
        <time>2021-04-18T06:09:56Z</time>
      </trkpt>
      <trkpt lat="49.81636" lon="4.74039">
        <ele>147.9</ele>
        <time>2021-04-18T06:10:04Z</time>
      </trkpt>
      <trkpt lat="49.81636" lon="4.74031">
        <ele>147.9</ele>
        <time>2021-04-18T06:10:06Z</time>
      </trkpt>
      <trkpt lat="49.8163" lon="4.74024">
        <ele>148</ele>
        <time>2021-04-18T06:10:09Z</time>
      </trkpt>
      <trkpt lat="49.81624" lon="4.74023">
        <ele>148</ele>
        <time>2021-04-18T06:10:10Z</time>
      </trkpt>
      <trkpt lat="49.81617" lon="4.74022">
        <ele>147.9</ele>
        <time>2021-04-18T06:10:13Z</time>
      </trkpt>
      <trkpt lat="49.81611" lon="4.74019">
        <ele>148</ele>
        <time>2021-04-18T06:10:15Z</time>
      </trkpt>
      <trkpt lat="49.81615" lon="4.74015">
        <ele>147.9</ele>
        <time>2021-04-18T06:10:21Z</time>
      </trkpt>
      <trkpt lat="49.8162" lon="4.74017">
        <ele>147.9</ele>
        <time>2021-04-18T06:10:23Z</time>
      </trkpt>
      <trkpt lat="49.81627" lon="4.74018">
        <ele>147.9</ele>
        <time>2021-04-18T06:10:25Z</time>
      </trkpt>
      <trkpt lat="49.81633" lon="4.7402">
        <ele>147.9</ele>
        <time>2021-04-18T06:10:27Z</time>
      </trkpt>
      <trkpt lat="49.81634" lon="4.74028">
        <ele>147.9</ele>
        <time>2021-04-18T06:10:31Z</time>
      </trkpt>
      <trkpt lat="49.81632" lon="4.74035">
        <ele>147.9</ele>
        <time>2021-04-18T06:10:32Z</time>
      </trkpt>
      <trkpt lat="49.81628" lon="4.74045">
        <ele>147.9</ele>
        <time>2021-04-18T06:10:34Z</time>
      </trkpt>
      <trkpt lat="49.81626" lon="4.7406">
        <ele>147.8</ele>
        <time>2021-04-18T06:10:38Z</time>
      </trkpt>
      <trkpt lat="49.81624" lon="4.74073">
        <ele>147.8</ele>
        <time>2021-04-18T06:10:40Z</time>
      </trkpt>
      <trkpt lat="49.81623" lon="4.74081">
        <ele>147.8</ele>
        <time>2021-04-18T06:10:41Z</time>
      </trkpt>
      <trkpt lat="49.81621" lon="4.74094">
        <ele>147.8</ele>
        <time>2021-04-18T06:10:42Z</time>
      </trkpt>
      <trkpt lat="49.81619" lon="4.74105">
        <ele>147.8</ele>
        <time>2021-04-18T06:10:44Z</time>
      </trkpt>
      <trkpt lat="49.81618" lon="4.74117">
        <ele>147.8</ele>
        <time>2021-04-18T06:10:46Z</time>
      </trkpt>
      <trkpt lat="49.81618" lon="4.74129">
        <ele>147.8</ele>
        <time>2021-04-18T06:10:48Z</time>
      </trkpt>
      <trkpt lat="49.81617" lon="4.74136">
        <ele>147.8</ele>
        <time>2021-04-18T06:10:50Z</time>
      </trkpt>
      <trkpt lat="49.81616" lon="4.74144">
        <ele>147.8</ele>
        <time>2021-04-18T06:10:52Z</time>
      </trkpt>
      <trkpt lat="49.81613" lon="4.74153">
        <ele>147.8</ele>
        <time>2021-04-18T06:10:54Z</time>
      </trkpt>
      <trkpt lat="49.81608" lon="4.74156">
        <ele>153.2</ele>
        <time>2021-04-18T06:10:57Z</time>
      </trkpt>
      <trkpt lat="49.81602" lon="4.74156">
        <ele>153.3</ele>
        <time>2021-04-18T06:10:59Z</time>
      </trkpt>
      <trkpt lat="49.81595" lon="4.74152">
        <ele>153.8</ele>
        <time>2021-04-18T06:11:02Z</time>
      </trkpt>
      <trkpt lat="49.81584" lon="4.74152">
        <ele>152.9</ele>
        <time>2021-04-18T06:11:05Z</time>
      </trkpt>
      <trkpt lat="49.81578" lon="4.74149">
        <ele>153.1</ele>
        <time>2021-04-18T06:11:06Z</time>
      </trkpt>
      <trkpt lat="49.81569" lon="4.74139">
        <ele>152.8</ele>
        <time>2021-04-18T06:11:08Z</time>
      </trkpt>
      <trkpt lat="49.81564" lon="4.7413">
        <ele>152.9</ele>
        <time>2021-04-18T06:11:10Z</time>
      </trkpt>
      <trkpt lat="49.81559" lon="4.74127">
        <ele>153.8</ele>
        <time>2021-04-18T06:11:15Z</time>
      </trkpt>
      <trkpt lat="49.81553" lon="4.74128">
        <ele>141.7</ele>
        <time>2021-04-18T06:11:32Z</time>
      </trkpt>
      <trkpt lat="49.81547" lon="4.7413">
        <ele>141.2</ele>
        <time>2021-04-18T06:11:39Z</time>
      </trkpt>
      <trkpt lat="49.81543" lon="4.74129">
        <ele>141</ele>
        <time>2021-04-18T06:11:45Z</time>
      </trkpt>
      <trkpt lat="49.81537" lon="4.74129">
        <ele>139.3</ele>
        <time>2021-04-18T06:21:38Z</time>
      </trkpt>
      <trkpt lat="49.81541" lon="4.74135">
        <ele>141.7</ele>
        <time>2021-04-18T06:25:36Z</time>
      </trkpt>
      <trkpt lat="49.81546" lon="4.74143">
        <ele>141.4</ele>
        <time>2021-04-18T06:25:41Z</time>
      </trkpt>
      <trkpt lat="49.81552" lon="4.74148">
        <ele>141.5</ele>
        <time>2021-04-18T06:25:45Z</time>
      </trkpt>
      <trkpt lat="49.81556" lon="4.74153">
        <ele>141.5</ele>
        <time>2021-04-18T06:25:48Z</time>
      </trkpt>
      <trkpt lat="49.81561" lon="4.74156">
        <ele>141.5</ele>
        <time>2021-04-18T06:25:51Z</time>
      </trkpt>
      <trkpt lat="49.81567" lon="4.7416">
        <ele>141.5</ele>
        <time>2021-04-18T06:25:54Z</time>
      </trkpt>
      <trkpt lat="49.81572" lon="4.74162">
        <ele>141.5</ele>
        <time>2021-04-18T06:25:56Z</time>
      </trkpt>
      <trkpt lat="49.81576" lon="4.74165">
        <ele>141.4</ele>
        <time>2021-04-18T06:25:58Z</time>
      </trkpt>
      <trkpt lat="49.81583" lon="4.74168">
        <ele>140.6</ele>
        <time>2021-04-18T06:26:01Z</time>
      </trkpt>
      <trkpt lat="49.81589" lon="4.7417">
        <ele>140.1</ele>
        <time>2021-04-18T06:26:05Z</time>
      </trkpt>
      <trkpt lat="49.81596" lon="4.74173">
        <ele>139.8</ele>
        <time>2021-04-18T06:26:09Z</time>
      </trkpt>
      <trkpt lat="49.81601" lon="4.74175">
        <ele>139.9</ele>
        <time>2021-04-18T06:26:13Z</time>
      </trkpt>
      <trkpt lat="49.81605" lon="4.74178">
        <ele>139.8</ele>
        <time>2021-04-18T06:26:16Z</time>
      </trkpt>
      <trkpt lat="49.81609" lon="4.74185">
        <ele>140.1</ele>
        <time>2021-04-18T06:26:22Z</time>
      </trkpt>
      <trkpt lat="49.81612" lon="4.7419">
        <ele>140.4</ele>
        <time>2021-04-18T06:26:26Z</time>
      </trkpt>
      <trkpt lat="49.81611" lon="4.74207">
        <ele>141</ele>
        <time>2021-04-18T06:26:36Z</time>
      </trkpt>
      <trkpt lat="49.81611" lon="4.74214">
        <ele>141</ele>
        <time>2021-04-18T06:26:37Z</time>
      </trkpt>
      <trkpt lat="49.81611" lon="4.74222">
        <ele>141.7</ele>
        <time>2021-04-18T06:26:39Z</time>
      </trkpt>
      <trkpt lat="49.81608" lon="4.74245">
        <ele>141.7</ele>
        <time>2021-04-18T06:26:41Z</time>
      </trkpt>
      <trkpt lat="49.81604" lon="4.74271">
        <ele>141.8</ele>
        <time>2021-04-18T06:26:43Z</time>
      </trkpt>
      <trkpt lat="49.81602" lon="4.74282">
        <ele>141.6</ele>
        <time>2021-04-18T06:26:44Z</time>
      </trkpt>
      <trkpt lat="49.81599" lon="4.7429">
        <ele>141.7</ele>
        <time>2021-04-18T06:26:46Z</time>
      </trkpt>
      <trkpt lat="49.81595" lon="4.74297">
        <ele>141.7</ele>
        <time>2021-04-18T06:26:48Z</time>
      </trkpt>
      <trkpt lat="49.81585" lon="4.743">
        <ele>141.3</ele>
        <time>2021-04-18T06:26:51Z</time>
      </trkpt>
      <trkpt lat="49.81575" lon="4.743">
        <ele>141.4</ele>
        <time>2021-04-18T06:26:53Z</time>
      </trkpt>
      <trkpt lat="49.81564" lon="4.74305">
        <ele>141.4</ele>
        <time>2021-04-18T06:26:55Z</time>
      </trkpt>
      <trkpt lat="49.81559" lon="4.74308">
        <ele>141.3</ele>
        <time>2021-04-18T06:26:58Z</time>
      </trkpt>
      <trkpt lat="49.81554" lon="4.74326">
        <ele>140.4</ele>
        <time>2021-04-18T06:27:00Z</time>
      </trkpt>
      <trkpt lat="49.81552" lon="4.74334">
        <ele>140.3</ele>
        <time>2021-04-18T06:27:01Z</time>
      </trkpt>
      <trkpt lat="49.81549" lon="4.74349">
        <ele>140.4</ele>
        <time>2021-04-18T06:27:05Z</time>
      </trkpt>
      <trkpt lat="49.81545" lon="4.74363">
        <ele>140.4</ele>
        <time>2021-04-18T06:27:08Z</time>
      </trkpt>
      <trkpt lat="49.81541" lon="4.74376">
        <ele>140.4</ele>
        <time>2021-04-18T06:27:11Z</time>
      </trkpt>
      <trkpt lat="49.81537" lon="4.74389">
        <ele>140.3</ele>
        <time>2021-04-18T06:27:13Z</time>
      </trkpt>
      <trkpt lat="49.81534" lon="4.74396">
        <ele>140.3</ele>
        <time>2021-04-18T06:27:16Z</time>
      </trkpt>
      <trkpt lat="49.81532" lon="4.74405">
        <ele>140.4</ele>
        <time>2021-04-18T06:27:19Z</time>
      </trkpt>
      <trkpt lat="49.8153" lon="4.74417">
        <ele>140.5</ele>
        <time>2021-04-18T06:27:23Z</time>
      </trkpt>
      <trkpt lat="49.81528" lon="4.74424">
        <ele>140.4</ele>
        <time>2021-04-18T06:27:25Z</time>
      </trkpt>
      <trkpt lat="49.81527" lon="4.74435">
        <ele>140.5</ele>
        <time>2021-04-18T06:27:28Z</time>
      </trkpt>
      <trkpt lat="49.81525" lon="4.74444">
        <ele>140.5</ele>
        <time>2021-04-18T06:27:31Z</time>
      </trkpt>
      <trkpt lat="49.81524" lon="4.74454">
        <ele>140.5</ele>
        <time>2021-04-18T06:27:33Z</time>
      </trkpt>
      <trkpt lat="49.81522" lon="4.74464">
        <ele>140.5</ele>
        <time>2021-04-18T06:27:36Z</time>
      </trkpt>
      <trkpt lat="49.81522" lon="4.74475">
        <ele>140.5</ele>
        <time>2021-04-18T06:27:39Z</time>
      </trkpt>
      <trkpt lat="49.8152" lon="4.74482">
        <ele>140.6</ele>
        <time>2021-04-18T06:27:41Z</time>
      </trkpt>
      <trkpt lat="49.8152" lon="4.7449">
        <ele>144.9</ele>
        <time>2021-04-18T06:27:50Z</time>
      </trkpt>
      <trkpt lat="49.81519" lon="4.745">
        <ele>146.7</ele>
        <time>2021-04-18T06:27:59Z</time>
      </trkpt>
      <trkpt lat="49.81518" lon="4.74513">
        <ele>146.7</ele>
        <time>2021-04-18T06:28:01Z</time>
      </trkpt>
      <trkpt lat="49.81517" lon="4.74528">
        <ele>146.6</ele>
        <time>2021-04-18T06:28:03Z</time>
      </trkpt>
      <trkpt lat="49.81516" lon="4.74542">
        <ele>146.6</ele>
        <time>2021-04-18T06:28:05Z</time>
      </trkpt>
      <trkpt lat="49.81515" lon="4.74551">
        <ele>146.6</ele>
        <time>2021-04-18T06:28:06Z</time>
      </trkpt>
      <trkpt lat="49.81516" lon="4.7456">
        <ele>146.6</ele>
        <time>2021-04-18T06:28:07Z</time>
      </trkpt>
      <trkpt lat="49.81518" lon="4.74566">
        <ele>146.6</ele>
        <time>2021-04-18T06:28:08Z</time>
      </trkpt>
      <trkpt lat="49.81522" lon="4.74562">
        <ele>146.5</ele>
        <time>2021-04-18T06:28:13Z</time>
      </trkpt>
      <trkpt lat="49.81522" lon="4.74569">
        <ele>146.4</ele>
        <time>2021-04-18T06:28:27Z</time>
      </trkpt>
      <trkpt lat="49.81526" lon="4.74572">
        <ele>145.9</ele>
        <time>2021-04-18T06:28:32Z</time>
      </trkpt>
      <trkpt lat="49.81531" lon="4.74573">
        <ele>145.9</ele>
        <time>2021-04-18T06:28:35Z</time>
      </trkpt>
      <trkpt lat="49.81537" lon="4.74574">
        <ele>145.9</ele>
        <time>2021-04-18T06:28:40Z</time>
      </trkpt>
      <trkpt lat="49.81542" lon="4.74572">
        <ele>146.9</ele>
        <time>2021-04-18T06:28:43Z</time>
      </trkpt>
      <trkpt lat="49.81548" lon="4.74571">
        <ele>149.1</ele>
        <time>2021-04-18T06:28:47Z</time>
      </trkpt>
      <trkpt lat="49.81553" lon="4.74571">
        <ele>149</ele>
        <time>2021-04-18T06:28:51Z</time>
      </trkpt>
      <trkpt lat="49.81561" lon="4.74572">
        <ele>149.1</ele>
        <time>2021-04-18T06:28:53Z</time>
      </trkpt>
      <trkpt lat="49.81565" lon="4.74573">
        <ele>148.9</ele>
        <time>2021-04-18T06:28:59Z</time>
      </trkpt>
      <trkpt lat="49.81569" lon="4.74576">
        <ele>148.7</ele>
        <time>2021-04-18T06:29:05Z</time>
      </trkpt>
      <trkpt lat="49.8158" lon="4.74582">
        <ele>148.7</ele>
        <time>2021-04-18T06:29:09Z</time>
      </trkpt>
      <trkpt lat="49.81584" lon="4.74585">
        <ele>148.8</ele>
        <time>2021-04-18T06:29:10Z</time>
      </trkpt>
      <trkpt lat="49.81588" lon="4.74588">
        <ele>148.8</ele>
        <time>2021-04-18T06:29:12Z</time>
      </trkpt>
      <trkpt lat="49.81591" lon="4.74603">
        <ele>148.7</ele>
        <time>2021-04-18T06:29:19Z</time>
      </trkpt>
      <trkpt lat="49.81593" lon="4.74614">
        <ele>148.7</ele>
        <time>2021-04-18T06:29:21Z</time>
      </trkpt>
      <trkpt lat="49.81593" lon="4.74633">
        <ele>148.6</ele>
        <time>2021-04-18T06:29:29Z</time>
      </trkpt>
      <trkpt lat="49.81593" lon="4.7464">
        <ele>148.7</ele>
        <time>2021-04-18T06:29:30Z</time>
      </trkpt>
      <trkpt lat="49.81593" lon="4.74647">
        <ele>148.7</ele>
        <time>2021-04-18T06:29:32Z</time>
      </trkpt>
      <trkpt lat="49.81591" lon="4.74668">
        <ele>148.7</ele>
        <time>2021-04-18T06:29:40Z</time>
      </trkpt>
      <trkpt lat="49.81591" lon="4.74675">
        <ele>148.7</ele>
        <time>2021-04-18T06:29:42Z</time>
      </trkpt>
      <trkpt lat="49.81589" lon="4.74693">
        <ele>148.8</ele>
        <time>2021-04-18T06:29:48Z</time>
      </trkpt>
      <trkpt lat="49.81589" lon="4.74704">
        <ele>148.9</ele>
        <time>2021-04-18T06:29:51Z</time>
      </trkpt>
      <trkpt lat="49.81587" lon="4.74734">
        <ele>148.9</ele>
        <time>2021-04-18T06:29:57Z</time>
      </trkpt>
      <trkpt lat="49.81586" lon="4.74752">
        <ele>148.8</ele>
        <time>2021-04-18T06:30:07Z</time>
      </trkpt>
      <trkpt lat="49.81585" lon="4.74764">
        <ele>148.8</ele>
        <time>2021-04-18T06:30:08Z</time>
      </trkpt>
      <trkpt lat="49.81586" lon="4.74774">
        <ele>148.8</ele>
        <time>2021-04-18T06:30:10Z</time>
      </trkpt>
      <trkpt lat="49.81589" lon="4.74786">
        <ele>148.8</ele>
        <time>2021-04-18T06:30:13Z</time>
      </trkpt>
      <trkpt lat="49.81592" lon="4.74796">
        <ele>148.9</ele>
        <time>2021-04-18T06:30:19Z</time>
      </trkpt>
      <trkpt lat="49.81594" lon="4.74806">
        <ele>148.9</ele>
        <time>2021-04-18T06:30:23Z</time>
      </trkpt>
      <trkpt lat="49.81599" lon="4.74815">
        <ele>148.8</ele>
        <time>2021-04-18T06:30:28Z</time>
      </trkpt>
      <trkpt lat="49.81605" lon="4.74819">
        <ele>148.9</ele>
        <time>2021-04-18T06:30:30Z</time>
      </trkpt>
      <trkpt lat="49.8161" lon="4.74824">
        <ele>148.9</ele>
        <time>2021-04-18T06:30:33Z</time>
      </trkpt>
      <trkpt lat="49.81616" lon="4.7483">
        <ele>148.9</ele>
        <time>2021-04-18T06:30:36Z</time>
      </trkpt>
      <trkpt lat="49.81621" lon="4.74831">
        <ele>149</ele>
        <time>2021-04-18T06:30:39Z</time>
      </trkpt>
      <trkpt lat="49.81627" lon="4.74834">
        <ele>149</ele>
        <time>2021-04-18T06:30:42Z</time>
      </trkpt>
      <trkpt lat="49.81632" lon="4.74836">
        <ele>149</ele>
        <time>2021-04-18T06:30:44Z</time>
      </trkpt>
      <trkpt lat="49.81638" lon="4.74839">
        <ele>149.1</ele>
        <time>2021-04-18T06:30:47Z</time>
      </trkpt>
      <trkpt lat="49.81643" lon="4.74844">
        <ele>149.1</ele>
        <time>2021-04-18T06:30:51Z</time>
      </trkpt>
      <trkpt lat="49.81646" lon="4.74853">
        <ele>149.1</ele>
        <time>2021-04-18T06:31:03Z</time>
      </trkpt>
      <trkpt lat="49.81646" lon="4.74861">
        <ele>149.1</ele>
        <time>2021-04-18T06:31:06Z</time>
      </trkpt>
      <trkpt lat="49.81648" lon="4.74868">
        <ele>149.2</ele>
        <time>2021-04-18T06:31:08Z</time>
      </trkpt>
      <trkpt lat="49.8165" lon="4.74877">
        <ele>149.3</ele>
        <time>2021-04-18T06:31:12Z</time>
      </trkpt>
      <trkpt lat="49.81649" lon="4.74894">
        <ele>149.3</ele>
        <time>2021-04-18T06:31:21Z</time>
      </trkpt>
      <trkpt lat="49.81648" lon="4.74903">
        <ele>149.3</ele>
        <time>2021-04-18T06:31:22Z</time>
      </trkpt>
      <trkpt lat="49.81648" lon="4.74912">
        <ele>149.3</ele>
        <time>2021-04-18T06:31:24Z</time>
      </trkpt>
      <trkpt lat="49.81647" lon="4.74923">
        <ele>149.3</ele>
        <time>2021-04-18T06:31:27Z</time>
      </trkpt>
      <trkpt lat="49.81645" lon="4.74935">
        <ele>149.3</ele>
        <time>2021-04-18T06:31:31Z</time>
      </trkpt>
      <trkpt lat="49.81644" lon="4.74944">
        <ele>149.3</ele>
        <time>2021-04-18T06:31:33Z</time>
      </trkpt>
      <trkpt lat="49.81643" lon="4.74954">
        <ele>149.3</ele>
        <time>2021-04-18T06:31:38Z</time>
      </trkpt>
      <trkpt lat="49.81643" lon="4.74967">
        <ele>149.2</ele>
        <time>2021-04-18T06:31:42Z</time>
      </trkpt>
      <trkpt lat="49.81643" lon="4.74979">
        <ele>149.2</ele>
        <time>2021-04-18T06:31:45Z</time>
      </trkpt>
      <trkpt lat="49.81644" lon="4.74988">
        <ele>149.1</ele>
        <time>2021-04-18T06:31:48Z</time>
      </trkpt>
      <trkpt lat="49.81646" lon="4.74999">
        <ele>149.2</ele>
        <time>2021-04-18T06:31:51Z</time>
      </trkpt>
      <trkpt lat="49.81647" lon="4.75009">
        <ele>149.1</ele>
        <time>2021-04-18T06:31:54Z</time>
      </trkpt>
      <trkpt lat="49.8165" lon="4.75017">
        <ele>149.1</ele>
        <time>2021-04-18T06:31:57Z</time>
      </trkpt>
      <trkpt lat="49.81653" lon="4.75025">
        <ele>149.1</ele>
        <time>2021-04-18T06:32:00Z</time>
      </trkpt>
      <trkpt lat="49.81656" lon="4.75034">
        <ele>149</ele>
        <time>2021-04-18T06:32:03Z</time>
      </trkpt>
      <trkpt lat="49.8166" lon="4.75041">
        <ele>149</ele>
        <time>2021-04-18T06:32:06Z</time>
      </trkpt>
      <trkpt lat="49.81664" lon="4.75049">
        <ele>149</ele>
        <time>2021-04-18T06:32:09Z</time>
      </trkpt>
      <trkpt lat="49.81667" lon="4.75055">
        <ele>149</ele>
        <time>2021-04-18T06:32:11Z</time>
      </trkpt>
      <trkpt lat="49.81671" lon="4.75061">
        <ele>148.9</ele>
        <time>2021-04-18T06:32:14Z</time>
      </trkpt>
      <trkpt lat="49.81675" lon="4.75068">
        <ele>149</ele>
        <time>2021-04-18T06:32:17Z</time>
      </trkpt>
      <trkpt lat="49.81678" lon="4.75076">
        <ele>149</ele>
        <time>2021-04-18T06:32:20Z</time>
      </trkpt>
      <trkpt lat="49.81682" lon="4.75084">
        <ele>149</ele>
        <time>2021-04-18T06:32:24Z</time>
      </trkpt>
      <trkpt lat="49.81686" lon="4.7509">
        <ele>148.9</ele>
        <time>2021-04-18T06:32:28Z</time>
      </trkpt>
      <trkpt lat="49.8169" lon="4.75097">
        <ele>148.9</ele>
        <time>2021-04-18T06:32:31Z</time>
      </trkpt>
      <trkpt lat="49.81694" lon="4.75102">
        <ele>148.9</ele>
        <time>2021-04-18T06:32:33Z</time>
      </trkpt>
      <trkpt lat="49.81698" lon="4.75107">
        <ele>148.9</ele>
        <time>2021-04-18T06:32:36Z</time>
      </trkpt>
      <trkpt lat="49.81703" lon="4.75113">
        <ele>207</ele>
        <time>2021-04-18T06:32:39Z</time>
      </trkpt>
      <trkpt lat="49.81709" lon="4.75118">
        <ele>206.3</ele>
        <time>2021-04-18T06:32:43Z</time>
      </trkpt>
      <trkpt lat="49.81714" lon="4.75121">
        <ele>208.1</ele>
        <time>2021-04-18T06:32:46Z</time>
      </trkpt>
      <trkpt lat="49.81719" lon="4.75124">
        <ele>204.8</ele>
        <time>2021-04-18T06:32:49Z</time>
      </trkpt>
      <trkpt lat="49.81723" lon="4.75127">
        <ele>208.7</ele>
        <time>2021-04-18T06:32:52Z</time>
      </trkpt>
      <trkpt lat="49.81731" lon="4.75129">
        <ele>207.6</ele>
        <time>2021-04-18T06:32:55Z</time>
      </trkpt>
      <trkpt lat="49.81738" lon="4.75131">
        <ele>206.8</ele>
        <time>2021-04-18T06:32:58Z</time>
      </trkpt>
      <trkpt lat="49.81758" lon="4.75141">
        <ele>209.2</ele>
        <time>2021-04-18T06:33:07Z</time>
      </trkpt>
      <trkpt lat="49.81762" lon="4.75143">
        <ele>205.7</ele>
        <time>2021-04-18T06:33:09Z</time>
      </trkpt>
      <trkpt lat="49.81767" lon="4.75147">
        <ele>204.5</ele>
        <time>2021-04-18T06:33:11Z</time>
      </trkpt>
      <trkpt lat="49.81773" lon="4.75151">
        <ele>205.7</ele>
        <time>2021-04-18T06:33:14Z</time>
      </trkpt>
      <trkpt lat="49.81796" lon="4.75169">
        <ele>207.2</ele>
        <time>2021-04-18T06:33:29Z</time>
      </trkpt>
      <trkpt lat="49.81801" lon="4.75173">
        <ele>207.9</ele>
        <time>2021-04-18T06:33:32Z</time>
      </trkpt>
      <trkpt lat="49.81806" lon="4.75175">
        <ele>208.8</ele>
        <time>2021-04-18T06:33:35Z</time>
      </trkpt>
      <trkpt lat="49.81815" lon="4.75178">
        <ele>206.5</ele>
        <time>2021-04-18T06:33:43Z</time>
      </trkpt>
      <trkpt lat="49.81821" lon="4.7518">
        <ele>208.1</ele>
        <time>2021-04-18T06:33:51Z</time>
      </trkpt>
      <trkpt lat="49.81827" lon="4.75183">
        <ele>208</ele>
        <time>2021-04-18T06:33:56Z</time>
      </trkpt>
      <trkpt lat="49.81832" lon="4.75185">
        <ele>207.7</ele>
        <time>2021-04-18T06:33:59Z</time>
      </trkpt>
      <trkpt lat="49.81837" lon="4.75187">
        <ele>207.7</ele>
        <time>2021-04-18T06:34:02Z</time>
      </trkpt>
      <trkpt lat="49.81843" lon="4.7519">
        <ele>207.7</ele>
        <time>2021-04-18T06:34:05Z</time>
      </trkpt>
      <trkpt lat="49.81986" lon="4.75263">
        <ele>231.3</ele>
        <time>2021-04-18T06:35:28Z</time>
      </trkpt>
      <trkpt lat="49.81991" lon="4.75265">
        <ele>230.1</ele>
        <time>2021-04-18T06:35:33Z</time>
      </trkpt>
      <trkpt lat="49.81998" lon="4.75269">
        <ele>229.6</ele>
        <time>2021-04-18T06:35:37Z</time>
      </trkpt>
      <trkpt lat="49.82029" lon="4.75284">
        <ele>233.6</ele>
        <time>2021-04-18T06:35:53Z</time>
      </trkpt>
      <trkpt lat="49.82034" lon="4.75289">
        <ele>234.2</ele>
        <time>2021-04-18T06:35:59Z</time>
      </trkpt>
      <trkpt lat="49.82038" lon="4.75295">
        <ele>234.2</ele>
        <time>2021-04-18T06:36:02Z</time>
      </trkpt>
      <trkpt lat="49.82042" lon="4.75301">
        <ele>234.2</ele>
        <time>2021-04-18T06:36:07Z</time>
      </trkpt>
      <trkpt lat="49.82049" lon="4.75298">
        <ele>234.2</ele>
        <time>2021-04-18T06:36:11Z</time>
      </trkpt>
      <trkpt lat="49.82055" lon="4.75298">
        <ele>234.2</ele>
        <time>2021-04-18T06:36:24Z</time>
      </trkpt>
      <trkpt lat="49.82051" lon="4.75296">
        <ele>234</ele>
        <time>2021-04-18T06:36:35Z</time>
      </trkpt>
      <trkpt lat="49.82052" lon="4.75303">
        <ele>162.5</ele>
        <time>2021-04-18T06:36:54Z</time>
      </trkpt>
      <trkpt lat="49.82055" lon="4.7531">
        <ele>163</ele>
        <time>2021-04-18T06:37:08Z</time>
      </trkpt>
      <trkpt lat="49.82059" lon="4.75314">
        <ele>161.4</ele>
        <time>2021-04-18T06:37:12Z</time>
      </trkpt>
      <trkpt lat="49.82064" lon="4.7532">
        <ele>161.5</ele>
        <time>2021-04-18T06:37:16Z</time>
      </trkpt>
      <trkpt lat="49.82068" lon="4.75325">
        <ele>161.5</ele>
        <time>2021-04-18T06:37:19Z</time>
      </trkpt>
      <trkpt lat="49.82073" lon="4.75329">
        <ele>161.5</ele>
        <time>2021-04-18T06:37:21Z</time>
      </trkpt>
      <trkpt lat="49.82077" lon="4.75332">
        <ele>161.6</ele>
        <time>2021-04-18T06:37:24Z</time>
      </trkpt>
      <trkpt lat="49.82082" lon="4.75337">
        <ele>161.5</ele>
        <time>2021-04-18T06:37:27Z</time>
      </trkpt>
      <trkpt lat="49.82087" lon="4.75341">
        <ele>159.3</ele>
        <time>2021-04-18T06:37:30Z</time>
      </trkpt>
      <trkpt lat="49.82093" lon="4.75347">
        <ele>159.3</ele>
        <time>2021-04-18T06:37:35Z</time>
      </trkpt>
      <trkpt lat="49.82097" lon="4.75352">
        <ele>159.4</ele>
        <time>2021-04-18T06:37:39Z</time>
      </trkpt>
      <trkpt lat="49.82102" lon="4.75356">
        <ele>159.4</ele>
        <time>2021-04-18T06:37:42Z</time>
      </trkpt>
      <trkpt lat="49.82107" lon="4.7536">
        <ele>159.2</ele>
        <time>2021-04-18T06:37:45Z</time>
      </trkpt>
      <trkpt lat="49.82111" lon="4.75365">
        <ele>159.2</ele>
        <time>2021-04-18T06:37:50Z</time>
      </trkpt>
      <trkpt lat="49.82115" lon="4.75371">
        <ele>159.2</ele>
        <time>2021-04-18T06:37:54Z</time>
      </trkpt>
      <trkpt lat="49.8212" lon="4.75376">
        <ele>159.3</ele>
        <time>2021-04-18T06:37:57Z</time>
      </trkpt>
      <trkpt lat="49.82126" lon="4.75383">
        <ele>159.2</ele>
        <time>2021-04-18T06:38:00Z</time>
      </trkpt>
      <trkpt lat="49.8213" lon="4.75388">
        <ele>159.2</ele>
        <time>2021-04-18T06:38:02Z</time>
      </trkpt>
      <trkpt lat="49.82134" lon="4.75392">
        <ele>159.2</ele>
        <time>2021-04-18T06:38:04Z</time>
      </trkpt>
      <trkpt lat="49.82139" lon="4.75398">
        <ele>159.2</ele>
        <time>2021-04-18T06:38:05Z</time>
      </trkpt>
      <trkpt lat="49.82141" lon="4.75406">
        <ele>159.3</ele>
        <time>2021-04-18T06:38:10Z</time>
      </trkpt>
      <trkpt lat="49.82144" lon="4.75413">
        <ele>160.7</ele>
        <time>2021-04-18T06:38:33Z</time>
      </trkpt>
      <trkpt lat="49.82149" lon="4.7542">
        <ele>160.6</ele>
        <time>2021-04-18T06:38:38Z</time>
      </trkpt>
      <trkpt lat="49.82154" lon="4.75428">
        <ele>160.6</ele>
        <time>2021-04-18T06:38:41Z</time>
      </trkpt>
      <trkpt lat="49.82158" lon="4.75431">
        <ele>160.5</ele>
        <time>2021-04-18T06:38:46Z</time>
      </trkpt>
      <trkpt lat="49.82162" lon="4.75437">
        <ele>160.6</ele>
        <time>2021-04-18T06:38:53Z</time>
      </trkpt>
      <trkpt lat="49.82165" lon="4.75445">
        <ele>160.6</ele>
        <time>2021-04-18T06:38:58Z</time>
      </trkpt>
      <trkpt lat="49.8217" lon="4.75454">
        <ele>160.6</ele>
        <time>2021-04-18T06:39:01Z</time>
      </trkpt>
      <trkpt lat="49.82211" lon="4.75554">
        <ele>160.6</ele>
        <time>2021-04-18T06:39:24Z</time>
      </trkpt>
      <trkpt lat="49.82215" lon="4.7556">
        <ele>160.6</ele>
        <time>2021-04-18T06:39:26Z</time>
      </trkpt>
      <trkpt lat="49.82219" lon="4.75566">
        <ele>160.6</ele>
        <time>2021-04-18T06:39:28Z</time>
      </trkpt>
      <trkpt lat="49.82223" lon="4.75572">
        <ele>160.6</ele>
        <time>2021-04-18T06:39:29Z</time>
      </trkpt>
      <trkpt lat="49.82283" lon="4.75734">
        <ele>260.8</ele>
        <time>2021-04-18T06:40:20Z</time>
      </trkpt>
      <trkpt lat="49.82303" lon="4.75779">
        <ele>258.6</ele>
        <time>2021-04-18T06:40:39Z</time>
      </trkpt>
      <trkpt lat="49.82306" lon="4.75785">
        <ele>264.4</ele>
        <time>2021-04-18T06:40:45Z</time>
      </trkpt>
      <trkpt lat="49.82308" lon="4.75791">
        <ele>264.5</ele>
        <time>2021-04-18T06:40:48Z</time>
      </trkpt>
      <trkpt lat="49.82368" lon="4.76027">
        <ele>285.2</ele>
        <time>2021-04-18T06:42:02Z</time>
      </trkpt>
      <trkpt lat="49.82369" lon="4.76036">
        <ele>283.4</ele>
        <time>2021-04-18T06:42:04Z</time>
      </trkpt>
      <trkpt lat="49.82371" lon="4.76046">
        <ele>282</ele>
        <time>2021-04-18T06:42:07Z</time>
      </trkpt>
      <trkpt lat="49.82373" lon="4.76056">
        <ele>281.1</ele>
        <time>2021-04-18T06:42:10Z</time>
      </trkpt>
      <trkpt lat="49.82376" lon="4.76065">
        <ele>286.9</ele>
        <time>2021-04-18T06:42:13Z</time>
      </trkpt>
      <trkpt lat="49.82378" lon="4.76075">
        <ele>285.8</ele>
        <time>2021-04-18T06:42:15Z</time>
      </trkpt>
      <trkpt lat="49.82382" lon="4.76087">
        <ele>285.4</ele>
        <time>2021-04-18T06:42:18Z</time>
      </trkpt>
      <trkpt lat="49.82385" lon="4.76094">
        <ele>289.3</ele>
        <time>2021-04-18T06:42:19Z</time>
      </trkpt>
      <trkpt lat="49.82389" lon="4.76102">
        <ele>286</ele>
        <time>2021-04-18T06:42:22Z</time>
      </trkpt>
      <trkpt lat="49.82394" lon="4.76114">
        <ele>290.8</ele>
        <time>2021-04-18T06:42:24Z</time>
      </trkpt>
      <trkpt lat="49.82397" lon="4.76121">
        <ele>287.3</ele>
        <time>2021-04-18T06:42:25Z</time>
      </trkpt>
      <trkpt lat="49.82401" lon="4.7613">
        <ele>283.9</ele>
        <time>2021-04-18T06:42:28Z</time>
      </trkpt>
      <trkpt lat="49.82433" lon="4.76231">
        <ele>284.1</ele>
        <time>2021-04-18T06:43:01Z</time>
      </trkpt>
      <trkpt lat="49.82435" lon="4.7624">
        <ele>284.7</ele>
        <time>2021-04-18T06:43:06Z</time>
      </trkpt>
      <trkpt lat="49.82436" lon="4.76252">
        <ele>285.6</ele>
        <time>2021-04-18T06:43:11Z</time>
      </trkpt>
      <trkpt lat="49.82437" lon="4.76261">
        <ele>283.3</ele>
        <time>2021-04-18T06:43:17Z</time>
      </trkpt>
      <trkpt lat="49.82439" lon="4.7627">
        <ele>282.3</ele>
        <time>2021-04-18T06:43:21Z</time>
      </trkpt>
      <trkpt lat="49.8244" lon="4.76279">
        <ele>287.4</ele>
        <time>2021-04-18T06:43:25Z</time>
      </trkpt>
      <trkpt lat="49.8244" lon="4.76291">
        <ele>292.1</ele>
        <time>2021-04-18T06:43:30Z</time>
      </trkpt>
      <trkpt lat="49.8244" lon="4.763">
        <ele>291.6</ele>
        <time>2021-04-18T06:43:32Z</time>
      </trkpt>
      <trkpt lat="49.82441" lon="4.76312">
        <ele>289</ele>
        <time>2021-04-18T06:43:36Z</time>
      </trkpt>
      <trkpt lat="49.82441" lon="4.76336">
        <ele>287.6</ele>
        <time>2021-04-18T06:43:44Z</time>
      </trkpt>
      <trkpt lat="49.82435" lon="4.76445">
        <ele>291.1</ele>
        <time>2021-04-18T06:44:15Z</time>
      </trkpt>
      <trkpt lat="49.82435" lon="4.76453">
        <ele>288</ele>
        <time>2021-04-18T06:44:17Z</time>
      </trkpt>
      <trkpt lat="49.82438" lon="4.76463">
        <ele>276</ele>
        <time>2021-04-18T06:44:21Z</time>
      </trkpt>
      <trkpt lat="49.82442" lon="4.76467">
        <ele>276.2</ele>
        <time>2021-04-18T06:44:25Z</time>
      </trkpt>
      <trkpt lat="49.82447" lon="4.76469">
        <ele>276.1</ele>
        <time>2021-04-18T06:44:30Z</time>
      </trkpt>
      <trkpt lat="49.82527" lon="4.76394">
        <ele>276</ele>
        <time>2021-04-18T06:45:16Z</time>
      </trkpt>
      <trkpt lat="49.82528" lon="4.76385">
        <ele>275.9</ele>
        <time>2021-04-18T06:45:19Z</time>
      </trkpt>
      <trkpt lat="49.8253" lon="4.76243">
        <ele>303.9</ele>
        <time>2021-04-18T06:45:57Z</time>
      </trkpt>
      <trkpt lat="49.82528" lon="4.76232">
        <ele>304.6</ele>
        <time>2021-04-18T06:46:00Z</time>
      </trkpt>
      <trkpt lat="49.82526" lon="4.76222">
        <ele>305.3</ele>
        <time>2021-04-18T06:46:03Z</time>
      </trkpt>
      <trkpt lat="49.82478" lon="4.75958">
        <ele>319.2</ele>
        <time>2021-04-18T06:47:12Z</time>
      </trkpt>
      <trkpt lat="49.82477" lon="4.7595">
        <ele>320.4</ele>
        <time>2021-04-18T06:47:16Z</time>
      </trkpt>
      <trkpt lat="49.8247" lon="4.7591">
        <ele>318.6</ele>
        <time>2021-04-18T06:47:28Z</time>
      </trkpt>
      <trkpt lat="49.82468" lon="4.75903">
        <ele>315.5</ele>
        <time>2021-04-18T06:47:46Z</time>
      </trkpt>
      <trkpt lat="49.82467" lon="4.75896">
        <ele>322.4</ele>
        <time>2021-04-18T06:48:09Z</time>
      </trkpt>
      <trkpt lat="49.82466" lon="4.75883">
        <ele>327</ele>
        <time>2021-04-18T06:48:16Z</time>
      </trkpt>
      <trkpt lat="49.82465" lon="4.75873">
        <ele>321.1</ele>
        <time>2021-04-18T06:48:20Z</time>
      </trkpt>
      <trkpt lat="49.82463" lon="4.75819">
        <ele>316.9</ele>
        <time>2021-04-18T06:48:31Z</time>
      </trkpt>
      <trkpt lat="49.82463" lon="4.7581">
        <ele>319.9</ele>
        <time>2021-04-18T06:48:34Z</time>
      </trkpt>
      <trkpt lat="49.82499" lon="4.75719">
        <ele>313.4</ele>
        <time>2021-04-18T06:49:07Z</time>
      </trkpt>
      <trkpt lat="49.82503" lon="4.75716">
        <ele>315.7</ele>
        <time>2021-04-18T06:53:30Z</time>
      </trkpt>
      <trkpt lat="49.82508" lon="4.75718">
        <ele>311.1</ele>
        <time>2021-04-18T06:53:35Z</time>
      </trkpt>
      <trkpt lat="49.82505" lon="4.75724">
        <ele>318</ele>
        <time>2021-04-18T06:53:38Z</time>
      </trkpt>
      <trkpt lat="49.82499" lon="4.75731">
        <ele>321.3</ele>
        <time>2021-04-18T06:53:42Z</time>
      </trkpt>
      <trkpt lat="49.82494" lon="4.75736">
        <ele>320.2</ele>
        <time>2021-04-18T06:53:46Z</time>
      </trkpt>
      <trkpt lat="49.82492" lon="4.75742">
        <ele>320.7</ele>
        <time>2021-04-18T06:53:49Z</time>
      </trkpt>
      <trkpt lat="49.82488" lon="4.7575">
        <ele>316.5</ele>
        <time>2021-04-18T06:53:52Z</time>
      </trkpt>
      <trkpt lat="49.82481" lon="4.75755">
        <ele>312.7</ele>
        <time>2021-04-18T06:53:56Z</time>
      </trkpt>
      <trkpt lat="49.82474" lon="4.75752">
        <ele>310</ele>
        <time>2021-04-18T06:54:00Z</time>
      </trkpt>
      <trkpt lat="49.8247" lon="4.75748">
        <ele>306.2</ele>
        <time>2021-04-18T06:54:04Z</time>
      </trkpt>
      <trkpt lat="49.82467" lon="4.75743">
        <ele>311</ele>
        <time>2021-04-18T06:54:07Z</time>
      </trkpt>
      <trkpt lat="49.8229" lon="4.75478">
        <ele>283.7</ele>
        <time>2021-04-18T06:55:36Z</time>
      </trkpt>
      <trkpt lat="49.82286" lon="4.75472">
        <ele>289.3</ele>
        <time>2021-04-18T06:55:39Z</time>
      </trkpt>
      <trkpt lat="49.82237" lon="4.75381">
        <ele>274.3</ele>
        <time>2021-04-18T06:56:13Z</time>
      </trkpt>
      <trkpt lat="49.8206" lon="4.75225">
        <ele>256.3</ele>
        <time>2021-04-18T06:57:10Z</time>
      </trkpt>
      <trkpt lat="49.82048" lon="4.75211">
        <ele>165.1</ele>
        <time>2021-04-18T06:57:36Z</time>
      </trkpt>
      <trkpt lat="49.82018" lon="4.75183">
        <ele>165.2</ele>
        <time>2021-04-18T06:57:40Z</time>
      </trkpt>
      <trkpt lat="49.82007" lon="4.75171">
        <ele>165.2</ele>
        <time>2021-04-18T06:57:42Z</time>
      </trkpt>
      <trkpt lat="49.82004" lon="4.75166">
        <ele>165.2</ele>
        <time>2021-04-18T06:57:43Z</time>
      </trkpt>
      <trkpt lat="49.81985" lon="4.75143">
        <ele>165.2</ele>
        <time>2021-04-18T06:57:54Z</time>
      </trkpt>
      <trkpt lat="49.81981" lon="4.75139">
        <ele>165.2</ele>
        <time>2021-04-18T06:57:59Z</time>
      </trkpt>
      <trkpt lat="49.81977" lon="4.75137">
        <ele>165.2</ele>
        <time>2021-04-18T06:58:09Z</time>
      </trkpt>
      <trkpt lat="49.8197" lon="4.7512">
        <ele>247.9</ele>
        <time>2021-04-18T06:58:25Z</time>
      </trkpt>
      <trkpt lat="49.81967" lon="4.75114">
        <ele>248.3</ele>
        <time>2021-04-18T06:58:33Z</time>
      </trkpt>
      <trkpt lat="49.81962" lon="4.75111">
        <ele>244.6</ele>
        <time>2021-04-18T06:58:49Z</time>
      </trkpt>
      <trkpt lat="49.81946" lon="4.75091">
        <ele>244</ele>
        <time>2021-04-18T06:58:57Z</time>
      </trkpt>
      <trkpt lat="49.81904" lon="4.75071">
        <ele>239.2</ele>
        <time>2021-04-18T06:59:15Z</time>
      </trkpt>
      <trkpt lat="49.8188" lon="4.75064">
        <ele>240.2</ele>
        <time>2021-04-18T06:59:28Z</time>
      </trkpt>
      <trkpt lat="49.81879" lon="4.75058">
        <ele>239.7</ele>
        <time>2021-04-18T06:59:34Z</time>
      </trkpt>
      <trkpt lat="49.8187" lon="4.75048">
        <ele>238.8</ele>
        <time>2021-04-18T06:59:43Z</time>
      </trkpt>
      <trkpt lat="49.8187" lon="4.7504">
        <ele>233.6</ele>
        <time>2021-04-18T07:00:05Z</time>
      </trkpt>
      <trkpt lat="49.81867" lon="4.75033">
        <ele>240.5</ele>
        <time>2021-04-18T07:00:08Z</time>
      </trkpt>
      <trkpt lat="49.81862" lon="4.75029">
        <ele>236.3</ele>
        <time>2021-04-18T07:00:12Z</time>
      </trkpt>
      <trkpt lat="49.8184" lon="4.7502">
        <ele>238.4</ele>
        <time>2021-04-18T07:00:20Z</time>
      </trkpt>
      <trkpt lat="49.81834" lon="4.75021">
        <ele>236.4</ele>
        <time>2021-04-18T07:00:23Z</time>
      </trkpt>
      <trkpt lat="49.81829" lon="4.75024">
        <ele>239.3</ele>
        <time>2021-04-18T07:00:26Z</time>
      </trkpt>
      <trkpt lat="49.81826" lon="4.7503">
        <ele>231.4</ele>
        <time>2021-04-18T07:00:28Z</time>
      </trkpt>
      <trkpt lat="49.81817" lon="4.75038">
        <ele>233.1</ele>
        <time>2021-04-18T07:00:35Z</time>
      </trkpt>
      <trkpt lat="49.81813" lon="4.75042">
        <ele>235.8</ele>
        <time>2021-04-18T07:00:39Z</time>
      </trkpt>
      <trkpt lat="49.81808" lon="4.75049">
        <ele>175.5</ele>
        <time>2021-04-18T07:00:45Z</time>
      </trkpt>
      <trkpt lat="49.81728" lon="4.75034">
        <ele>175.4</ele>
        <time>2021-04-18T07:01:12Z</time>
      </trkpt>
      <trkpt lat="49.81723" lon="4.75032">
        <ele>175.4</ele>
        <time>2021-04-18T07:01:31Z</time>
      </trkpt>
      <trkpt lat="49.81718" lon="4.75031">
        <ele>173.9</ele>
        <time>2021-04-18T07:01:57Z</time>
      </trkpt>
      <trkpt lat="49.81708" lon="4.7502">
        <ele>216</ele>
        <time>2021-04-18T07:02:59Z</time>
      </trkpt>
      <trkpt lat="49.817" lon="4.75018">
        <ele>212.7</ele>
        <time>2021-04-18T07:03:01Z</time>
      </trkpt>
      <trkpt lat="49.81694" lon="4.75018">
        <ele>210.8</ele>
        <time>2021-04-18T07:03:03Z</time>
      </trkpt>
      <trkpt lat="49.81684" lon="4.75006">
        <ele>188.1</ele>
        <time>2021-04-18T07:03:11Z</time>
      </trkpt>
      <trkpt lat="49.81679" lon="4.75004">
        <ele>186</ele>
        <time>2021-04-18T07:07:19Z</time>
      </trkpt>
      <trkpt lat="49.81677" lon="4.75011">
        <ele>186</ele>
        <time>2021-04-18T07:08:37Z</time>
      </trkpt>
      <trkpt lat="49.81673" lon="4.75014">
        <ele>185.9</ele>
        <time>2021-04-18T07:10:31Z</time>
      </trkpt>
      <trkpt lat="49.81673" lon="4.75022">
        <ele>185.9</ele>
        <time>2021-04-18T07:10:37Z</time>
      </trkpt>
      <trkpt lat="49.81674" lon="4.75033">
        <ele>185.9</ele>
        <time>2021-04-18T07:10:39Z</time>
      </trkpt>
      <trkpt lat="49.81676" lon="4.75041">
        <ele>186</ele>
        <time>2021-04-18T07:10:42Z</time>
      </trkpt>
      <trkpt lat="49.81676" lon="4.7505">
        <ele>185.9</ele>
        <time>2021-04-18T07:10:46Z</time>
      </trkpt>
      <trkpt lat="49.81677" lon="4.75058">
        <ele>185.9</ele>
        <time>2021-04-18T07:10:48Z</time>
      </trkpt>
      <trkpt lat="49.8168" lon="4.75069">
        <ele>186</ele>
        <time>2021-04-18T07:10:51Z</time>
      </trkpt>
      <trkpt lat="49.81682" lon="4.75077">
        <ele>185.9</ele>
        <time>2021-04-18T07:10:52Z</time>
      </trkpt>
      <trkpt lat="49.81684" lon="4.7509">
        <ele>185.9</ele>
        <time>2021-04-18T07:10:54Z</time>
      </trkpt>
      <trkpt lat="49.81685" lon="4.75101">
        <ele>186</ele>
        <time>2021-04-18T07:10:56Z</time>
      </trkpt>
      <trkpt lat="49.81688" lon="4.75112">
        <ele>186</ele>
        <time>2021-04-18T07:10:58Z</time>
      </trkpt>
      <trkpt lat="49.81692" lon="4.75121">
        <ele>186</ele>
        <time>2021-04-18T07:10:59Z</time>
      </trkpt>
      <trkpt lat="49.81737" lon="4.75204">
        <ele>185.9</ele>
        <time>2021-04-18T07:11:16Z</time>
      </trkpt>
      <trkpt lat="49.81741" lon="4.75212">
        <ele>178.2</ele>
        <time>2021-04-18T07:11:23Z</time>
      </trkpt>
      <trkpt lat="49.81745" lon="4.75228">
        <ele>175.2</ele>
        <time>2021-04-18T07:11:32Z</time>
      </trkpt>
      <trkpt lat="49.81743" lon="4.75236">
        <ele>170.7</ele>
        <time>2021-04-18T07:11:59Z</time>
      </trkpt>
      <trkpt lat="49.81744" lon="4.75244">
        <ele>170.7</ele>
        <time>2021-04-18T07:12:13Z</time>
      </trkpt>
      <trkpt lat="49.81745" lon="4.75253">
        <ele>170.7</ele>
        <time>2021-04-18T07:12:21Z</time>
      </trkpt>
      <trkpt lat="49.81749" lon="4.7526">
        <ele>170.7</ele>
        <time>2021-04-18T07:12:25Z</time>
      </trkpt>
      <trkpt lat="49.81751" lon="4.75269">
        <ele>167.2</ele>
        <time>2021-04-18T07:12:40Z</time>
      </trkpt>
      <trkpt lat="49.81752" lon="4.75284">
        <ele>166.2</ele>
        <time>2021-04-18T07:12:44Z</time>
      </trkpt>
      <trkpt lat="49.81748" lon="4.75291">
        <ele>163.8</ele>
        <time>2021-04-18T07:13:02Z</time>
      </trkpt>
      <trkpt lat="49.81708" lon="4.75319">
        <ele>163.9</ele>
        <time>2021-04-18T07:13:10Z</time>
      </trkpt>
      <trkpt lat="49.8169" lon="4.75316">
        <ele>164</ele>
        <time>2021-04-18T07:13:12Z</time>
      </trkpt>
      <trkpt lat="49.81683" lon="4.75312">
        <ele>164</ele>
        <time>2021-04-18T07:13:13Z</time>
      </trkpt>
      <trkpt lat="49.81677" lon="4.75308">
        <ele>164</ele>
        <time>2021-04-18T07:13:14Z</time>
      </trkpt>
      <trkpt lat="49.81665" lon="4.75301">
        <ele>163.9</ele>
        <time>2021-04-18T07:13:16Z</time>
      </trkpt>
      <trkpt lat="49.8166" lon="4.753">
        <ele>164</ele>
        <time>2021-04-18T07:13:17Z</time>
      </trkpt>
      <trkpt lat="49.81654" lon="4.75299">
        <ele>164.1</ele>
        <time>2021-04-18T07:13:19Z</time>
      </trkpt>
      <trkpt lat="49.8166" lon="4.75303">
        <ele>164.1</ele>
        <time>2021-04-18T07:13:23Z</time>
      </trkpt>
      <trkpt lat="49.81668" lon="4.75301">
        <ele>164.2</ele>
        <time>2021-04-18T07:13:26Z</time>
      </trkpt>
      <trkpt lat="49.81671" lon="4.75294">
        <ele>164.2</ele>
        <time>2021-04-18T07:13:29Z</time>
      </trkpt>
      <trkpt lat="49.81667" lon="4.75298">
        <ele>164.3</ele>
        <time>2021-04-18T07:13:38Z</time>
      </trkpt>
      <trkpt lat="49.8166" lon="4.75297">
        <ele>160.2</ele>
        <time>2021-04-18T07:13:52Z</time>
      </trkpt>
      <trkpt lat="49.8165" lon="4.75293">
        <ele>160.1</ele>
        <time>2021-04-18T07:13:55Z</time>
      </trkpt>
      <trkpt lat="49.81639" lon="4.75288">
        <ele>160.1</ele>
        <time>2021-04-18T07:13:58Z</time>
      </trkpt>
      <trkpt lat="49.81629" lon="4.75282">
        <ele>160.1</ele>
        <time>2021-04-18T07:14:01Z</time>
      </trkpt>
      <trkpt lat="49.81625" lon="4.75282">
        <ele>160.1</ele>
        <time>2021-04-18T07:14:02Z</time>
      </trkpt>
      <trkpt lat="49.81619" lon="4.75287">
        <ele>160.2</ele>
        <time>2021-04-18T07:14:05Z</time>
      </trkpt>
      <trkpt lat="49.81616" lon="4.75293">
        <ele>160.2</ele>
        <time>2021-04-18T07:14:07Z</time>
      </trkpt>
      <trkpt lat="49.81614" lon="4.753">
        <ele>160.2</ele>
        <time>2021-04-18T07:14:11Z</time>
      </trkpt>
      <trkpt lat="49.81613" lon="4.75309">
        <ele>158.6</ele>
        <time>2021-04-18T07:14:18Z</time>
      </trkpt>
      <trkpt lat="49.81612" lon="4.75316">
        <ele>158.6</ele>
        <time>2021-04-18T07:14:23Z</time>
      </trkpt>
      <trkpt lat="49.81608" lon="4.75324">
        <ele>158.6</ele>
        <time>2021-04-18T07:14:26Z</time>
      </trkpt>
      <trkpt lat="49.81604" lon="4.75327">
        <ele>158.7</ele>
        <time>2021-04-18T07:14:28Z</time>
      </trkpt>
      <trkpt lat="49.81592" lon="4.75335">
        <ele>158.6</ele>
        <time>2021-04-18T07:14:32Z</time>
      </trkpt>
      <trkpt lat="49.81586" lon="4.7534">
        <ele>160.1</ele>
        <time>2021-04-18T07:15:06Z</time>
      </trkpt>
      <trkpt lat="49.81583" lon="4.75348">
        <ele>158.3</ele>
        <time>2021-04-18T07:15:11Z</time>
      </trkpt>
      <trkpt lat="49.8158" lon="4.75356">
        <ele>158.4</ele>
        <time>2021-04-18T07:15:14Z</time>
      </trkpt>
      <trkpt lat="49.81575" lon="4.75364">
        <ele>158.4</ele>
        <time>2021-04-18T07:15:17Z</time>
      </trkpt>
      <trkpt lat="49.81571" lon="4.75372">
        <ele>158.3</ele>
        <time>2021-04-18T07:15:20Z</time>
      </trkpt>
      <trkpt lat="49.81567" lon="4.75382">
        <ele>158.3</ele>
        <time>2021-04-18T07:15:24Z</time>
      </trkpt>
      <trkpt lat="49.81565" lon="4.75389">
        <ele>158.4</ele>
        <time>2021-04-18T07:15:27Z</time>
      </trkpt>
      <trkpt lat="49.81562" lon="4.75398">
        <ele>158.4</ele>
        <time>2021-04-18T07:15:32Z</time>
      </trkpt>
      <trkpt lat="49.81561" lon="4.75404">
        <ele>158.3</ele>
        <time>2021-04-18T07:15:35Z</time>
      </trkpt>
      <trkpt lat="49.81557" lon="4.75389">
        <ele>158.4</ele>
        <time>2021-04-18T07:15:59Z</time>
      </trkpt>
      <trkpt lat="49.81549" lon="4.75377">
        <ele>158.4</ele>
        <time>2021-04-18T07:16:01Z</time>
      </trkpt>
      <trkpt lat="49.81542" lon="4.75364">
        <ele>158.4</ele>
        <time>2021-04-18T07:16:03Z</time>
      </trkpt>
      <trkpt lat="49.81539" lon="4.75353">
        <ele>158.5</ele>
        <time>2021-04-18T07:16:05Z</time>
      </trkpt>
      <trkpt lat="49.81536" lon="4.75345">
        <ele>158.4</ele>
        <time>2021-04-18T07:16:06Z</time>
      </trkpt>
      <trkpt lat="49.81532" lon="4.75336">
        <ele>158.4</ele>
        <time>2021-04-18T07:16:07Z</time>
      </trkpt>
      <trkpt lat="49.81528" lon="4.75326">
        <ele>158.4</ele>
        <time>2021-04-18T07:16:09Z</time>
      </trkpt>
      <trkpt lat="49.81525" lon="4.75321">
        <ele>158.4</ele>
        <time>2021-04-18T07:16:10Z</time>
      </trkpt>
      <trkpt lat="49.81523" lon="4.75315">
        <ele>158.4</ele>
        <time>2021-04-18T07:16:11Z</time>
      </trkpt>
      <trkpt lat="49.81516" lon="4.75302">
        <ele>158.3</ele>
        <time>2021-04-18T07:16:13Z</time>
      </trkpt>
      <trkpt lat="49.81514" lon="4.75297">
        <ele>158.4</ele>
        <time>2021-04-18T07:16:14Z</time>
      </trkpt>
      <trkpt lat="49.81509" lon="4.75285">
        <ele>158.4</ele>
        <time>2021-04-18T07:16:16Z</time>
      </trkpt>
      <trkpt lat="49.81503" lon="4.75273">
        <ele>158.4</ele>
        <time>2021-04-18T07:16:18Z</time>
      </trkpt>
      <trkpt lat="49.81497" lon="4.75267">
        <ele>158.3</ele>
        <time>2021-04-18T07:16:21Z</time>
      </trkpt>
      <trkpt lat="49.81491" lon="4.7527">
        <ele>158.3</ele>
        <time>2021-04-18T07:16:24Z</time>
      </trkpt>
      <trkpt lat="49.81485" lon="4.75271">
        <ele>158.4</ele>
        <time>2021-04-18T07:16:26Z</time>
      </trkpt>
      <trkpt lat="49.81478" lon="4.75273">
        <ele>158.5</ele>
        <time>2021-04-18T07:16:29Z</time>
      </trkpt>
      <trkpt lat="49.81471" lon="4.75275">
        <ele>158.6</ele>
        <time>2021-04-18T07:16:31Z</time>
      </trkpt>
      <trkpt lat="49.81463" lon="4.75277">
        <ele>158.6</ele>
        <time>2021-04-18T07:16:34Z</time>
      </trkpt>
      <trkpt lat="49.81458" lon="4.75276">
        <ele>158.6</ele>
        <time>2021-04-18T07:16:36Z</time>
      </trkpt>
      <trkpt lat="49.81452" lon="4.75278">
        <ele>158.5</ele>
        <time>2021-04-18T07:16:39Z</time>
      </trkpt>
      <trkpt lat="49.81448" lon="4.7528">
        <ele>159.9</ele>
        <time>2021-04-18T07:16:56Z</time>
      </trkpt>
      <trkpt lat="49.81444" lon="4.75283">
        <ele>159.9</ele>
        <time>2021-04-18T07:16:58Z</time>
      </trkpt>
      <trkpt lat="49.81439" lon="4.75285">
        <ele>159.9</ele>
        <time>2021-04-18T07:16:59Z</time>
      </trkpt>
      <trkpt lat="49.81431" lon="4.75288">
        <ele>159.9</ele>
        <time>2021-04-18T07:17:00Z</time>
      </trkpt>
      <trkpt lat="49.81426" lon="4.7529">
        <ele>159.9</ele>
        <time>2021-04-18T07:17:01Z</time>
      </trkpt>
      <trkpt lat="49.81422" lon="4.75292">
        <ele>159.9</ele>
        <time>2021-04-18T07:17:03Z</time>
      </trkpt>
      <trkpt lat="49.81414" lon="4.75295">
        <ele>159.9</ele>
        <time>2021-04-18T07:17:05Z</time>
      </trkpt>
      <trkpt lat="49.81408" lon="4.75298">
        <ele>160</ele>
        <time>2021-04-18T07:17:07Z</time>
      </trkpt>
      <trkpt lat="49.81402" lon="4.75301">
        <ele>160</ele>
        <time>2021-04-18T07:17:09Z</time>
      </trkpt>
      <trkpt lat="49.81397" lon="4.75305">
        <ele>159.9</ele>
        <time>2021-04-18T07:17:11Z</time>
      </trkpt>
      <trkpt lat="49.81392" lon="4.75309">
        <ele>159.9</ele>
        <time>2021-04-18T07:17:14Z</time>
      </trkpt>
      <trkpt lat="49.81386" lon="4.75315">
        <ele>160</ele>
        <time>2021-04-18T07:17:16Z</time>
      </trkpt>
      <trkpt lat="49.81381" lon="4.7532">
        <ele>160</ele>
        <time>2021-04-18T07:17:19Z</time>
      </trkpt>
      <trkpt lat="49.81377" lon="4.75324">
        <ele>160</ele>
        <time>2021-04-18T07:17:21Z</time>
      </trkpt>
      <trkpt lat="49.81373" lon="4.75329">
        <ele>160</ele>
        <time>2021-04-18T07:17:24Z</time>
      </trkpt>
      <trkpt lat="49.81367" lon="4.75334">
        <ele>159.9</ele>
        <time>2021-04-18T07:17:27Z</time>
      </trkpt>
      <trkpt lat="49.81363" lon="4.75341">
        <ele>160</ele>
        <time>2021-04-18T07:17:29Z</time>
      </trkpt>
      <trkpt lat="49.81364" lon="4.75353">
        <ele>160</ele>
        <time>2021-04-18T07:17:33Z</time>
      </trkpt>
      <trkpt lat="49.81362" lon="4.7536">
        <ele>159.9</ele>
        <time>2021-04-18T07:17:36Z</time>
      </trkpt>
      <trkpt lat="49.81363" lon="4.7537">
        <ele>168.6</ele>
        <time>2021-04-18T07:17:41Z</time>
      </trkpt>
      <trkpt lat="49.81363" lon="4.75379">
        <ele>170</ele>
        <time>2021-04-18T07:17:46Z</time>
      </trkpt>
      <trkpt lat="49.81364" lon="4.7539">
        <ele>170.9</ele>
        <time>2021-04-18T07:17:51Z</time>
      </trkpt>
      <trkpt lat="49.81364" lon="4.75397">
        <ele>170.9</ele>
        <time>2021-04-18T07:17:55Z</time>
      </trkpt>
      <trkpt lat="49.81363" lon="4.75411">
        <ele>171.6</ele>
        <time>2021-04-18T07:18:00Z</time>
      </trkpt>
      <trkpt lat="49.81364" lon="4.7542">
        <ele>171.6</ele>
        <time>2021-04-18T07:18:03Z</time>
      </trkpt>
      <trkpt lat="49.81364" lon="4.7543">
        <ele>171.6</ele>
        <time>2021-04-18T07:18:05Z</time>
      </trkpt>
      <trkpt lat="49.81364" lon="4.75441">
        <ele>171.6</ele>
        <time>2021-04-18T07:18:08Z</time>
      </trkpt>
      <trkpt lat="49.81366" lon="4.7545">
        <ele>171.6</ele>
        <time>2021-04-18T07:18:10Z</time>
      </trkpt>
      <trkpt lat="49.81368" lon="4.75457">
        <ele>171.7</ele>
        <time>2021-04-18T07:18:14Z</time>
      </trkpt>
      <trkpt lat="49.81371" lon="4.75467">
        <ele>172</ele>
        <time>2021-04-18T07:18:19Z</time>
      </trkpt>
      <trkpt lat="49.81375" lon="4.75482">
        <ele>172.6</ele>
        <time>2021-04-18T07:18:21Z</time>
      </trkpt>
      <trkpt lat="49.81381" lon="4.75497">
        <ele>172.7</ele>
        <time>2021-04-18T07:18:26Z</time>
      </trkpt>
      <trkpt lat="49.81386" lon="4.75508">
        <ele>172.7</ele>
        <time>2021-04-18T07:18:29Z</time>
      </trkpt>
      <trkpt lat="49.81395" lon="4.75522">
        <ele>173.4</ele>
        <time>2021-04-18T07:18:32Z</time>
      </trkpt>
      <trkpt lat="49.81398" lon="4.75528">
        <ele>173.4</ele>
        <time>2021-04-18T07:18:35Z</time>
      </trkpt>
      <trkpt lat="49.81401" lon="4.75533">
        <ele>174</ele>
        <time>2021-04-18T07:18:36Z</time>
      </trkpt>
      <trkpt lat="49.81405" lon="4.75539">
        <ele>174</ele>
        <time>2021-04-18T07:18:39Z</time>
      </trkpt>
      <trkpt lat="49.81408" lon="4.75547">
        <ele>174</ele>
        <time>2021-04-18T07:18:42Z</time>
      </trkpt>
      <trkpt lat="49.81421" lon="4.75583">
        <ele>174.1</ele>
        <time>2021-04-18T07:18:54Z</time>
      </trkpt>
      <trkpt lat="49.8142" lon="4.7559">
        <ele>174.1</ele>
        <time>2021-04-18T07:18:56Z</time>
      </trkpt>
      <trkpt lat="49.81416" lon="4.75583">
        <ele>175.1</ele>
        <time>2021-04-18T07:19:10Z</time>
      </trkpt>
      <trkpt lat="49.81413" lon="4.75578">
        <ele>175.1</ele>
        <time>2021-04-18T07:19:16Z</time>
      </trkpt>
      <trkpt lat="49.8141" lon="4.75569">
        <ele>175.9</ele>
        <time>2021-04-18T07:19:20Z</time>
      </trkpt>
      <trkpt lat="49.81409" lon="4.75563">
        <ele>176</ele>
        <time>2021-04-18T07:19:32Z</time>
      </trkpt>
      <trkpt lat="49.81406" lon="4.75557">
        <ele>173.3</ele>
        <time>2021-04-18T07:20:01Z</time>
      </trkpt>
      <trkpt lat="49.81393" lon="4.75549">
        <ele>172.8</ele>
        <time>2021-04-18T07:20:04Z</time>
      </trkpt>
      <trkpt lat="49.81387" lon="4.75545">
        <ele>172.8</ele>
        <time>2021-04-18T07:20:06Z</time>
      </trkpt>
      <trkpt lat="49.81382" lon="4.75541">
        <ele>172.9</ele>
        <time>2021-04-18T07:20:07Z</time>
      </trkpt>
      <trkpt lat="49.81313" lon="4.75462">
        <ele>172.9</ele>
        <time>2021-04-18T07:20:52Z</time>
      </trkpt>
      <trkpt lat="49.81224" lon="4.75311">
        <ele>252.4</ele>
        <time>2021-04-18T07:22:07Z</time>
      </trkpt>
      <trkpt lat="49.8122" lon="4.75304">
        <ele>252.9</ele>
        <time>2021-04-18T07:22:12Z</time>
      </trkpt>
      <trkpt lat="49.81214" lon="4.75296">
        <ele>253</ele>
        <time>2021-04-18T07:22:17Z</time>
      </trkpt>
      <trkpt lat="49.8121" lon="4.7529">
        <ele>253</ele>
        <time>2021-04-18T07:22:20Z</time>
      </trkpt>
      <trkpt lat="49.81193" lon="4.75249">
        <ele>253</ele>
        <time>2021-04-18T07:22:33Z</time>
      </trkpt>
      <trkpt lat="49.8119" lon="4.75243">
        <ele>253.1</ele>
        <time>2021-04-18T07:22:36Z</time>
      </trkpt>
      <trkpt lat="49.81187" lon="4.75238">
        <ele>253.1</ele>
        <time>2021-04-18T07:22:39Z</time>
      </trkpt>
      <trkpt lat="49.81182" lon="4.75232">
        <ele>253.2</ele>
        <time>2021-04-18T07:22:42Z</time>
      </trkpt>
      <trkpt lat="49.81178" lon="4.75224">
        <ele>253.2</ele>
        <time>2021-04-18T07:22:46Z</time>
      </trkpt>
      <trkpt lat="49.81173" lon="4.75216">
        <ele>253.2</ele>
        <time>2021-04-18T07:22:50Z</time>
      </trkpt>
      <trkpt lat="49.81169" lon="4.75208">
        <ele>253.3</ele>
        <time>2021-04-18T07:22:53Z</time>
      </trkpt>
      <trkpt lat="49.81167" lon="4.752">
        <ele>253.4</ele>
        <time>2021-04-18T07:22:56Z</time>
      </trkpt>
      <trkpt lat="49.81165" lon="4.75194">
        <ele>253.3</ele>
        <time>2021-04-18T07:22:59Z</time>
      </trkpt>
      <trkpt lat="49.81163" lon="4.75184">
        <ele>253.3</ele>
        <time>2021-04-18T07:23:03Z</time>
      </trkpt>
      <trkpt lat="49.81157" lon="4.75169">
        <ele>253.3</ele>
        <time>2021-04-18T07:23:08Z</time>
      </trkpt>
      <trkpt lat="49.81154" lon="4.75158">
        <ele>253.2</ele>
        <time>2021-04-18T07:23:12Z</time>
      </trkpt>
      <trkpt lat="49.81151" lon="4.75152">
        <ele>253.2</ele>
        <time>2021-04-18T07:23:15Z</time>
      </trkpt>
      <trkpt lat="49.81147" lon="4.75147">
        <ele>253.2</ele>
        <time>2021-04-18T07:23:17Z</time>
      </trkpt>
      <trkpt lat="49.81143" lon="4.7514">
        <ele>253.3</ele>
        <time>2021-04-18T07:23:20Z</time>
      </trkpt>
      <trkpt lat="49.81141" lon="4.75134">
        <ele>253.3</ele>
        <time>2021-04-18T07:23:22Z</time>
      </trkpt>
      <trkpt lat="49.81138" lon="4.75124">
        <ele>253.2</ele>
        <time>2021-04-18T07:23:27Z</time>
      </trkpt>
      <trkpt lat="49.81137" lon="4.75117">
        <ele>253.2</ele>
        <time>2021-04-18T07:23:29Z</time>
      </trkpt>
      <trkpt lat="49.8109" lon="4.74999">
        <ele>270.8</ele>
        <time>2021-04-18T07:24:02Z</time>
      </trkpt>
      <trkpt lat="49.80945" lon="4.74885">
        <ele>266.7</ele>
        <time>2021-04-18T07:25:04Z</time>
      </trkpt>
      <trkpt lat="49.80848" lon="4.75323">
        <ele>289.5</ele>
        <time>2021-04-18T07:27:35Z</time>
      </trkpt>
      <trkpt lat="49.80851" lon="4.75329">
        <ele>290.8</ele>
        <time>2021-04-18T07:28:52Z</time>
      </trkpt>
      <trkpt lat="49.80856" lon="4.7533">
        <ele>287.7</ele>
        <time>2021-04-18T07:28:56Z</time>
      </trkpt>
      <trkpt lat="49.8086" lon="4.75338">
        <ele>290.5</ele>
        <time>2021-04-18T07:29:03Z</time>
      </trkpt>
      <trkpt lat="49.80865" lon="4.75342">
        <ele>286.1</ele>
        <time>2021-04-18T07:29:07Z</time>
      </trkpt>
      <trkpt lat="49.80869" lon="4.7534">
        <ele>292.4</ele>
        <time>2021-04-18T07:29:10Z</time>
      </trkpt>
      <trkpt lat="49.80873" lon="4.75336">
        <ele>294.4</ele>
        <time>2021-04-18T07:29:13Z</time>
      </trkpt>
      <trkpt lat="49.80878" lon="4.75329">
        <ele>288.3</ele>
        <time>2021-04-18T07:29:15Z</time>
      </trkpt>
      <trkpt lat="49.80882" lon="4.75324">
        <ele>293.7</ele>
        <time>2021-04-18T07:29:18Z</time>
      </trkpt>
      <trkpt lat="49.80971" lon="4.75129">
        <ele>295.2</ele>
        <time>2021-04-18T07:30:15Z</time>
      </trkpt>
      <trkpt lat="49.80971" lon="4.75137">
        <ele>298</ele>
        <time>2021-04-18T07:30:20Z</time>
      </trkpt>
      <trkpt lat="49.80969" lon="4.75131">
        <ele>298.2</ele>
        <time>2021-04-18T07:30:25Z</time>
      </trkpt>
      <trkpt lat="49.80969" lon="4.75124">
        <ele>295.7</ele>
        <time>2021-04-18T07:30:38Z</time>
      </trkpt>
      <trkpt lat="49.80978" lon="4.75122">
        <ele>293.2</ele>
        <time>2021-04-18T07:30:47Z</time>
      </trkpt>
      <trkpt lat="49.80983" lon="4.75121">
        <ele>293.4</ele>
        <time>2021-04-18T07:30:48Z</time>
      </trkpt>
      <trkpt lat="49.80988" lon="4.7512">
        <ele>293.9</ele>
        <time>2021-04-18T07:30:50Z</time>
      </trkpt>
      <trkpt lat="49.80993" lon="4.75118">
        <ele>293.7</ele>
        <time>2021-04-18T07:30:56Z</time>
      </trkpt>
      <trkpt lat="49.80995" lon="4.75125">
        <ele>300.3</ele>
        <time>2021-04-18T07:31:04Z</time>
      </trkpt>
      <trkpt lat="49.80993" lon="4.75131">
        <ele>303.3</ele>
        <time>2021-04-18T07:31:06Z</time>
      </trkpt>
      <trkpt lat="49.80989" lon="4.75138">
        <ele>301.6</ele>
        <time>2021-04-18T07:31:08Z</time>
      </trkpt>
      <trkpt lat="49.80951" lon="4.75755">
        <ele>323.2</ele>
        <time>2021-04-18T07:33:22Z</time>
      </trkpt>
      <trkpt lat="49.80952" lon="4.75764">
        <ele>321</ele>
        <time>2021-04-18T07:34:01Z</time>
      </trkpt>
      <trkpt lat="49.80955" lon="4.75771">
        <ele>319.6</ele>
        <time>2021-04-18T07:34:03Z</time>
      </trkpt>
      <trkpt lat="49.80958" lon="4.75787">
        <ele>321.8</ele>
        <time>2021-04-18T07:34:06Z</time>
      </trkpt>
      <trkpt lat="49.80959" lon="4.75794">
        <ele>318.5</ele>
        <time>2021-04-18T07:34:08Z</time>
      </trkpt>
      <trkpt lat="49.80964" lon="4.75804">
        <ele>318</ele>
        <time>2021-04-18T07:34:11Z</time>
      </trkpt>
      <trkpt lat="49.80967" lon="4.7581">
        <ele>318.4</ele>
        <time>2021-04-18T07:35:22Z</time>
      </trkpt>
      <trkpt lat="49.80973" lon="4.75807">
        <ele>323.6</ele>
        <time>2021-04-18T07:35:37Z</time>
      </trkpt>
      <trkpt lat="49.80976" lon="4.75802">
        <ele>325.5</ele>
        <time>2021-04-18T07:35:39Z</time>
      </trkpt>
      <trkpt lat="49.8098" lon="4.75793">
        <ele>327</ele>
        <time>2021-04-18T07:35:41Z</time>
      </trkpt>
      <trkpt lat="49.80998" lon="4.75685">
        <ele>327.7</ele>
        <time>2021-04-18T07:36:06Z</time>
      </trkpt>
      <trkpt lat="49.80999" lon="4.75671">
        <ele>325.1</ele>
        <time>2021-04-18T07:36:08Z</time>
      </trkpt>
      <trkpt lat="49.81012" lon="4.75637">
        <ele>321.8</ele>
        <time>2021-04-18T07:36:18Z</time>
      </trkpt>
      <trkpt lat="49.81013" lon="4.75627">
        <ele>320.2</ele>
        <time>2021-04-18T07:36:19Z</time>
      </trkpt>
      <trkpt lat="49.81017" lon="4.7562">
        <ele>320.8</ele>
        <time>2021-04-18T07:36:20Z</time>
      </trkpt>
      <trkpt lat="49.81019" lon="4.75614">
        <ele>318.9</ele>
        <time>2021-04-18T07:36:21Z</time>
      </trkpt>
      <trkpt lat="49.81021" lon="4.75605">
        <ele>318.5</ele>
        <time>2021-04-18T07:36:23Z</time>
      </trkpt>
      <trkpt lat="49.81022" lon="4.75597">
        <ele>320.5</ele>
        <time>2021-04-18T07:36:24Z</time>
      </trkpt>
      <trkpt lat="49.81022" lon="4.7558">
        <ele>319.2</ele>
        <time>2021-04-18T07:36:28Z</time>
      </trkpt>
      <trkpt lat="49.81025" lon="4.75573">
        <ele>319.5</ele>
        <time>2021-04-18T07:36:30Z</time>
      </trkpt>
      <trkpt lat="49.81027" lon="4.75563">
        <ele>319</ele>
        <time>2021-04-18T07:36:32Z</time>
      </trkpt>
      <trkpt lat="49.81027" lon="4.7555">
        <ele>320.7</ele>
        <time>2021-04-18T07:36:34Z</time>
      </trkpt>
      <trkpt lat="49.81027" lon="4.75538">
        <ele>319.7</ele>
        <time>2021-04-18T07:36:36Z</time>
      </trkpt>
      <trkpt lat="49.81026" lon="4.75525">
        <ele>320.2</ele>
        <time>2021-04-18T07:36:39Z</time>
      </trkpt>
      <trkpt lat="49.81025" lon="4.75514">
        <ele>324.3</ele>
        <time>2021-04-18T07:36:42Z</time>
      </trkpt>
      <trkpt lat="49.80994" lon="4.75403">
        <ele>313.2</ele>
        <time>2021-04-18T07:37:09Z</time>
      </trkpt>
      <trkpt lat="49.8099" lon="4.75395">
        <ele>315.3</ele>
        <time>2021-04-18T07:37:11Z</time>
      </trkpt>
      <trkpt lat="49.80986" lon="4.75387">
        <ele>314.9</ele>
        <time>2021-04-18T07:37:13Z</time>
      </trkpt>
      <trkpt lat="49.80983" lon="4.7538">
        <ele>313.8</ele>
        <time>2021-04-18T07:37:15Z</time>
      </trkpt>
      <trkpt lat="49.80982" lon="4.75373">
        <ele>313.6</ele>
        <time>2021-04-18T07:37:19Z</time>
      </trkpt>
      <trkpt lat="49.8098" lon="4.75365">
        <ele>312.4</ele>
        <time>2021-04-18T07:37:23Z</time>
      </trkpt>
      <trkpt lat="49.80975" lon="4.75359">
        <ele>311.3</ele>
        <time>2021-04-18T07:37:26Z</time>
      </trkpt>
      <trkpt lat="49.80971" lon="4.75352">
        <ele>310.9</ele>
        <time>2021-04-18T07:37:29Z</time>
      </trkpt>
      <trkpt lat="49.80969" lon="4.75339">
        <ele>310.4</ele>
        <time>2021-04-18T07:37:32Z</time>
      </trkpt>
      <trkpt lat="49.80967" lon="4.75327">
        <ele>310.3</ele>
        <time>2021-04-18T07:37:34Z</time>
      </trkpt>
      <trkpt lat="49.80967" lon="4.75319">
        <ele>310.3</ele>
        <time>2021-04-18T07:37:37Z</time>
      </trkpt>
      <trkpt lat="49.80969" lon="4.7531">
        <ele>309</ele>
        <time>2021-04-18T07:37:39Z</time>
      </trkpt>
      <trkpt lat="49.80967" lon="4.75302">
        <ele>308.9</ele>
        <time>2021-04-18T07:37:42Z</time>
      </trkpt>
      <trkpt lat="49.80968" lon="4.75294">
        <ele>307.3</ele>
        <time>2021-04-18T07:37:45Z</time>
      </trkpt>
      <trkpt lat="49.80974" lon="4.75289">
        <ele>310.4</ele>
        <time>2021-04-18T07:37:47Z</time>
      </trkpt>
      <trkpt lat="49.80977" lon="4.7528">
        <ele>309.1</ele>
        <time>2021-04-18T07:37:51Z</time>
      </trkpt>
      <trkpt lat="49.80975" lon="4.75273">
        <ele>308.2</ele>
        <time>2021-04-18T07:37:54Z</time>
      </trkpt>
      <trkpt lat="49.80975" lon="4.75265">
        <ele>303.1</ele>
        <time>2021-04-18T07:37:59Z</time>
      </trkpt>
      <trkpt lat="49.80977" lon="4.75257">
        <ele>302.9</ele>
        <time>2021-04-18T07:38:03Z</time>
      </trkpt>
      <trkpt lat="49.80977" lon="4.75244">
        <ele>304.5</ele>
        <time>2021-04-18T07:38:06Z</time>
      </trkpt>
      <trkpt lat="49.80978" lon="4.75237">
        <ele>303.6</ele>
        <time>2021-04-18T07:38:08Z</time>
      </trkpt>
      <trkpt lat="49.8098" lon="4.7523">
        <ele>305.3</ele>
        <time>2021-04-18T07:38:10Z</time>
      </trkpt>
      <trkpt lat="49.80984" lon="4.75224">
        <ele>303.3</ele>
        <time>2021-04-18T07:38:12Z</time>
      </trkpt>
      <trkpt lat="49.80987" lon="4.75206">
        <ele>301</ele>
        <time>2021-04-18T07:38:16Z</time>
      </trkpt>
      <trkpt lat="49.80991" lon="4.752">
        <ele>301.2</ele>
        <time>2021-04-18T07:38:17Z</time>
      </trkpt>
      <trkpt lat="49.80995" lon="4.75195">
        <ele>303.5</ele>
        <time>2021-04-18T07:38:18Z</time>
      </trkpt>
      <trkpt lat="49.80999" lon="4.75189">
        <ele>301.1</ele>
        <time>2021-04-18T07:38:20Z</time>
      </trkpt>
      <trkpt lat="49.81002" lon="4.75183">
        <ele>298.5</ele>
        <time>2021-04-18T07:38:21Z</time>
      </trkpt>
      <trkpt lat="49.81003" lon="4.75175">
        <ele>299.6</ele>
        <time>2021-04-18T07:38:22Z</time>
      </trkpt>
      <trkpt lat="49.81004" lon="4.75165">
        <ele>298</ele>
        <time>2021-04-18T07:38:23Z</time>
      </trkpt>
      <trkpt lat="49.81007" lon="4.75157">
        <ele>298.3</ele>
        <time>2021-04-18T07:38:24Z</time>
      </trkpt>
      <trkpt lat="49.81008" lon="4.75149">
        <ele>296.2</ele>
        <time>2021-04-18T07:38:25Z</time>
      </trkpt>
      <trkpt lat="49.81009" lon="4.75139">
        <ele>297.3</ele>
        <time>2021-04-18T07:38:27Z</time>
      </trkpt>
      <trkpt lat="49.8101" lon="4.75131">
        <ele>297.8</ele>
        <time>2021-04-18T07:38:28Z</time>
      </trkpt>
      <trkpt lat="49.81011" lon="4.75119">
        <ele>296.2</ele>
        <time>2021-04-18T07:38:30Z</time>
      </trkpt>
      <trkpt lat="49.81012" lon="4.75109">
        <ele>298.7</ele>
        <time>2021-04-18T07:38:31Z</time>
      </trkpt>
      <trkpt lat="49.81013" lon="4.75102">
        <ele>297.1</ele>
        <time>2021-04-18T07:38:33Z</time>
      </trkpt>
      <trkpt lat="49.81014" lon="4.75092">
        <ele>296.6</ele>
        <time>2021-04-18T07:38:36Z</time>
      </trkpt>
      <trkpt lat="49.8101" lon="4.75087">
        <ele>296.1</ele>
        <time>2021-04-18T07:38:49Z</time>
      </trkpt>
      <trkpt lat="49.81011" lon="4.75079">
        <ele>293</ele>
        <time>2021-04-18T07:39:04Z</time>
      </trkpt>
      <trkpt lat="49.81008" lon="4.7507">
        <ele>293.4</ele>
        <time>2021-04-18T07:39:09Z</time>
      </trkpt>
      <trkpt lat="49.81007" lon="4.75062">
        <ele>292.3</ele>
        <time>2021-04-18T07:39:12Z</time>
      </trkpt>
      <trkpt lat="49.81003" lon="4.75056">
        <ele>289.1</ele>
        <time>2021-04-18T07:39:18Z</time>
      </trkpt>
      <trkpt lat="49.81003" lon="4.75048">
        <ele>286.8</ele>
        <time>2021-04-18T07:39:24Z</time>
      </trkpt>
      <trkpt lat="49.81002" lon="4.7504">
        <ele>283.4</ele>
        <time>2021-04-18T07:39:27Z</time>
      </trkpt>
      <trkpt lat="49.81003" lon="4.75033">
        <ele>283</ele>
        <time>2021-04-18T07:39:30Z</time>
      </trkpt>
      <trkpt lat="49.81006" lon="4.75026">
        <ele>286</ele>
        <time>2021-04-18T07:39:33Z</time>
      </trkpt>
      <trkpt lat="49.81011" lon="4.75021">
        <ele>151.9</ele>
        <time>2021-04-18T07:39:57Z</time>
      </trkpt>
      <trkpt lat="49.81014" lon="4.75016">
        <ele>151.8</ele>
        <time>2021-04-18T07:40:03Z</time>
      </trkpt>
      <trkpt lat="49.8101" lon="4.7501">
        <ele>151.9</ele>
        <time>2021-04-18T07:40:34Z</time>
      </trkpt>
      <trkpt lat="49.81013" lon="4.75001">
        <ele>151.8</ele>
        <time>2021-04-18T07:40:37Z</time>
      </trkpt>
      <trkpt lat="49.81016" lon="4.74992">
        <ele>151.8</ele>
        <time>2021-04-18T07:40:41Z</time>
      </trkpt>
      <trkpt lat="49.81018" lon="4.74983">
        <ele>151.8</ele>
        <time>2021-04-18T07:40:45Z</time>
      </trkpt>
      <trkpt lat="49.81015" lon="4.74977">
        <ele>151.8</ele>
        <time>2021-04-18T07:40:46Z</time>
      </trkpt>
      <trkpt lat="49.81014" lon="4.74969">
        <ele>278.6</ele>
        <time>2021-04-18T07:40:48Z</time>
      </trkpt>
      <trkpt lat="49.8101" lon="4.74958">
        <ele>278.1</ele>
        <time>2021-04-18T07:40:51Z</time>
      </trkpt>
      <trkpt lat="49.81008" lon="4.7495">
        <ele>278.2</ele>
        <time>2021-04-18T07:40:54Z</time>
      </trkpt>
      <trkpt lat="49.81006" lon="4.74943">
        <ele>278.2</ele>
        <time>2021-04-18T07:40:56Z</time>
      </trkpt>
      <trkpt lat="49.81" lon="4.74937">
        <ele>278</ele>
        <time>2021-04-18T07:41:02Z</time>
      </trkpt>
      <trkpt lat="49.80999" lon="4.74927">
        <ele>275.2</ele>
        <time>2021-04-18T07:41:06Z</time>
      </trkpt>
      <trkpt lat="49.80996" lon="4.74922">
        <ele>273.6</ele>
        <time>2021-04-18T07:41:08Z</time>
      </trkpt>
      <trkpt lat="49.80991" lon="4.74916">
        <ele>272</ele>
        <time>2021-04-18T07:41:11Z</time>
      </trkpt>
      <trkpt lat="49.80989" lon="4.74905">
        <ele>270.3</ele>
        <time>2021-04-18T07:41:14Z</time>
      </trkpt>
      <trkpt lat="49.80989" lon="4.74897">
        <ele>271</ele>
        <time>2021-04-18T07:41:17Z</time>
      </trkpt>
      <trkpt lat="49.80989" lon="4.74889">
        <ele>265.5</ele>
        <time>2021-04-18T07:41:22Z</time>
      </trkpt>
      <trkpt lat="49.80989" lon="4.74881">
        <ele>257.9</ele>
        <time>2021-04-18T07:41:30Z</time>
      </trkpt>
      <trkpt lat="49.8099" lon="4.74874">
        <ele>251.8</ele>
        <time>2021-04-18T07:41:35Z</time>
      </trkpt>
      <trkpt lat="49.80991" lon="4.74867">
        <ele>251.3</ele>
        <time>2021-04-18T07:41:39Z</time>
      </trkpt>
      <trkpt lat="49.80991" lon="4.7486">
        <ele>253.1</ele>
        <time>2021-04-18T07:41:49Z</time>
      </trkpt>
      <trkpt lat="49.80994" lon="4.74853">
        <ele>251.5</ele>
        <time>2021-04-18T07:42:37Z</time>
      </trkpt>
      <trkpt lat="49.80998" lon="4.7486">
        <ele>248.1</ele>
        <time>2021-04-18T07:42:50Z</time>
      </trkpt>
      <trkpt lat="49.81003" lon="4.7486">
        <ele>246.5</ele>
        <time>2021-04-18T07:42:53Z</time>
      </trkpt>
      <trkpt lat="49.81009" lon="4.74859">
        <ele>245.2</ele>
        <time>2021-04-18T07:42:56Z</time>
      </trkpt>
      <trkpt lat="49.81016" lon="4.74856">
        <ele>243.8</ele>
        <time>2021-04-18T07:42:58Z</time>
      </trkpt>
      <trkpt lat="49.81023" lon="4.74849">
        <ele>245.3</ele>
        <time>2021-04-18T07:43:01Z</time>
      </trkpt>
      <trkpt lat="49.81028" lon="4.74841">
        <ele>243.6</ele>
        <time>2021-04-18T07:43:03Z</time>
      </trkpt>
      <trkpt lat="49.81031" lon="4.74832">
        <ele>245</ele>
        <time>2021-04-18T07:43:05Z</time>
      </trkpt>
      <trkpt lat="49.81027" lon="4.74824">
        <ele>241.3</ele>
        <time>2021-04-18T07:43:11Z</time>
      </trkpt>
      <trkpt lat="49.81026" lon="4.74814">
        <ele>240.6</ele>
        <time>2021-04-18T07:43:14Z</time>
      </trkpt>
      <trkpt lat="49.81023" lon="4.74804">
        <ele>241.8</ele>
        <time>2021-04-18T07:43:17Z</time>
      </trkpt>
      <trkpt lat="49.81019" lon="4.74797">
        <ele>243.3</ele>
        <time>2021-04-18T07:43:18Z</time>
      </trkpt>
      <trkpt lat="49.81013" lon="4.74791">
        <ele>243.8</ele>
        <time>2021-04-18T07:43:21Z</time>
      </trkpt>
      <trkpt lat="49.81008" lon="4.7479">
        <ele>243.6</ele>
        <time>2021-04-18T07:43:23Z</time>
      </trkpt>
      <trkpt lat="49.81002" lon="4.74789">
        <ele>241.5</ele>
        <time>2021-04-18T07:43:27Z</time>
      </trkpt>
      <trkpt lat="49.80995" lon="4.74788">
        <ele>243.8</ele>
        <time>2021-04-18T07:43:31Z</time>
      </trkpt>
      <trkpt lat="49.80989" lon="4.74788">
        <ele>243.2</ele>
        <time>2021-04-18T07:43:33Z</time>
      </trkpt>
      <trkpt lat="49.80901" lon="4.748">
        <ele>237.5</ele>
        <time>2021-04-18T07:43:51Z</time>
      </trkpt>
      <trkpt lat="49.80895" lon="4.74802">
        <ele>235.8</ele>
        <time>2021-04-18T07:43:53Z</time>
      </trkpt>
      <trkpt lat="49.80891" lon="4.74802">
        <ele>237.5</ele>
        <time>2021-04-18T07:44:08Z</time>
      </trkpt>
      <trkpt lat="49.80884" lon="4.74806">
        <ele>229.6</ele>
        <time>2021-04-18T07:44:37Z</time>
      </trkpt>
      <trkpt lat="49.80879" lon="4.74819">
        <ele>228.4</ele>
        <time>2021-04-18T07:44:39Z</time>
      </trkpt>
      <trkpt lat="49.80875" lon="4.74824">
        <ele>225.1</ele>
        <time>2021-04-18T07:45:09Z</time>
      </trkpt>
      <trkpt lat="49.80869" lon="4.74823">
        <ele>225.5</ele>
        <time>2021-04-18T07:45:16Z</time>
      </trkpt>
      <trkpt lat="49.80864" lon="4.74819">
        <ele>223.9</ele>
        <time>2021-04-18T07:45:26Z</time>
      </trkpt>
      <trkpt lat="49.80857" lon="4.74814">
        <ele>222.6</ele>
        <time>2021-04-18T07:45:33Z</time>
      </trkpt>
      <trkpt lat="49.80852" lon="4.74812">
        <ele>220.6</ele>
        <time>2021-04-18T07:45:41Z</time>
      </trkpt>
      <trkpt lat="49.80846" lon="4.74811">
        <ele>222.9</ele>
        <time>2021-04-18T07:45:45Z</time>
      </trkpt>
      <trkpt lat="49.80841" lon="4.74811">
        <ele>218.7</ele>
        <time>2021-04-18T07:45:48Z</time>
      </trkpt>
      <trkpt lat="49.8075" lon="4.74876">
        <ele>218.2</ele>
        <time>2021-04-18T07:45:59Z</time>
      </trkpt>
      <trkpt lat="49.80717" lon="4.74919">
        <ele>211.3</ele>
        <time>2021-04-18T07:46:09Z</time>
      </trkpt>
      <trkpt lat="49.80713" lon="4.74928">
        <ele>210.2</ele>
        <time>2021-04-18T07:46:12Z</time>
      </trkpt>
      <trkpt lat="49.80705" lon="4.74953">
        <ele>210.8</ele>
        <time>2021-04-18T07:46:19Z</time>
      </trkpt>
      <trkpt lat="49.80703" lon="4.74965">
        <ele>203.4</ele>
        <time>2021-04-18T07:46:26Z</time>
      </trkpt>
      <trkpt lat="49.80702" lon="4.74972">
        <ele>199.3</ele>
        <time>2021-04-18T07:46:27Z</time>
      </trkpt>
      <trkpt lat="49.807" lon="4.74981">
        <ele>200.1</ele>
        <time>2021-04-18T07:46:28Z</time>
      </trkpt>
      <trkpt lat="49.80693" lon="4.75016">
        <ele>199.1</ele>
        <time>2021-04-18T07:46:32Z</time>
      </trkpt>
      <trkpt lat="49.80693" lon="4.75026">
        <ele>199.8</ele>
        <time>2021-04-18T07:46:35Z</time>
      </trkpt>
      <trkpt lat="49.80675" lon="4.75012">
        <ele>192.1</ele>
        <time>2021-04-18T07:46:54Z</time>
      </trkpt>
      <trkpt lat="49.80673" lon="4.75003">
        <ele>189.9</ele>
        <time>2021-04-18T07:47:01Z</time>
      </trkpt>
      <trkpt lat="49.80669" lon="4.74996">
        <ele>187.5</ele>
        <time>2021-04-18T07:47:04Z</time>
      </trkpt>
      <trkpt lat="49.80664" lon="4.74988">
        <ele>140.7</ele>
        <time>2021-04-18T07:47:16Z</time>
      </trkpt>
      <trkpt lat="49.80659" lon="4.74969">
        <ele>140.8</ele>
        <time>2021-04-18T07:47:19Z</time>
      </trkpt>
      <trkpt lat="49.80653" lon="4.74956">
        <ele>140.9</ele>
        <time>2021-04-18T07:47:22Z</time>
      </trkpt>
      <trkpt lat="49.80645" lon="4.74947">
        <ele>140.9</ele>
        <time>2021-04-18T07:47:26Z</time>
      </trkpt>
      <trkpt lat="49.80646" lon="4.74939">
        <ele>141</ele>
        <time>2021-04-18T07:47:49Z</time>
      </trkpt>
      <trkpt lat="49.80643" lon="4.74928">
        <ele>141</ele>
        <time>2021-04-18T07:47:52Z</time>
      </trkpt>
      <trkpt lat="49.80641" lon="4.74918">
        <ele>141</ele>
        <time>2021-04-18T07:47:54Z</time>
      </trkpt>
      <trkpt lat="49.80642" lon="4.74908">
        <ele>141</ele>
        <time>2021-04-18T07:47:55Z</time>
      </trkpt>
      <trkpt lat="49.80646" lon="4.74896">
        <ele>141.1</ele>
        <time>2021-04-18T07:47:57Z</time>
      </trkpt>
      <trkpt lat="49.80649" lon="4.74888">
        <ele>141</ele>
        <time>2021-04-18T07:47:58Z</time>
      </trkpt>
      <trkpt lat="49.80653" lon="4.74877">
        <ele>141.1</ele>
        <time>2021-04-18T07:48:00Z</time>
      </trkpt>
      <trkpt lat="49.80656" lon="4.74867">
        <ele>141.1</ele>
        <time>2021-04-18T07:48:02Z</time>
      </trkpt>
      <trkpt lat="49.80661" lon="4.74852">
        <ele>141.1</ele>
        <time>2021-04-18T07:48:05Z</time>
      </trkpt>
      <trkpt lat="49.80667" lon="4.74838">
        <ele>141.1</ele>
        <time>2021-04-18T07:48:08Z</time>
      </trkpt>
      <trkpt lat="49.80673" lon="4.74827">
        <ele>141.1</ele>
        <time>2021-04-18T07:48:10Z</time>
      </trkpt>
      <trkpt lat="49.80678" lon="4.74819">
        <ele>141.1</ele>
        <time>2021-04-18T07:48:12Z</time>
      </trkpt>
      <trkpt lat="49.80683" lon="4.74811">
        <ele>141.2</ele>
        <time>2021-04-18T07:48:14Z</time>
      </trkpt>
      <trkpt lat="49.80689" lon="4.74803">
        <ele>141.2</ele>
        <time>2021-04-18T07:48:16Z</time>
      </trkpt>
      <trkpt lat="49.80696" lon="4.74795">
        <ele>141.2</ele>
        <time>2021-04-18T07:48:18Z</time>
      </trkpt>
      <trkpt lat="49.80705" lon="4.74784">
        <ele>141.2</ele>
        <time>2021-04-18T07:48:21Z</time>
      </trkpt>
      <trkpt lat="49.80715" lon="4.74772">
        <ele>141.2</ele>
        <time>2021-04-18T07:48:24Z</time>
      </trkpt>
      <trkpt lat="49.80722" lon="4.74763">
        <ele>141.3</ele>
        <time>2021-04-18T07:48:27Z</time>
      </trkpt>
      <trkpt lat="49.80728" lon="4.74756">
        <ele>141.3</ele>
        <time>2021-04-18T07:48:29Z</time>
      </trkpt>
      <trkpt lat="49.80733" lon="4.74748">
        <ele>141.2</ele>
        <time>2021-04-18T07:48:31Z</time>
      </trkpt>
      <trkpt lat="49.80737" lon="4.74741">
        <ele>141.2</ele>
        <time>2021-04-18T07:48:33Z</time>
      </trkpt>
      <trkpt lat="49.80744" lon="4.74734">
        <ele>141.2</ele>
        <time>2021-04-18T07:48:35Z</time>
      </trkpt>
      <trkpt lat="49.80751" lon="4.74727">
        <ele>141.2</ele>
        <time>2021-04-18T07:48:37Z</time>
      </trkpt>
      <trkpt lat="49.80755" lon="4.74723">
        <ele>141.2</ele>
        <time>2021-04-18T07:48:38Z</time>
      </trkpt>
      <trkpt lat="49.80762" lon="4.74716">
        <ele>141.3</ele>
        <time>2021-04-18T07:48:40Z</time>
      </trkpt>
      <trkpt lat="49.80769" lon="4.7471">
        <ele>141.4</ele>
        <time>2021-04-18T07:48:42Z</time>
      </trkpt>
      <trkpt lat="49.80777" lon="4.74702">
        <ele>141.4</ele>
        <time>2021-04-18T07:48:44Z</time>
      </trkpt>
      <trkpt lat="49.80781" lon="4.74697">
        <ele>141.4</ele>
        <time>2021-04-18T07:48:45Z</time>
      </trkpt>
      <trkpt lat="49.80788" lon="4.74689">
        <ele>141.4</ele>
        <time>2021-04-18T07:48:47Z</time>
      </trkpt>
      <trkpt lat="49.80798" lon="4.7468">
        <ele>141.4</ele>
        <time>2021-04-18T07:48:50Z</time>
      </trkpt>
      <trkpt lat="49.80804" lon="4.74674">
        <ele>141.4</ele>
        <time>2021-04-18T07:48:52Z</time>
      </trkpt>
      <trkpt lat="49.80809" lon="4.74669">
        <ele>141.4</ele>
        <time>2021-04-18T07:48:54Z</time>
      </trkpt>
      <trkpt lat="49.80816" lon="4.7466">
        <ele>133.2</ele>
        <time>2021-04-18T07:48:57Z</time>
      </trkpt>
      <trkpt lat="49.80823" lon="4.74654">
        <ele>132.2</ele>
        <time>2021-04-18T07:48:59Z</time>
      </trkpt>
      <trkpt lat="49.8083" lon="4.74647">
        <ele>130.2</ele>
        <time>2021-04-18T07:49:01Z</time>
      </trkpt>
      <trkpt lat="49.80836" lon="4.74641">
        <ele>130.8</ele>
        <time>2021-04-18T07:49:03Z</time>
      </trkpt>
      <trkpt lat="49.80846" lon="4.74631">
        <ele>130.8</ele>
        <time>2021-04-18T07:49:06Z</time>
      </trkpt>
      <trkpt lat="49.80851" lon="4.74625">
        <ele>131</ele>
        <time>2021-04-18T07:49:08Z</time>
      </trkpt>
      <trkpt lat="49.8086" lon="4.74616">
        <ele>130.8</ele>
        <time>2021-04-18T07:49:11Z</time>
      </trkpt>
      <trkpt lat="49.80869" lon="4.74609">
        <ele>129.5</ele>
        <time>2021-04-18T07:49:13Z</time>
      </trkpt>
      <trkpt lat="49.80873" lon="4.74606">
        <ele>130</ele>
        <time>2021-04-18T07:49:14Z</time>
      </trkpt>
      <trkpt lat="49.80882" lon="4.74598">
        <ele>129.1</ele>
        <time>2021-04-18T07:49:17Z</time>
      </trkpt>
      <trkpt lat="49.80887" lon="4.74591">
        <ele>127.7</ele>
        <time>2021-04-18T07:49:19Z</time>
      </trkpt>
      <trkpt lat="49.80891" lon="4.74585">
        <ele>132.4</ele>
        <time>2021-04-18T07:49:21Z</time>
      </trkpt>
      <trkpt lat="49.80896" lon="4.74579">
        <ele>138.4</ele>
        <time>2021-04-18T07:49:23Z</time>
      </trkpt>
      <trkpt lat="49.80904" lon="4.74572">
        <ele>140.1</ele>
        <time>2021-04-18T07:49:26Z</time>
      </trkpt>
      <trkpt lat="49.8091" lon="4.74566">
        <ele>142</ele>
        <time>2021-04-18T07:49:28Z</time>
      </trkpt>
      <trkpt lat="49.80919" lon="4.74559">
        <ele>143.5</ele>
        <time>2021-04-18T07:49:31Z</time>
      </trkpt>
      <trkpt lat="49.80925" lon="4.74553">
        <ele>145.8</ele>
        <time>2021-04-18T07:49:33Z</time>
      </trkpt>
      <trkpt lat="49.80931" lon="4.74549">
        <ele>148</ele>
        <time>2021-04-18T07:49:35Z</time>
      </trkpt>
      <trkpt lat="49.80936" lon="4.74544">
        <ele>148.7</ele>
        <time>2021-04-18T07:49:37Z</time>
      </trkpt>
      <trkpt lat="49.8094" lon="4.7454">
        <ele>149.1</ele>
        <time>2021-04-18T07:49:39Z</time>
      </trkpt>
      <trkpt lat="49.81062" lon="4.74463">
        <ele>149.3</ele>
        <time>2021-04-18T07:50:15Z</time>
      </trkpt>
      <trkpt lat="49.81069" lon="4.74459">
        <ele>148.5</ele>
        <time>2021-04-18T07:50:17Z</time>
      </trkpt>
      <trkpt lat="49.81078" lon="4.74453">
        <ele>148.3</ele>
        <time>2021-04-18T07:50:20Z</time>
      </trkpt>
      <trkpt lat="49.81086" lon="4.74447">
        <ele>150.6</ele>
        <time>2021-04-18T07:50:23Z</time>
      </trkpt>
      <trkpt lat="49.8109" lon="4.74444">
        <ele>147.8</ele>
        <time>2021-04-18T07:50:25Z</time>
      </trkpt>
      <trkpt lat="49.811" lon="4.74438">
        <ele>147.3</ele>
        <time>2021-04-18T07:50:28Z</time>
      </trkpt>
      <trkpt lat="49.81161" lon="4.74386">
        <ele>147.5</ele>
        <time>2021-04-18T07:50:47Z</time>
      </trkpt>
      <trkpt lat="49.81168" lon="4.7438">
        <ele>149.5</ele>
        <time>2021-04-18T07:50:49Z</time>
      </trkpt>
      <trkpt lat="49.81174" lon="4.74376">
        <ele>150.1</ele>
        <time>2021-04-18T07:50:51Z</time>
      </trkpt>
      <trkpt lat="49.81181" lon="4.74372">
        <ele>148.4</ele>
        <time>2021-04-18T07:50:53Z</time>
      </trkpt>
      <trkpt lat="49.81187" lon="4.7437">
        <ele>148.3</ele>
        <time>2021-04-18T07:50:54Z</time>
      </trkpt>
      <trkpt lat="49.81192" lon="4.74369">
        <ele>146.7</ele>
        <time>2021-04-18T07:50:56Z</time>
      </trkpt>
      <trkpt lat="49.81198" lon="4.74368">
        <ele>149.1</ele>
        <time>2021-04-18T07:50:57Z</time>
      </trkpt>
      <trkpt lat="49.81203" lon="4.74366">
        <ele>147.6</ele>
        <time>2021-04-18T07:50:58Z</time>
      </trkpt>
      <trkpt lat="49.8123" lon="4.74359">
        <ele>148</ele>
        <time>2021-04-18T07:51:06Z</time>
      </trkpt>
      <trkpt lat="49.81236" lon="4.74358">
        <ele>148.9</ele>
        <time>2021-04-18T07:51:08Z</time>
      </trkpt>
      <trkpt lat="49.81243" lon="4.74354">
        <ele>149.9</ele>
        <time>2021-04-18T07:51:10Z</time>
      </trkpt>
      <trkpt lat="49.81249" lon="4.7435">
        <ele>149.7</ele>
        <time>2021-04-18T07:51:12Z</time>
      </trkpt>
      <trkpt lat="49.81255" lon="4.74348">
        <ele>152.4</ele>
        <time>2021-04-18T07:51:13Z</time>
      </trkpt>
      <trkpt lat="49.8126" lon="4.74345">
        <ele>150.7</ele>
        <time>2021-04-18T07:51:15Z</time>
      </trkpt>
      <trkpt lat="49.81282" lon="4.74344">
        <ele>157.2</ele>
        <time>2021-04-18T07:51:23Z</time>
      </trkpt>
      <trkpt lat="49.81288" lon="4.7435">
        <ele>158</ele>
        <time>2021-04-18T07:51:25Z</time>
      </trkpt>
      <trkpt lat="49.81297" lon="4.74356">
        <ele>161.2</ele>
        <time>2021-04-18T07:51:30Z</time>
      </trkpt>
      <trkpt lat="49.81305" lon="4.74361">
        <ele>163</ele>
        <time>2021-04-18T07:51:32Z</time>
      </trkpt>
      <trkpt lat="49.81309" lon="4.74364">
        <ele>161.2</ele>
        <time>2021-04-18T07:51:34Z</time>
      </trkpt>
      <trkpt lat="49.81315" lon="4.74368">
        <ele>164.4</ele>
        <time>2021-04-18T07:51:35Z</time>
      </trkpt>
      <trkpt lat="49.81321" lon="4.74371">
        <ele>164.5</ele>
        <time>2021-04-18T07:51:36Z</time>
      </trkpt>
      <trkpt lat="49.81328" lon="4.74374">
        <ele>163</ele>
        <time>2021-04-18T07:51:38Z</time>
      </trkpt>
      <trkpt lat="49.81333" lon="4.74377">
        <ele>163.3</ele>
        <time>2021-04-18T07:51:39Z</time>
      </trkpt>
      <trkpt lat="49.81338" lon="4.74381">
        <ele>163.7</ele>
        <time>2021-04-18T07:51:41Z</time>
      </trkpt>
      <trkpt lat="49.81347" lon="4.74386">
        <ele>163.8</ele>
        <time>2021-04-18T07:51:43Z</time>
      </trkpt>
      <trkpt lat="49.81359" lon="4.74394">
        <ele>166</ele>
        <time>2021-04-18T07:51:46Z</time>
      </trkpt>
      <trkpt lat="49.81367" lon="4.744">
        <ele>167.6</ele>
        <time>2021-04-18T07:51:48Z</time>
      </trkpt>
      <trkpt lat="49.81371" lon="4.74403">
        <ele>167.2</ele>
        <time>2021-04-18T07:51:49Z</time>
      </trkpt>
      <trkpt lat="49.81378" lon="4.74407">
        <ele>165.9</ele>
        <time>2021-04-18T07:51:51Z</time>
      </trkpt>
      <trkpt lat="49.81383" lon="4.7441">
        <ele>167.6</ele>
        <time>2021-04-18T07:51:52Z</time>
      </trkpt>
      <trkpt lat="49.81388" lon="4.74412">
        <ele>168.5</ele>
        <time>2021-04-18T07:51:54Z</time>
      </trkpt>
      <trkpt lat="49.81395" lon="4.74415">
        <ele>170.5</ele>
        <time>2021-04-18T07:51:56Z</time>
      </trkpt>
      <trkpt lat="49.81401" lon="4.74417">
        <ele>171</ele>
        <time>2021-04-18T07:51:58Z</time>
      </trkpt>
      <trkpt lat="49.81408" lon="4.74418">
        <ele>169.2</ele>
        <time>2021-04-18T07:52:00Z</time>
      </trkpt>
      <trkpt lat="49.81415" lon="4.74417">
        <ele>171</ele>
        <time>2021-04-18T07:52:02Z</time>
      </trkpt>
      <trkpt lat="49.81421" lon="4.74417">
        <ele>167.8</ele>
        <time>2021-04-18T07:52:03Z</time>
      </trkpt>
      <trkpt lat="49.81428" lon="4.74417">
        <ele>167.9</ele>
        <time>2021-04-18T07:52:04Z</time>
      </trkpt>
      <trkpt lat="49.81434" lon="4.74417">
        <ele>167.3</ele>
        <time>2021-04-18T07:52:06Z</time>
      </trkpt>
      <trkpt lat="49.81442" lon="4.74416">
        <ele>166</ele>
        <time>2021-04-18T07:52:08Z</time>
      </trkpt>
      <trkpt lat="49.81451" lon="4.74414">
        <ele>165.5</ele>
        <time>2021-04-18T07:52:10Z</time>
      </trkpt>
      <trkpt lat="49.81456" lon="4.74412">
        <ele>164.9</ele>
        <time>2021-04-18T07:52:11Z</time>
      </trkpt>
      <trkpt lat="49.81462" lon="4.74409">
        <ele>164.2</ele>
        <time>2021-04-18T07:52:12Z</time>
      </trkpt>
      <trkpt lat="49.81468" lon="4.74403">
        <ele>161.8</ele>
        <time>2021-04-18T07:52:14Z</time>
      </trkpt>
      <trkpt lat="49.81475" lon="4.74396">
        <ele>161.1</ele>
        <time>2021-04-18T07:52:16Z</time>
      </trkpt>
      <trkpt lat="49.8148" lon="4.74387">
        <ele>160.1</ele>
        <time>2021-04-18T07:52:18Z</time>
      </trkpt>
      <trkpt lat="49.81485" lon="4.74379">
        <ele>157.5</ele>
        <time>2021-04-18T07:52:20Z</time>
      </trkpt>
      <trkpt lat="49.8149" lon="4.74371">
        <ele>158.7</ele>
        <time>2021-04-18T07:52:22Z</time>
      </trkpt>
      <trkpt lat="49.81494" lon="4.74365">
        <ele>159.5</ele>
        <time>2021-04-18T07:52:23Z</time>
      </trkpt>
      <trkpt lat="49.81501" lon="4.74357">
        <ele>153</ele>
        <time>2021-04-18T07:52:26Z</time>
      </trkpt>
      <trkpt lat="49.81508" lon="4.74353">
        <ele>153.4</ele>
        <time>2021-04-18T07:52:28Z</time>
      </trkpt>
      <trkpt lat="49.81512" lon="4.74351">
        <ele>157.3</ele>
        <time>2021-04-18T07:52:29Z</time>
      </trkpt>
      <trkpt lat="49.81521" lon="4.74346">
        <ele>157</ele>
        <time>2021-04-18T07:52:32Z</time>
      </trkpt>
      <trkpt lat="49.81578" lon="4.74336">
        <ele>159.4</ele>
        <time>2021-04-18T07:52:50Z</time>
      </trkpt>
      <trkpt lat="49.81583" lon="4.74334">
        <ele>159.5</ele>
        <time>2021-04-18T07:52:52Z</time>
      </trkpt>
      <trkpt lat="49.81588" lon="4.74325">
        <ele>161.4</ele>
        <time>2021-04-18T07:52:54Z</time>
      </trkpt>
      <trkpt lat="49.81593" lon="4.74316">
        <ele>162.4</ele>
        <time>2021-04-18T07:52:56Z</time>
      </trkpt>
      <trkpt lat="49.81595" lon="4.74306">
        <ele>162.1</ele>
        <time>2021-04-18T07:52:58Z</time>
      </trkpt>
      <trkpt lat="49.81599" lon="4.74296">
        <ele>159.6</ele>
        <time>2021-04-18T07:53:00Z</time>
      </trkpt>
      <trkpt lat="49.81602" lon="4.74284">
        <ele>159.6</ele>
        <time>2021-04-18T07:53:03Z</time>
      </trkpt>
      <trkpt lat="49.81609" lon="4.7427">
        <ele>158.3</ele>
        <time>2021-04-18T07:53:05Z</time>
      </trkpt>
      <trkpt lat="49.81611" lon="4.74262">
        <ele>155.9</ele>
        <time>2021-04-18T07:53:07Z</time>
      </trkpt>
      <trkpt lat="49.81612" lon="4.74249">
        <ele>155.5</ele>
        <time>2021-04-18T07:53:11Z</time>
      </trkpt>
      <trkpt lat="49.81613" lon="4.74238">
        <ele>154.6</ele>
        <time>2021-04-18T07:53:14Z</time>
      </trkpt>
      <trkpt lat="49.81615" lon="4.7423">
        <ele>155.2</ele>
        <time>2021-04-18T07:53:16Z</time>
      </trkpt>
      <trkpt lat="49.81615" lon="4.74223">
        <ele>153.8</ele>
        <time>2021-04-18T07:53:18Z</time>
      </trkpt>
      <trkpt lat="49.81617" lon="4.74216">
        <ele>154.5</ele>
        <time>2021-04-18T07:53:20Z</time>
      </trkpt>
      <trkpt lat="49.81619" lon="4.74208">
        <ele>154.6</ele>
        <time>2021-04-18T07:53:22Z</time>
      </trkpt>
      <trkpt lat="49.81622" lon="4.74196">
        <ele>154.1</ele>
        <time>2021-04-18T07:53:25Z</time>
      </trkpt>
      <trkpt lat="49.81624" lon="4.74188">
        <ele>156.4</ele>
        <time>2021-04-18T07:53:27Z</time>
      </trkpt>
      <trkpt lat="49.81625" lon="4.74181">
        <ele>152.9</ele>
        <time>2021-04-18T07:53:29Z</time>
      </trkpt>
      <trkpt lat="49.81626" lon="4.74172">
        <ele>152.8</ele>
        <time>2021-04-18T07:53:31Z</time>
      </trkpt>
      <trkpt lat="49.81628" lon="4.74159">
        <ele>152</ele>
        <time>2021-04-18T07:53:34Z</time>
      </trkpt>
      <trkpt lat="49.8163" lon="4.74148">
        <ele>151.2</ele>
        <time>2021-04-18T07:53:36Z</time>
      </trkpt>
      <trkpt lat="49.81631" lon="4.74137">
        <ele>150.1</ele>
        <time>2021-04-18T07:53:38Z</time>
      </trkpt>
      <trkpt lat="49.81633" lon="4.74128">
        <ele>149.7</ele>
        <time>2021-04-18T07:53:40Z</time>
      </trkpt>
      <trkpt lat="49.81635" lon="4.7412">
        <ele>149.3</ele>
        <time>2021-04-18T07:53:42Z</time>
      </trkpt>
      <trkpt lat="49.81637" lon="4.74108">
        <ele>147.6</ele>
        <time>2021-04-18T07:53:45Z</time>
      </trkpt>
      <trkpt lat="49.81639" lon="4.74096">
        <ele>144.4</ele>
        <time>2021-04-18T07:53:48Z</time>
      </trkpt>
      <trkpt lat="49.81641" lon="4.7408">
        <ele>144.3</ele>
        <time>2021-04-18T07:53:51Z</time>
      </trkpt>
      <trkpt lat="49.81643" lon="4.74072">
        <ele>145.1</ele>
        <time>2021-04-18T07:53:54Z</time>
      </trkpt>
      <trkpt lat="49.81644" lon="4.74064">
        <ele>144.4</ele>
        <time>2021-04-18T07:53:56Z</time>
      </trkpt>
      <trkpt lat="49.81646" lon="4.74056">
        <ele>142</ele>
        <time>2021-04-18T07:53:59Z</time>
      </trkpt>
      <trkpt lat="49.81647" lon="4.74049">
        <ele>142.8</ele>
        <time>2021-04-18T07:54:01Z</time>
      </trkpt>
      <trkpt lat="49.81654" lon="4.74037">
        <ele>142.4</ele>
        <time>2021-04-18T07:54:03Z</time>
      </trkpt>
      <trkpt lat="49.81663" lon="4.74029">
        <ele>143.1</ele>
        <time>2021-04-18T07:54:05Z</time>
      </trkpt>
      <trkpt lat="49.81674" lon="4.74027">
        <ele>144.7</ele>
        <time>2021-04-18T07:54:07Z</time>
      </trkpt>
      <trkpt lat="49.81682" lon="4.74029">
        <ele>144.2</ele>
        <time>2021-04-18T07:54:09Z</time>
      </trkpt>
      <trkpt lat="49.81688" lon="4.74031">
        <ele>143.5</ele>
        <time>2021-04-18T07:54:11Z</time>
      </trkpt>
      <trkpt lat="49.81698" lon="4.7403">
        <ele>143.4</ele>
        <time>2021-04-18T07:54:13Z</time>
      </trkpt>
      <trkpt lat="49.81702" lon="4.74025">
        <ele>144.9</ele>
        <time>2021-04-18T07:54:14Z</time>
      </trkpt>
      <trkpt lat="49.81709" lon="4.74012">
        <ele>144.4</ele>
        <time>2021-04-18T07:54:16Z</time>
      </trkpt>
      <trkpt lat="49.81715" lon="4.74004">
        <ele>145.7</ele>
        <time>2021-04-18T07:54:19Z</time>
      </trkpt>
      <trkpt lat="49.81717" lon="4.73996">
        <ele>145.5</ele>
        <time>2021-04-18T07:54:20Z</time>
      </trkpt>
      <trkpt lat="49.81727" lon="4.73975">
        <ele>148.6</ele>
        <time>2021-04-18T07:54:27Z</time>
      </trkpt>
      <trkpt lat="49.81731" lon="4.73973">
        <ele>151.2</ele>
        <time>2021-04-18T07:54:30Z</time>
      </trkpt>
      <trkpt lat="49.8177" lon="4.73933">
        <ele>151.7</ele>
        <time>2021-04-18T07:54:51Z</time>
      </trkpt>
      <trkpt lat="49.81773" lon="4.73921">
        <ele>152.5</ele>
        <time>2021-04-18T07:54:55Z</time>
      </trkpt>
      <trkpt lat="49.81777" lon="4.73915">
        <ele>155.6</ele>
        <time>2021-04-18T07:54:57Z</time>
      </trkpt>
      <trkpt lat="49.81781" lon="4.73907">
        <ele>154.4</ele>
        <time>2021-04-18T07:55:00Z</time>
      </trkpt>
      <trkpt lat="49.81784" lon="4.73901">
        <ele>154.8</ele>
        <time>2021-04-18T07:55:04Z</time>
      </trkpt>
      <trkpt lat="49.81787" lon="4.73892">
        <ele>157.5</ele>
        <time>2021-04-18T07:55:08Z</time>
      </trkpt>
      <trkpt lat="49.81788" lon="4.73884">
        <ele>156.5</ele>
        <time>2021-04-18T07:55:23Z</time>
      </trkpt>
      <trkpt lat="49.8179" lon="4.73874">
        <ele>156.4</ele>
        <time>2021-04-18T07:55:26Z</time>
      </trkpt>
      <trkpt lat="49.81792" lon="4.73864">
        <ele>156.5</ele>
        <time>2021-04-18T07:55:29Z</time>
      </trkpt>
      <trkpt lat="49.81794" lon="4.73853">
        <ele>156.5</ele>
        <time>2021-04-18T07:55:32Z</time>
      </trkpt>
      <trkpt lat="49.81797" lon="4.73843">
        <ele>156.5</ele>
        <time>2021-04-18T07:55:34Z</time>
      </trkpt>
      <trkpt lat="49.818" lon="4.73832">
        <ele>156.5</ele>
        <time>2021-04-18T07:55:38Z</time>
      </trkpt>
      <trkpt lat="49.81802" lon="4.73819">
        <ele>156.4</ele>
        <time>2021-04-18T07:55:41Z</time>
      </trkpt>
      <trkpt lat="49.81803" lon="4.73812">
        <ele>156.5</ele>
        <time>2021-04-18T07:55:43Z</time>
      </trkpt>
      <trkpt lat="49.81806" lon="4.73804">
        <ele>156.5</ele>
        <time>2021-04-18T07:55:45Z</time>
      </trkpt>
      <trkpt lat="49.81809" lon="4.73794">
        <ele>156.5</ele>
        <time>2021-04-18T07:55:47Z</time>
      </trkpt>
      <trkpt lat="49.81811" lon="4.73787">
        <ele>156.5</ele>
        <time>2021-04-18T07:55:49Z</time>
      </trkpt>
      <trkpt lat="49.81815" lon="4.73777">
        <ele>156.5</ele>
        <time>2021-04-18T07:55:52Z</time>
      </trkpt>
      <trkpt lat="49.81818" lon="4.7377">
        <ele>156.6</ele>
        <time>2021-04-18T07:55:55Z</time>
      </trkpt>
      <trkpt lat="49.81819" lon="4.73763">
        <ele>156.6</ele>
        <time>2021-04-18T07:55:57Z</time>
      </trkpt>
      <trkpt lat="49.81822" lon="4.73751">
        <ele>156.6</ele>
        <time>2021-04-18T07:56:02Z</time>
      </trkpt>
      <trkpt lat="49.81825" lon="4.73743">
        <ele>156.6</ele>
        <time>2021-04-18T07:56:05Z</time>
      </trkpt>
      <trkpt lat="49.81827" lon="4.73737">
        <ele>156.6</ele>
        <time>2021-04-18T07:56:08Z</time>
      </trkpt>
      <trkpt lat="49.81831" lon="4.73724">
        <ele>156.8</ele>
        <time>2021-04-18T07:56:15Z</time>
      </trkpt>
      <trkpt lat="49.81833" lon="4.73715">
        <ele>186.1</ele>
        <time>2021-04-18T07:56:19Z</time>
      </trkpt>
      <trkpt lat="49.81856" lon="4.7363">
        <ele>165</ele>
        <time>2021-04-18T07:56:43Z</time>
      </trkpt>
      <trkpt lat="49.81857" lon="4.73623">
        <ele>165.3</ele>
        <time>2021-04-18T07:56:45Z</time>
      </trkpt>
      <trkpt lat="49.81859" lon="4.73615">
        <ele>165.5</ele>
        <time>2021-04-18T07:56:50Z</time>
      </trkpt>
      <trkpt lat="49.81871" lon="4.7359">
        <ele>165.4</ele>
        <time>2021-04-18T07:57:00Z</time>
      </trkpt>
      <trkpt lat="49.81869" lon="4.73578">
        <ele>165.9</ele>
        <time>2021-04-18T07:57:40Z</time>
      </trkpt>
      <trkpt lat="49.8189" lon="4.73547">
        <ele>165.8</ele>
        <time>2021-04-18T07:57:58Z</time>
      </trkpt>
      <trkpt lat="49.81893" lon="4.73541">
        <ele>165.8</ele>
        <time>2021-04-18T07:58:01Z</time>
      </trkpt>
      <trkpt lat="49.81906" lon="4.73526">
        <ele>165.9</ele>
        <time>2021-04-18T07:58:10Z</time>
      </trkpt>
      <trkpt lat="49.81911" lon="4.73519">
        <ele>165.9</ele>
        <time>2021-04-18T07:58:14Z</time>
      </trkpt>
      <trkpt lat="49.81915" lon="4.73514">
        <ele>165.8</ele>
        <time>2021-04-18T07:58:18Z</time>
      </trkpt>
      <trkpt lat="49.81919" lon="4.73507">
        <ele>165.8</ele>
        <time>2021-04-18T07:58:22Z</time>
      </trkpt>
      <trkpt lat="49.81937" lon="4.73439">
        <ele>203.1</ele>
        <time>2021-04-18T07:58:47Z</time>
      </trkpt>
      <trkpt lat="49.8194" lon="4.73429">
        <ele>205.7</ele>
        <time>2021-04-18T07:58:50Z</time>
      </trkpt>
      <trkpt lat="49.81942" lon="4.73421">
        <ele>203.9</ele>
        <time>2021-04-18T07:58:54Z</time>
      </trkpt>
      <trkpt lat="49.81944" lon="4.73414">
        <ele>208.1</ele>
        <time>2021-04-18T07:58:56Z</time>
      </trkpt>
      <trkpt lat="49.81946" lon="4.73407">
        <ele>203.6</ele>
        <time>2021-04-18T07:58:58Z</time>
      </trkpt>
      <trkpt lat="49.81948" lon="4.734">
        <ele>203.9</ele>
        <time>2021-04-18T07:59:00Z</time>
      </trkpt>
      <trkpt lat="49.81951" lon="4.73392">
        <ele>198.5</ele>
        <time>2021-04-18T07:59:03Z</time>
      </trkpt>
      <trkpt lat="49.81977" lon="4.73268">
        <ele>198.4</ele>
        <time>2021-04-18T07:59:41Z</time>
      </trkpt>
      <trkpt lat="49.81979" lon="4.73256">
        <ele>198.3</ele>
        <time>2021-04-18T07:59:47Z</time>
      </trkpt>
      <trkpt lat="49.81987" lon="4.73216">
        <ele>198.2</ele>
        <time>2021-04-18T07:59:52Z</time>
      </trkpt>
      <trkpt lat="49.81989" lon="4.73203">
        <ele>198.2</ele>
        <time>2021-04-18T07:59:55Z</time>
      </trkpt>
      <trkpt lat="49.8199" lon="4.73195">
        <ele>198.2</ele>
        <time>2021-04-18T07:59:57Z</time>
      </trkpt>
      <trkpt lat="49.81991" lon="4.73187">
        <ele>198.2</ele>
        <time>2021-04-18T07:59:59Z</time>
      </trkpt>
      <trkpt lat="49.81992" lon="4.73178">
        <ele>215.7</ele>
        <time>2021-04-18T08:00:01Z</time>
      </trkpt>
      <trkpt lat="49.81995" lon="4.73165">
        <ele>212.7</ele>
        <time>2021-04-18T08:00:04Z</time>
      </trkpt>
      <trkpt lat="49.81997" lon="4.73156">
        <ele>213.6</ele>
        <time>2021-04-18T08:00:06Z</time>
      </trkpt>
      <trkpt lat="49.82001" lon="4.73137">
        <ele>216.2</ele>
        <time>2021-04-18T08:00:09Z</time>
      </trkpt>
      <trkpt lat="49.82004" lon="4.73124">
        <ele>211.7</ele>
        <time>2021-04-18T08:00:11Z</time>
      </trkpt>
      <trkpt lat="49.82007" lon="4.73115">
        <ele>215</ele>
        <time>2021-04-18T08:00:13Z</time>
      </trkpt>
      <trkpt lat="49.8201" lon="4.73103">
        <ele>214.5</ele>
        <time>2021-04-18T08:00:16Z</time>
      </trkpt>
      <trkpt lat="49.82011" lon="4.73096">
        <ele>215.3</ele>
        <time>2021-04-18T08:00:18Z</time>
      </trkpt>
      <trkpt lat="49.82013" lon="4.73086">
        <ele>219.5</ele>
        <time>2021-04-18T08:00:21Z</time>
      </trkpt>
      <trkpt lat="49.82016" lon="4.73076">
        <ele>221.1</ele>
        <time>2021-04-18T08:00:24Z</time>
      </trkpt>
      <trkpt lat="49.82018" lon="4.73065">
        <ele>222</ele>
        <time>2021-04-18T08:00:27Z</time>
      </trkpt>
      <trkpt lat="49.82024" lon="4.73028">
        <ele>223.9</ele>
        <time>2021-04-18T08:00:42Z</time>
      </trkpt>
      <trkpt lat="49.82026" lon="4.7302">
        <ele>223</ele>
        <time>2021-04-18T08:00:47Z</time>
      </trkpt>
      <trkpt lat="49.82028" lon="4.73013">
        <ele>219.1</ele>
        <time>2021-04-18T08:00:50Z</time>
      </trkpt>
      <trkpt lat="49.82029" lon="4.73006">
        <ele>219.1</ele>
        <time>2021-04-18T08:00:54Z</time>
      </trkpt>
      <trkpt lat="49.82026" lon="4.73015">
        <ele>219.1</ele>
        <time>2021-04-18T08:00:59Z</time>
      </trkpt>
      <trkpt lat="49.82032" lon="4.72986">
        <ele>219.2</ele>
        <time>2021-04-18T08:01:14Z</time>
      </trkpt>
      <trkpt lat="49.82033" lon="4.72979">
        <ele>220.5</ele>
        <time>2021-04-18T08:01:20Z</time>
      </trkpt>
      <trkpt lat="49.82035" lon="4.72971">
        <ele>218.6</ele>
        <time>2021-04-18T08:01:24Z</time>
      </trkpt>
      <trkpt lat="49.82036" lon="4.72964">
        <ele>211.8</ele>
        <time>2021-04-18T08:01:28Z</time>
      </trkpt>
      <trkpt lat="49.82038" lon="4.72958">
        <ele>205.1</ele>
        <time>2021-04-18T08:01:35Z</time>
      </trkpt>
      <trkpt lat="49.82039" lon="4.7295">
        <ele>203.5</ele>
        <time>2021-04-18T08:01:40Z</time>
      </trkpt>
      <trkpt lat="49.82038" lon="4.72942">
        <ele>203.5</ele>
        <time>2021-04-18T08:01:44Z</time>
      </trkpt>
      <trkpt lat="49.8204" lon="4.72931">
        <ele>203.6</ele>
        <time>2021-04-18T08:01:48Z</time>
      </trkpt>
      <trkpt lat="49.82041" lon="4.72923">
        <ele>203.6</ele>
        <time>2021-04-18T08:01:52Z</time>
      </trkpt>
      <trkpt lat="49.82041" lon="4.72916">
        <ele>203.6</ele>
        <time>2021-04-18T08:01:56Z</time>
      </trkpt>
      <trkpt lat="49.82041" lon="4.72908">
        <ele>203.6</ele>
        <time>2021-04-18T08:01:59Z</time>
      </trkpt>
      <trkpt lat="49.82041" lon="4.72898">
        <ele>203.6</ele>
        <time>2021-04-18T08:02:03Z</time>
      </trkpt>
      <trkpt lat="49.82042" lon="4.72891">
        <ele>203.5</ele>
        <time>2021-04-18T08:02:07Z</time>
      </trkpt>
      <trkpt lat="49.82042" lon="4.72882">
        <ele>203.6</ele>
        <time>2021-04-18T08:02:12Z</time>
      </trkpt>
      <trkpt lat="49.82043" lon="4.72875">
        <ele>203.6</ele>
        <time>2021-04-18T08:02:15Z</time>
      </trkpt>
      <trkpt lat="49.82044" lon="4.72867">
        <ele>203.7</ele>
        <time>2021-04-18T08:02:21Z</time>
      </trkpt>
      <trkpt lat="49.82043" lon="4.72858">
        <ele>203.7</ele>
        <time>2021-04-18T08:02:26Z</time>
      </trkpt>
      <trkpt lat="49.82039" lon="4.72832">
        <ele>203.6</ele>
        <time>2021-04-18T08:02:40Z</time>
      </trkpt>
      <trkpt lat="49.82038" lon="4.72825">
        <ele>203.5</ele>
        <time>2021-04-18T08:02:48Z</time>
      </trkpt>
      <trkpt lat="49.82038" lon="4.72816">
        <ele>203.4</ele>
        <time>2021-04-18T08:02:52Z</time>
      </trkpt>
      <trkpt lat="49.82038" lon="4.72805">
        <ele>203.3</ele>
        <time>2021-04-18T08:02:56Z</time>
      </trkpt>
      <trkpt lat="49.82039" lon="4.72795">
        <ele>203.4</ele>
        <time>2021-04-18T08:02:59Z</time>
      </trkpt>
      <trkpt lat="49.82039" lon="4.72786">
        <ele>203.3</ele>
        <time>2021-04-18T08:03:03Z</time>
      </trkpt>
      <trkpt lat="49.82041" lon="4.72779">
        <ele>203.3</ele>
        <time>2021-04-18T08:03:06Z</time>
      </trkpt>
      <trkpt lat="49.82042" lon="4.72771">
        <ele>203.3</ele>
        <time>2021-04-18T08:03:12Z</time>
      </trkpt>
      <trkpt lat="49.82043" lon="4.72764">
        <ele>263.2</ele>
        <time>2021-04-18T08:03:17Z</time>
      </trkpt>
      <trkpt lat="49.82043" lon="4.72752">
        <ele>263.2</ele>
        <time>2021-04-18T08:03:25Z</time>
      </trkpt>
      <trkpt lat="49.82051" lon="4.72721">
        <ele>263.3</ele>
        <time>2021-04-18T08:03:34Z</time>
      </trkpt>
      <trkpt lat="49.82053" lon="4.72713">
        <ele>263.4</ele>
        <time>2021-04-18T08:03:39Z</time>
      </trkpt>
      <trkpt lat="49.82055" lon="4.72704">
        <ele>263.3</ele>
        <time>2021-04-18T08:03:43Z</time>
      </trkpt>
      <trkpt lat="49.82056" lon="4.72687">
        <ele>263.4</ele>
        <time>2021-04-18T08:03:48Z</time>
      </trkpt>
      <trkpt lat="49.82057" lon="4.72678">
        <ele>263.4</ele>
        <time>2021-04-18T08:03:51Z</time>
      </trkpt>
      <trkpt lat="49.82059" lon="4.7267">
        <ele>263.3</ele>
        <time>2021-04-18T08:03:54Z</time>
      </trkpt>
      <trkpt lat="49.82061" lon="4.72659">
        <ele>263.2</ele>
        <time>2021-04-18T08:03:57Z</time>
      </trkpt>
      <trkpt lat="49.82064" lon="4.72651">
        <ele>263.2</ele>
        <time>2021-04-18T08:04:00Z</time>
      </trkpt>
      <trkpt lat="49.82066" lon="4.72642">
        <ele>263.2</ele>
        <time>2021-04-18T08:04:02Z</time>
      </trkpt>
      <trkpt lat="49.82067" lon="4.72634">
        <ele>263.3</ele>
        <time>2021-04-18T08:04:05Z</time>
      </trkpt>
      <trkpt lat="49.82068" lon="4.72625">
        <ele>263.3</ele>
        <time>2021-04-18T08:04:09Z</time>
      </trkpt>
      <trkpt lat="49.8207" lon="4.72617">
        <ele>263.3</ele>
        <time>2021-04-18T08:04:12Z</time>
      </trkpt>
      <trkpt lat="49.8207" lon="4.72607">
        <ele>283.2</ele>
        <time>2021-04-18T08:04:16Z</time>
      </trkpt>
      <trkpt lat="49.82069" lon="4.72599">
        <ele>279.6</ele>
        <time>2021-04-18T08:04:20Z</time>
      </trkpt>
      <trkpt lat="49.82069" lon="4.72592">
        <ele>279.7</ele>
        <time>2021-04-18T08:04:22Z</time>
      </trkpt>
      <trkpt lat="49.82069" lon="4.72582">
        <ele>278.5</ele>
        <time>2021-04-18T08:04:26Z</time>
      </trkpt>
      <trkpt lat="49.8207" lon="4.72573">
        <ele>281.5</ele>
        <time>2021-04-18T08:04:31Z</time>
      </trkpt>
      <trkpt lat="49.82075" lon="4.72541">
        <ele>279.8</ele>
        <time>2021-04-18T08:04:41Z</time>
      </trkpt>
      <trkpt lat="49.82076" lon="4.72533">
        <ele>281.1</ele>
        <time>2021-04-18T08:04:44Z</time>
      </trkpt>
      <trkpt lat="49.82078" lon="4.72523">
        <ele>278.6</ele>
        <time>2021-04-18T08:04:48Z</time>
      </trkpt>
      <trkpt lat="49.82081" lon="4.72505">
        <ele>278.2</ele>
        <time>2021-04-18T08:04:56Z</time>
      </trkpt>
      <trkpt lat="49.82082" lon="4.72498">
        <ele>275.5</ele>
        <time>2021-04-18T08:04:59Z</time>
      </trkpt>
      <trkpt lat="49.82107" lon="4.72349">
        <ele>282.9</ele>
        <time>2021-04-18T08:05:54Z</time>
      </trkpt>
      <trkpt lat="49.82109" lon="4.72339">
        <ele>280.9</ele>
        <time>2021-04-18T08:05:57Z</time>
      </trkpt>
      <trkpt lat="49.8212" lon="4.72311">
        <ele>276.3</ele>
        <time>2021-04-18T08:06:08Z</time>
      </trkpt>
      <trkpt lat="49.82121" lon="4.72172">
        <ele>271.4</ele>
        <time>2021-04-18T08:06:58Z</time>
      </trkpt>
      <trkpt lat="49.82115" lon="4.72132">
        <ele>270.7</ele>
        <time>2021-04-18T08:07:11Z</time>
      </trkpt>
      <trkpt lat="49.82114" lon="4.72124">
        <ele>270.9</ele>
        <time>2021-04-18T08:07:15Z</time>
      </trkpt>
      <trkpt lat="49.82114" lon="4.72117">
        <ele>272.1</ele>
        <time>2021-04-18T08:07:19Z</time>
      </trkpt>
      <trkpt lat="49.82113" lon="4.72106">
        <ele>275.1</ele>
        <time>2021-04-18T08:07:23Z</time>
      </trkpt>
      <trkpt lat="49.8211" lon="4.72097">
        <ele>278.6</ele>
        <time>2021-04-18T08:07:27Z</time>
      </trkpt>
      <trkpt lat="49.82106" lon="4.72087">
        <ele>284.3</ele>
        <time>2021-04-18T08:07:32Z</time>
      </trkpt>
      <trkpt lat="49.82104" lon="4.72081">
        <ele>283.2</ele>
        <time>2021-04-18T08:07:34Z</time>
      </trkpt>
      <trkpt lat="49.82102" lon="4.72075">
        <ele>281.3</ele>
        <time>2021-04-18T08:07:38Z</time>
      </trkpt>
      <trkpt lat="49.821" lon="4.72068">
        <ele>284.9</ele>
        <time>2021-04-18T08:07:41Z</time>
      </trkpt>
      <trkpt lat="49.82099" lon="4.72061">
        <ele>290.2</ele>
        <time>2021-04-18T08:07:43Z</time>
      </trkpt>
      <trkpt lat="49.82096" lon="4.72041">
        <ele>289.5</ele>
        <time>2021-04-18T08:07:51Z</time>
      </trkpt>
      <trkpt lat="49.82096" lon="4.72031">
        <ele>293.2</ele>
        <time>2021-04-18T08:08:55Z</time>
      </trkpt>
      <trkpt lat="49.82097" lon="4.72024">
        <ele>296.9</ele>
        <time>2021-04-18T08:08:58Z</time>
      </trkpt>
      <trkpt lat="49.82097" lon="4.72016">
        <ele>297.7</ele>
        <time>2021-04-18T08:09:02Z</time>
      </trkpt>
      <trkpt lat="49.82097" lon="4.72009">
        <ele>302.4</ele>
        <time>2021-04-18T08:09:06Z</time>
      </trkpt>
      <trkpt lat="49.82099" lon="4.72003">
        <ele>298.5</ele>
        <time>2021-04-18T08:09:19Z</time>
      </trkpt>
      <trkpt lat="49.821" lon="4.71996">
        <ele>301</ele>
        <time>2021-04-18T08:09:22Z</time>
      </trkpt>
      <trkpt lat="49.82104" lon="4.71991">
        <ele>299.4</ele>
        <time>2021-04-18T08:09:25Z</time>
      </trkpt>
      <trkpt lat="49.82109" lon="4.71985">
        <ele>299</ele>
        <time>2021-04-18T08:09:28Z</time>
      </trkpt>
      <trkpt lat="49.82113" lon="4.71983">
        <ele>299</ele>
        <time>2021-04-18T08:09:32Z</time>
      </trkpt>
      <trkpt lat="49.82117" lon="4.71987">
        <ele>298.9</ele>
        <time>2021-04-18T08:09:38Z</time>
      </trkpt>
      <trkpt lat="49.82122" lon="4.71989">
        <ele>298.5</ele>
        <time>2021-04-18T08:09:41Z</time>
      </trkpt>
      <trkpt lat="49.82128" lon="4.71993">
        <ele>299.6</ele>
        <time>2021-04-18T08:09:48Z</time>
      </trkpt>
      <trkpt lat="49.82153" lon="4.72021">
        <ele>303.2</ele>
        <time>2021-04-18T08:09:58Z</time>
      </trkpt>
      <trkpt lat="49.82155" lon="4.72029">
        <ele>309.3</ele>
        <time>2021-04-18T08:11:39Z</time>
      </trkpt>
      <trkpt lat="49.8216" lon="4.72032">
        <ele>307.7</ele>
        <time>2021-04-18T08:12:42Z</time>
      </trkpt>
      <trkpt lat="49.82163" lon="4.72039">
        <ele>312.1</ele>
        <time>2021-04-18T08:12:46Z</time>
      </trkpt>
      <trkpt lat="49.82169" lon="4.72046">
        <ele>312.3</ele>
        <time>2021-04-18T08:12:56Z</time>
      </trkpt>
      <trkpt lat="49.8217" lon="4.72054">
        <ele>310</ele>
        <time>2021-04-18T08:13:22Z</time>
      </trkpt>
      <trkpt lat="49.82175" lon="4.72063">
        <ele>311.5</ele>
        <time>2021-04-18T08:13:25Z</time>
      </trkpt>
      <trkpt lat="49.82231" lon="4.72235">
        <ele>316.8</ele>
        <time>2021-04-18T08:14:11Z</time>
      </trkpt>
      <trkpt lat="49.82233" lon="4.72242">
        <ele>321.3</ele>
        <time>2021-04-18T08:14:14Z</time>
      </trkpt>
      <trkpt lat="49.82237" lon="4.72252">
        <ele>180.9</ele>
        <time>2021-04-18T08:15:11Z</time>
      </trkpt>
      <trkpt lat="49.82239" lon="4.72258">
        <ele>180.9</ele>
        <time>2021-04-18T08:15:13Z</time>
      </trkpt>
      <trkpt lat="49.82243" lon="4.72266">
        <ele>180.9</ele>
        <time>2021-04-18T08:15:16Z</time>
      </trkpt>
      <trkpt lat="49.82248" lon="4.72295">
        <ele>181</ele>
        <time>2021-04-18T08:15:25Z</time>
      </trkpt>
      <trkpt lat="49.8225" lon="4.72302">
        <ele>181</ele>
        <time>2021-04-18T08:15:26Z</time>
      </trkpt>
      <trkpt lat="49.82274" lon="4.72357">
        <ele>180.7</ele>
        <time>2021-04-18T08:15:48Z</time>
      </trkpt>
      <trkpt lat="49.82277" lon="4.72366">
        <ele>317.9</ele>
        <time>2021-04-18T08:15:51Z</time>
      </trkpt>
      <trkpt lat="49.82278" lon="4.72372">
        <ele>317.4</ele>
        <time>2021-04-18T08:15:53Z</time>
      </trkpt>
      <trkpt lat="49.82281" lon="4.72381">
        <ele>316.7</ele>
        <time>2021-04-18T08:15:56Z</time>
      </trkpt>
      <trkpt lat="49.82284" lon="4.72393">
        <ele>317</ele>
        <time>2021-04-18T08:16:00Z</time>
      </trkpt>
      <trkpt lat="49.82285" lon="4.72404">
        <ele>316.8</ele>
        <time>2021-04-18T08:16:03Z</time>
      </trkpt>
      <trkpt lat="49.8229" lon="4.72456">
        <ele>323.1</ele>
        <time>2021-04-18T08:16:22Z</time>
      </trkpt>
      <trkpt lat="49.8229" lon="4.72466">
        <ele>326.6</ele>
        <time>2021-04-18T08:16:27Z</time>
      </trkpt>
      <trkpt lat="49.82294" lon="4.72519">
        <ele>334.4</ele>
        <time>2021-04-18T08:16:40Z</time>
      </trkpt>
      <trkpt lat="49.82294" lon="4.72527">
        <ele>323.2</ele>
        <time>2021-04-18T08:16:42Z</time>
      </trkpt>
      <trkpt lat="49.82294" lon="4.72534">
        <ele>330.6</ele>
        <time>2021-04-18T08:16:43Z</time>
      </trkpt>
      <trkpt lat="49.82294" lon="4.72544">
        <ele>325.8</ele>
        <time>2021-04-18T08:16:46Z</time>
      </trkpt>
      <trkpt lat="49.82295" lon="4.72552">
        <ele>331.6</ele>
        <time>2021-04-18T08:16:47Z</time>
      </trkpt>
      <trkpt lat="49.82296" lon="4.72561">
        <ele>327.8</ele>
        <time>2021-04-18T08:16:50Z</time>
      </trkpt>
      <trkpt lat="49.82297" lon="4.72569">
        <ele>328.1</ele>
        <time>2021-04-18T08:16:52Z</time>
      </trkpt>
      <trkpt lat="49.82298" lon="4.72578">
        <ele>328.6</ele>
        <time>2021-04-18T08:16:54Z</time>
      </trkpt>
      <trkpt lat="49.82301" lon="4.72589">
        <ele>329.4</ele>
        <time>2021-04-18T08:16:56Z</time>
      </trkpt>
      <trkpt lat="49.82303" lon="4.72597">
        <ele>330.7</ele>
        <time>2021-04-18T08:16:58Z</time>
      </trkpt>
      <trkpt lat="49.82304" lon="4.72605">
        <ele>331</ele>
        <time>2021-04-18T08:17:00Z</time>
      </trkpt>
      <trkpt lat="49.82306" lon="4.72613">
        <ele>329.7</ele>
        <time>2021-04-18T08:17:04Z</time>
      </trkpt>
      <trkpt lat="49.82327" lon="4.72623">
        <ele>329.3</ele>
        <time>2021-04-18T08:17:23Z</time>
      </trkpt>
      <trkpt lat="49.82328" lon="4.72632">
        <ele>329.4</ele>
        <time>2021-04-18T08:17:24Z</time>
      </trkpt>
      <trkpt lat="49.82328" lon="4.72639">
        <ele>329.6</ele>
        <time>2021-04-18T08:17:29Z</time>
      </trkpt>
      <trkpt lat="49.82332" lon="4.72634">
        <ele>325.9</ele>
        <time>2021-04-18T08:17:39Z</time>
      </trkpt>
      <trkpt lat="49.82338" lon="4.72625">
        <ele>329.1</ele>
        <time>2021-04-18T08:17:49Z</time>
      </trkpt>
      <trkpt lat="49.82355" lon="4.72525">
        <ele>342.8</ele>
        <time>2021-04-18T08:18:35Z</time>
      </trkpt>
      <trkpt lat="49.82356" lon="4.72513">
        <ele>343.9</ele>
        <time>2021-04-18T08:18:38Z</time>
      </trkpt>
      <trkpt lat="49.82402" lon="4.72289">
        <ele>350.9</ele>
        <time>2021-04-18T08:19:24Z</time>
      </trkpt>
      <trkpt lat="49.82405" lon="4.72282">
        <ele>351.4</ele>
        <time>2021-04-18T08:19:26Z</time>
      </trkpt>
      <trkpt lat="49.8241" lon="4.72275">
        <ele>352.5</ele>
        <time>2021-04-18T08:19:29Z</time>
      </trkpt>
      <trkpt lat="49.82415" lon="4.72266">
        <ele>354.5</ele>
        <time>2021-04-18T08:19:33Z</time>
      </trkpt>
      <trkpt lat="49.82425" lon="4.72254">
        <ele>354.3</ele>
        <time>2021-04-18T08:19:38Z</time>
      </trkpt>
      <trkpt lat="49.82429" lon="4.72249">
        <ele>354.7</ele>
        <time>2021-04-18T08:19:41Z</time>
      </trkpt>
      <trkpt lat="49.82437" lon="4.72244">
        <ele>354</ele>
        <time>2021-04-18T08:19:44Z</time>
      </trkpt>
      <trkpt lat="49.82464" lon="4.72229">
        <ele>357.3</ele>
        <time>2021-04-18T08:19:54Z</time>
      </trkpt>
      <trkpt lat="49.82473" lon="4.72221">
        <ele>357.7</ele>
        <time>2021-04-18T08:19:57Z</time>
      </trkpt>
      <trkpt lat="49.8248" lon="4.72217">
        <ele>358.2</ele>
        <time>2021-04-18T08:19:59Z</time>
      </trkpt>
      <trkpt lat="49.82487" lon="4.72213">
        <ele>358.6</ele>
        <time>2021-04-18T08:20:02Z</time>
      </trkpt>
      <trkpt lat="49.82494" lon="4.7221">
        <ele>359.7</ele>
        <time>2021-04-18T08:20:05Z</time>
      </trkpt>
      <trkpt lat="49.825" lon="4.72209">
        <ele>360.1</ele>
        <time>2021-04-18T08:20:08Z</time>
      </trkpt>
      <trkpt lat="49.82505" lon="4.7221">
        <ele>356.8</ele>
        <time>2021-04-18T08:20:11Z</time>
      </trkpt>
      <trkpt lat="49.8251" lon="4.72213">
        <ele>354.7</ele>
        <time>2021-04-18T08:22:21Z</time>
      </trkpt>
      <trkpt lat="49.82511" lon="4.7222">
        <ele>357</ele>
        <time>2021-04-18T08:22:29Z</time>
      </trkpt>
      <trkpt lat="49.82514" lon="4.72214">
        <ele>355.5</ele>
        <time>2021-04-18T08:22:32Z</time>
      </trkpt>
      <trkpt lat="49.82512" lon="4.72206">
        <ele>357.3</ele>
        <time>2021-04-18T08:22:34Z</time>
      </trkpt>
      <trkpt lat="49.82501" lon="4.72181">
        <ele>357.7</ele>
        <time>2021-04-18T08:22:46Z</time>
      </trkpt>
      <trkpt lat="49.82498" lon="4.72176">
        <ele>359.9</ele>
        <time>2021-04-18T08:22:50Z</time>
      </trkpt>
      <trkpt lat="49.82498" lon="4.72168">
        <ele>358.9</ele>
        <time>2021-04-18T08:22:55Z</time>
      </trkpt>
      <trkpt lat="49.82316" lon="4.72161">
        <ele>347</ele>
        <time>2021-04-18T08:23:45Z</time>
      </trkpt>
      <trkpt lat="49.82312" lon="4.72152">
        <ele>345.3</ele>
        <time>2021-04-18T08:23:51Z</time>
      </trkpt>
      <trkpt lat="49.82273" lon="4.72142">
        <ele>340.7</ele>
        <time>2021-04-18T08:24:07Z</time>
      </trkpt>
      <trkpt lat="49.82269" lon="4.7214">
        <ele>336.8</ele>
        <time>2021-04-18T08:24:12Z</time>
      </trkpt>
      <trkpt lat="49.82265" lon="4.72147">
        <ele>337.6</ele>
        <time>2021-04-18T08:24:16Z</time>
      </trkpt>
      <trkpt lat="49.82262" lon="4.7214">
        <ele>333.1</ele>
        <time>2021-04-18T08:24:21Z</time>
      </trkpt>
      <trkpt lat="49.82253" lon="4.7213">
        <ele>327.9</ele>
        <time>2021-04-18T08:24:29Z</time>
      </trkpt>
      <trkpt lat="49.82249" lon="4.72127">
        <ele>327</ele>
        <time>2021-04-18T08:24:42Z</time>
      </trkpt>
      <trkpt lat="49.82246" lon="4.72121">
        <ele>319.1</ele>
        <time>2021-04-18T08:24:50Z</time>
      </trkpt>
      <trkpt lat="49.82244" lon="4.72114">
        <ele>324.9</ele>
        <time>2021-04-18T08:24:54Z</time>
      </trkpt>
      <trkpt lat="49.82245" lon="4.72104">
        <ele>325.8</ele>
        <time>2021-04-18T08:24:59Z</time>
      </trkpt>
      <trkpt lat="49.82245" lon="4.72096">
        <ele>328.1</ele>
        <time>2021-04-18T08:25:06Z</time>
      </trkpt>
      <trkpt lat="49.82235" lon="4.72104">
        <ele>327.4</ele>
        <time>2021-04-18T08:28:10Z</time>
      </trkpt>
      <trkpt lat="49.82235" lon="4.72097">
        <ele>326.1</ele>
        <time>2021-04-18T08:28:25Z</time>
      </trkpt>
      <trkpt lat="49.8222" lon="4.72085">
        <ele>327.2</ele>
        <time>2021-04-18T08:28:40Z</time>
      </trkpt>
      <trkpt lat="49.82216" lon="4.72088">
        <ele>324.9</ele>
        <time>2021-04-18T08:29:06Z</time>
      </trkpt>
      <trkpt lat="49.8221" lon="4.72089">
        <ele>325.9</ele>
        <time>2021-04-18T08:29:08Z</time>
      </trkpt>
      <trkpt lat="49.82204" lon="4.72086">
        <ele>324.6</ele>
        <time>2021-04-18T08:29:26Z</time>
      </trkpt>
      <trkpt lat="49.8221" lon="4.72097">
        <ele>323.6</ele>
        <time>2021-04-18T08:31:04Z</time>
      </trkpt>
      <trkpt lat="49.82212" lon="4.72105">
        <ele>322.6</ele>
        <time>2021-04-18T08:31:13Z</time>
      </trkpt>
      <trkpt lat="49.8221" lon="4.72096">
        <ele>321.3</ele>
        <time>2021-04-18T08:33:43Z</time>
      </trkpt>
      <trkpt lat="49.82205" lon="4.72093">
        <ele>323.9</ele>
        <time>2021-04-18T08:33:52Z</time>
      </trkpt>
      <trkpt lat="49.82196" lon="4.72077">
        <ele>319.2</ele>
        <time>2021-04-18T08:34:06Z</time>
      </trkpt>
      <trkpt lat="49.82191" lon="4.72074">
        <ele>321.9</ele>
        <time>2021-04-18T08:36:09Z</time>
      </trkpt>
      <trkpt lat="49.82184" lon="4.72073">
        <ele>318.4</ele>
        <time>2021-04-18T08:36:14Z</time>
      </trkpt>
      <trkpt lat="49.8218" lon="4.72069">
        <ele>316.9</ele>
        <time>2021-04-18T08:36:16Z</time>
      </trkpt>
      <trkpt lat="49.82175" lon="4.72066">
        <ele>317.5</ele>
        <time>2021-04-18T08:36:28Z</time>
      </trkpt>
      <trkpt lat="49.82167" lon="4.72065">
        <ele>316.8</ele>
        <time>2021-04-18T08:36:47Z</time>
      </trkpt>
      <trkpt lat="49.82162" lon="4.7206">
        <ele>318</ele>
        <time>2021-04-18T08:36:49Z</time>
      </trkpt>
      <trkpt lat="49.82157" lon="4.72056">
        <ele>318</ele>
        <time>2021-04-18T08:36:52Z</time>
      </trkpt>
      <trkpt lat="49.82127" lon="4.72027">
        <ele>308.7</ele>
        <time>2021-04-18T08:37:09Z</time>
      </trkpt>
      <trkpt lat="49.82096" lon="4.72022">
        <ele>302.7</ele>
        <time>2021-04-18T08:37:19Z</time>
      </trkpt>
      <trkpt lat="49.82089" lon="4.72023">
        <ele>303.5</ele>
        <time>2021-04-18T08:37:22Z</time>
      </trkpt>
      <trkpt lat="49.82084" lon="4.72024">
        <ele>302.2</ele>
        <time>2021-04-18T08:37:23Z</time>
      </trkpt>
      <trkpt lat="49.82076" lon="4.72018">
        <ele>300.5</ele>
        <time>2021-04-18T08:37:26Z</time>
      </trkpt>
      <trkpt lat="49.82071" lon="4.72019">
        <ele>299.2</ele>
        <time>2021-04-18T08:37:28Z</time>
      </trkpt>
      <trkpt lat="49.82067" lon="4.72022">
        <ele>297.5</ele>
        <time>2021-04-18T08:37:31Z</time>
      </trkpt>
      <trkpt lat="49.82062" lon="4.72021">
        <ele>295.5</ele>
        <time>2021-04-18T08:37:33Z</time>
      </trkpt>
      <trkpt lat="49.82045" lon="4.72026">
        <ele>292.2</ele>
        <time>2021-04-18T08:37:39Z</time>
      </trkpt>
      <trkpt lat="49.82035" lon="4.72027">
        <ele>291.3</ele>
        <time>2021-04-18T08:37:42Z</time>
      </trkpt>
      <trkpt lat="49.82029" lon="4.72027">
        <ele>290</ele>
        <time>2021-04-18T08:37:47Z</time>
      </trkpt>
      <trkpt lat="49.82024" lon="4.72027">
        <ele>286.8</ele>
        <time>2021-04-18T08:37:55Z</time>
      </trkpt>
      <trkpt lat="49.82019" lon="4.72034">
        <ele>283.4</ele>
        <time>2021-04-18T08:38:13Z</time>
      </trkpt>
      <trkpt lat="49.82018" lon="4.72042">
        <ele>284.6</ele>
        <time>2021-04-18T08:38:16Z</time>
      </trkpt>
      <trkpt lat="49.8202" lon="4.72049">
        <ele>282.6</ele>
        <time>2021-04-18T08:38:29Z</time>
      </trkpt>
      <trkpt lat="49.82017" lon="4.72054">
        <ele>279.7</ele>
        <time>2021-04-18T08:38:50Z</time>
      </trkpt>
      <trkpt lat="49.82012" lon="4.7206">
        <ele>281.6</ele>
        <time>2021-04-18T08:38:53Z</time>
      </trkpt>
      <trkpt lat="49.82007" lon="4.72065">
        <ele>278.4</ele>
        <time>2021-04-18T08:38:57Z</time>
      </trkpt>
      <trkpt lat="49.81986" lon="4.72069">
        <ele>272.3</ele>
        <time>2021-04-18T08:39:14Z</time>
      </trkpt>
      <trkpt lat="49.81982" lon="4.72068">
        <ele>273.5</ele>
        <time>2021-04-18T08:39:32Z</time>
      </trkpt>
      <trkpt lat="49.81978" lon="4.72062">
        <ele>274.1</ele>
        <time>2021-04-18T08:39:56Z</time>
      </trkpt>
      <trkpt lat="49.81915" lon="4.72065">
        <ele>266.5</ele>
        <time>2021-04-18T08:40:23Z</time>
      </trkpt>
      <trkpt lat="49.81913" lon="4.72073">
        <ele>263.4</ele>
        <time>2021-04-18T08:41:00Z</time>
      </trkpt>
      <trkpt lat="49.81896" lon="4.72166">
        <ele>250.1</ele>
        <time>2021-04-18T08:41:25Z</time>
      </trkpt>
      <trkpt lat="49.81898" lon="4.72174">
        <ele>248</ele>
        <time>2021-04-18T08:41:39Z</time>
      </trkpt>
      <trkpt lat="49.81896" lon="4.72182">
        <ele>242.8</ele>
        <time>2021-04-18T08:41:42Z</time>
      </trkpt>
      <trkpt lat="49.81893" lon="4.72198">
        <ele>241</ele>
        <time>2021-04-18T08:41:47Z</time>
      </trkpt>
      <trkpt lat="49.81888" lon="4.722">
        <ele>238.7</ele>
        <time>2021-04-18T08:41:53Z</time>
      </trkpt>
      <trkpt lat="49.81889" lon="4.72193">
        <ele>234.2</ele>
        <time>2021-04-18T08:41:59Z</time>
      </trkpt>
      <trkpt lat="49.81887" lon="4.72186">
        <ele>232.6</ele>
        <time>2021-04-18T08:42:17Z</time>
      </trkpt>
      <trkpt lat="49.81886" lon="4.72178">
        <ele>235.1</ele>
        <time>2021-04-18T08:42:27Z</time>
      </trkpt>
      <trkpt lat="49.81883" lon="4.72172">
        <ele>235.1</ele>
        <time>2021-04-18T08:42:31Z</time>
      </trkpt>
      <trkpt lat="49.81876" lon="4.72167">
        <ele>236</ele>
        <time>2021-04-18T08:43:02Z</time>
      </trkpt>
      <trkpt lat="49.81865" lon="4.72163">
        <ele>232.9</ele>
        <time>2021-04-18T08:43:28Z</time>
      </trkpt>
      <trkpt lat="49.81861" lon="4.72158">
        <ele>228.3</ele>
        <time>2021-04-18T08:43:46Z</time>
      </trkpt>
      <trkpt lat="49.81856" lon="4.72157">
        <ele>222</ele>
        <time>2021-04-18T08:43:59Z</time>
      </trkpt>
      <trkpt lat="49.81855" lon="4.72165">
        <ele>221.9</ele>
        <time>2021-04-18T08:44:08Z</time>
      </trkpt>
      <trkpt lat="49.8185" lon="4.7217">
        <ele>223.3</ele>
        <time>2021-04-18T08:44:18Z</time>
      </trkpt>
      <trkpt lat="49.81846" lon="4.72176">
        <ele>223.9</ele>
        <time>2021-04-18T08:46:12Z</time>
      </trkpt>
      <trkpt lat="49.81844" lon="4.72183">
        <ele>225.5</ele>
        <time>2021-04-18T08:46:16Z</time>
      </trkpt>
      <trkpt lat="49.81843" lon="4.72203">
        <ele>221.2</ele>
        <time>2021-04-18T08:46:20Z</time>
      </trkpt>
      <trkpt lat="49.81843" lon="4.7222">
        <ele>221.9</ele>
        <time>2021-04-18T08:46:22Z</time>
      </trkpt>
      <trkpt lat="49.81843" lon="4.72236">
        <ele>226.9</ele>
        <time>2021-04-18T08:46:24Z</time>
      </trkpt>
      <trkpt lat="49.81843" lon="4.72244">
        <ele>225.6</ele>
        <time>2021-04-18T08:46:25Z</time>
      </trkpt>
      <trkpt lat="49.81843" lon="4.72259">
        <ele>226.7</ele>
        <time>2021-04-18T08:46:27Z</time>
      </trkpt>
      <trkpt lat="49.81843" lon="4.72272">
        <ele>229.9</ele>
        <time>2021-04-18T08:46:29Z</time>
      </trkpt>
      <trkpt lat="49.81843" lon="4.72285">
        <ele>223.4</ele>
        <time>2021-04-18T08:46:31Z</time>
      </trkpt>
      <trkpt lat="49.81843" lon="4.72292">
        <ele>228.9</ele>
        <time>2021-04-18T08:46:32Z</time>
      </trkpt>
      <trkpt lat="49.81844" lon="4.723">
        <ele>227.2</ele>
        <time>2021-04-18T08:46:33Z</time>
      </trkpt>
      <trkpt lat="49.81848" lon="4.72314">
        <ele>228.9</ele>
        <time>2021-04-18T08:46:35Z</time>
      </trkpt>
      <trkpt lat="49.81852" lon="4.72328">
        <ele>230.9</ele>
        <time>2021-04-18T08:46:37Z</time>
      </trkpt>
      <trkpt lat="49.81856" lon="4.72343">
        <ele>232.4</ele>
        <time>2021-04-18T08:46:39Z</time>
      </trkpt>
      <trkpt lat="49.81861" lon="4.7236">
        <ele>234.5</ele>
        <time>2021-04-18T08:46:41Z</time>
      </trkpt>
      <trkpt lat="49.81865" lon="4.72379">
        <ele>235.5</ele>
        <time>2021-04-18T08:46:43Z</time>
      </trkpt>
      <trkpt lat="49.8187" lon="4.72402">
        <ele>236.9</ele>
        <time>2021-04-18T08:46:45Z</time>
      </trkpt>
      <trkpt lat="49.81875" lon="4.72429">
        <ele>232.5</ele>
        <time>2021-04-18T08:46:47Z</time>
      </trkpt>
      <trkpt lat="49.81881" lon="4.72457">
        <ele>234.6</ele>
        <time>2021-04-18T08:46:49Z</time>
      </trkpt>
      <trkpt lat="49.81884" lon="4.72473">
        <ele>237</ele>
        <time>2021-04-18T08:46:50Z</time>
      </trkpt>
      <trkpt lat="49.81886" lon="4.72487">
        <ele>235.9</ele>
        <time>2021-04-18T08:46:51Z</time>
      </trkpt>
      <trkpt lat="49.81892" lon="4.72513">
        <ele>239.5</ele>
        <time>2021-04-18T08:46:53Z</time>
      </trkpt>
      <trkpt lat="49.81894" lon="4.72525">
        <ele>236.3</ele>
        <time>2021-04-18T08:46:54Z</time>
      </trkpt>
      <trkpt lat="49.81899" lon="4.7255">
        <ele>235.7</ele>
        <time>2021-04-18T08:46:56Z</time>
      </trkpt>
      <trkpt lat="49.819" lon="4.72563">
        <ele>235.7</ele>
        <time>2021-04-18T08:46:57Z</time>
      </trkpt>
      <trkpt lat="49.81903" lon="4.72587">
        <ele>235</ele>
        <time>2021-04-18T08:46:59Z</time>
      </trkpt>
      <trkpt lat="49.81905" lon="4.726">
        <ele>236.4</ele>
        <time>2021-04-18T08:47:00Z</time>
      </trkpt>
      <trkpt lat="49.81908" lon="4.72624">
        <ele>231.7</ele>
        <time>2021-04-18T08:47:02Z</time>
      </trkpt>
      <trkpt lat="49.81911" lon="4.72646">
        <ele>232</ele>
        <time>2021-04-18T08:47:04Z</time>
      </trkpt>
      <trkpt lat="49.81916" lon="4.7267">
        <ele>229</ele>
        <time>2021-04-18T08:47:06Z</time>
      </trkpt>
      <trkpt lat="49.81918" lon="4.72681">
        <ele>229.4</ele>
        <time>2021-04-18T08:47:07Z</time>
      </trkpt>
      <trkpt lat="49.81919" lon="4.72692">
        <ele>231.2</ele>
        <time>2021-04-18T08:47:08Z</time>
      </trkpt>
      <trkpt lat="49.8192" lon="4.72703">
        <ele>230.2</ele>
        <time>2021-04-18T08:47:09Z</time>
      </trkpt>
      <trkpt lat="49.81921" lon="4.72713">
        <ele>227.2</ele>
        <time>2021-04-18T08:47:10Z</time>
      </trkpt>
      <trkpt lat="49.81922" lon="4.72732">
        <ele>225.8</ele>
        <time>2021-04-18T08:47:12Z</time>
      </trkpt>
      <trkpt lat="49.81922" lon="4.72741">
        <ele>221</ele>
        <time>2021-04-18T08:47:13Z</time>
      </trkpt>
      <trkpt lat="49.81923" lon="4.72757">
        <ele>224.3</ele>
        <time>2021-04-18T08:47:15Z</time>
      </trkpt>
      <trkpt lat="49.81923" lon="4.72765">
        <ele>219.4</ele>
        <time>2021-04-18T08:47:16Z</time>
      </trkpt>
      <trkpt lat="49.81924" lon="4.7278">
        <ele>222.4</ele>
        <time>2021-04-18T08:47:18Z</time>
      </trkpt>
      <trkpt lat="49.81924" lon="4.72794">
        <ele>221.5</ele>
        <time>2021-04-18T08:47:20Z</time>
      </trkpt>
      <trkpt lat="49.81924" lon="4.72809">
        <ele>219.8</ele>
        <time>2021-04-18T08:47:22Z</time>
      </trkpt>
      <trkpt lat="49.81924" lon="4.72817">
        <ele>219.1</ele>
        <time>2021-04-18T08:47:24Z</time>
      </trkpt>
      <trkpt lat="49.81925" lon="4.72833">
        <ele>218.8</ele>
        <time>2021-04-18T08:47:26Z</time>
      </trkpt>
      <trkpt lat="49.81926" lon="4.72851">
        <ele>218.2</ele>
        <time>2021-04-18T08:47:28Z</time>
      </trkpt>
      <trkpt lat="49.81928" lon="4.72859">
        <ele>217.5</ele>
        <time>2021-04-18T08:47:29Z</time>
      </trkpt>
      <trkpt lat="49.8193" lon="4.72874">
        <ele>217.3</ele>
        <time>2021-04-18T08:47:31Z</time>
      </trkpt>
      <trkpt lat="49.81931" lon="4.72888">
        <ele>218.9</ele>
        <time>2021-04-18T08:47:33Z</time>
      </trkpt>
      <trkpt lat="49.81931" lon="4.72898">
        <ele>217.9</ele>
        <time>2021-04-18T08:47:34Z</time>
      </trkpt>
      <trkpt lat="49.8193" lon="4.72916">
        <ele>220.6</ele>
        <time>2021-04-18T08:47:36Z</time>
      </trkpt>
      <trkpt lat="49.81929" lon="4.72926">
        <ele>218.7</ele>
        <time>2021-04-18T08:47:37Z</time>
      </trkpt>
      <trkpt lat="49.81927" lon="4.72935">
        <ele>218.5</ele>
        <time>2021-04-18T08:47:38Z</time>
      </trkpt>
      <trkpt lat="49.81924" lon="4.72945">
        <ele>216.8</ele>
        <time>2021-04-18T08:47:39Z</time>
      </trkpt>
      <trkpt lat="49.8192" lon="4.72966">
        <ele>216.5</ele>
        <time>2021-04-18T08:47:41Z</time>
      </trkpt>
      <trkpt lat="49.81916" lon="4.7299">
        <ele>216.1</ele>
        <time>2021-04-18T08:47:43Z</time>
      </trkpt>
      <trkpt lat="49.81912" lon="4.7301">
        <ele>215.7</ele>
        <time>2021-04-18T08:47:45Z</time>
      </trkpt>
      <trkpt lat="49.81908" lon="4.73031">
        <ele>213.6</ele>
        <time>2021-04-18T08:47:47Z</time>
      </trkpt>
      <trkpt lat="49.81906" lon="4.73041">
        <ele>217.6</ele>
        <time>2021-04-18T08:47:48Z</time>
      </trkpt>
      <trkpt lat="49.81902" lon="4.73061">
        <ele>215.2</ele>
        <time>2021-04-18T08:47:50Z</time>
      </trkpt>
      <trkpt lat="49.81899" lon="4.73072">
        <ele>212.5</ele>
        <time>2021-04-18T08:47:51Z</time>
      </trkpt>
      <trkpt lat="49.81897" lon="4.73082">
        <ele>210.8</ele>
        <time>2021-04-18T08:47:52Z</time>
      </trkpt>
      <trkpt lat="49.81894" lon="4.73099">
        <ele>213.8</ele>
        <time>2021-04-18T08:47:54Z</time>
      </trkpt>
      <trkpt lat="49.8189" lon="4.73115">
        <ele>213.3</ele>
        <time>2021-04-18T08:47:56Z</time>
      </trkpt>
      <trkpt lat="49.81888" lon="4.73123">
        <ele>211.9</ele>
        <time>2021-04-18T08:47:57Z</time>
      </trkpt>
      <trkpt lat="49.81885" lon="4.73142">
        <ele>209.7</ele>
        <time>2021-04-18T08:47:59Z</time>
      </trkpt>
      <trkpt lat="49.81883" lon="4.73162">
        <ele>208.3</ele>
        <time>2021-04-18T08:48:01Z</time>
      </trkpt>
      <trkpt lat="49.81881" lon="4.73172">
        <ele>214.8</ele>
        <time>2021-04-18T08:48:02Z</time>
      </trkpt>
      <trkpt lat="49.8188" lon="4.73183">
        <ele>207.5</ele>
        <time>2021-04-18T08:48:03Z</time>
      </trkpt>
      <trkpt lat="49.81878" lon="4.73195">
        <ele>210.9</ele>
        <time>2021-04-18T08:48:04Z</time>
      </trkpt>
      <trkpt lat="49.81876" lon="4.73221">
        <ele>211.3</ele>
        <time>2021-04-18T08:48:06Z</time>
      </trkpt>
      <trkpt lat="49.81874" lon="4.73233">
        <ele>210.4</ele>
        <time>2021-04-18T08:48:07Z</time>
      </trkpt>
      <trkpt lat="49.81872" lon="4.73244">
        <ele>209.6</ele>
        <time>2021-04-18T08:48:08Z</time>
      </trkpt>
      <trkpt lat="49.81867" lon="4.73268">
        <ele>207.3</ele>
        <time>2021-04-18T08:48:10Z</time>
      </trkpt>
      <trkpt lat="49.81863" lon="4.7329">
        <ele>211</ele>
        <time>2021-04-18T08:48:12Z</time>
      </trkpt>
      <trkpt lat="49.8186" lon="4.73301">
        <ele>213.2</ele>
        <time>2021-04-18T08:48:13Z</time>
      </trkpt>
      <trkpt lat="49.81857" lon="4.73313">
        <ele>210.3</ele>
        <time>2021-04-18T08:48:14Z</time>
      </trkpt>
      <trkpt lat="49.81851" lon="4.73336">
        <ele>210.9</ele>
        <time>2021-04-18T08:48:16Z</time>
      </trkpt>
      <trkpt lat="49.81848" lon="4.73349">
        <ele>206.7</ele>
        <time>2021-04-18T08:48:17Z</time>
      </trkpt>
      <trkpt lat="49.81844" lon="4.73362">
        <ele>209</ele>
        <time>2021-04-18T08:48:18Z</time>
      </trkpt>
      <trkpt lat="49.81835" lon="4.73391">
        <ele>208.6</ele>
        <time>2021-04-18T08:48:20Z</time>
      </trkpt>
      <trkpt lat="49.8183" lon="4.73406">
        <ele>207</ele>
        <time>2021-04-18T08:48:21Z</time>
      </trkpt>
      <trkpt lat="49.81825" lon="4.73422">
        <ele>206.2</ele>
        <time>2021-04-18T08:48:22Z</time>
      </trkpt>
      <trkpt lat="49.81816" lon="4.73452">
        <ele>206</ele>
        <time>2021-04-18T08:48:24Z</time>
      </trkpt>
      <trkpt lat="49.81812" lon="4.73467">
        <ele>206.4</ele>
        <time>2021-04-18T08:48:25Z</time>
      </trkpt>
      <trkpt lat="49.81806" lon="4.73495">
        <ele>202</ele>
        <time>2021-04-18T08:48:27Z</time>
      </trkpt>
      <trkpt lat="49.81801" lon="4.73521">
        <ele>201.8</ele>
        <time>2021-04-18T08:48:29Z</time>
      </trkpt>
      <trkpt lat="49.81798" lon="4.73536">
        <ele>201.4</ele>
        <time>2021-04-18T08:48:30Z</time>
      </trkpt>
      <trkpt lat="49.81795" lon="4.73552">
        <ele>202.3</ele>
        <time>2021-04-18T08:48:31Z</time>
      </trkpt>
      <trkpt lat="49.81788" lon="4.73583">
        <ele>199.6</ele>
        <time>2021-04-18T08:48:33Z</time>
      </trkpt>
      <trkpt lat="49.8178" lon="4.73615">
        <ele>195.6</ele>
        <time>2021-04-18T08:48:35Z</time>
      </trkpt>
      <trkpt lat="49.81776" lon="4.7363">
        <ele>198</ele>
        <time>2021-04-18T08:48:36Z</time>
      </trkpt>
      <trkpt lat="49.8177" lon="4.73659">
        <ele>193.2</ele>
        <time>2021-04-18T08:48:38Z</time>
      </trkpt>
      <trkpt lat="49.81766" lon="4.73675">
        <ele>198.9</ele>
        <time>2021-04-18T08:48:39Z</time>
      </trkpt>
      <trkpt lat="49.81762" lon="4.73691">
        <ele>194.4</ele>
        <time>2021-04-18T08:48:40Z</time>
      </trkpt>
      <trkpt lat="49.81755" lon="4.73722">
        <ele>197.2</ele>
        <time>2021-04-18T08:48:42Z</time>
      </trkpt>
      <trkpt lat="49.81748" lon="4.73749">
        <ele>191.9</ele>
        <time>2021-04-18T08:48:44Z</time>
      </trkpt>
      <trkpt lat="49.81745" lon="4.73764">
        <ele>193.6</ele>
        <time>2021-04-18T08:48:45Z</time>
      </trkpt>
      <trkpt lat="49.81737" lon="4.73793">
        <ele>187.8</ele>
        <time>2021-04-18T08:48:47Z</time>
      </trkpt>
      <trkpt lat="49.81728" lon="4.73823">
        <ele>193.4</ele>
        <time>2021-04-18T08:48:49Z</time>
      </trkpt>
      <trkpt lat="49.81724" lon="4.73839">
        <ele>190.3</ele>
        <time>2021-04-18T08:48:50Z</time>
      </trkpt>
      <trkpt lat="49.81716" lon="4.7387">
        <ele>187.6</ele>
        <time>2021-04-18T08:48:52Z</time>
      </trkpt>
      <trkpt lat="49.8171" lon="4.73899">
        <ele>187.7</ele>
        <time>2021-04-18T08:48:54Z</time>
      </trkpt>
      <trkpt lat="49.81707" lon="4.73914">
        <ele>182.9</ele>
        <time>2021-04-18T08:48:55Z</time>
      </trkpt>
      <trkpt lat="49.81704" lon="4.73926">
        <ele>184.7</ele>
        <time>2021-04-18T08:48:56Z</time>
      </trkpt>
      <trkpt lat="49.817" lon="4.73946">
        <ele>182.9</ele>
        <time>2021-04-18T08:48:58Z</time>
      </trkpt>
      <trkpt lat="49.81699" lon="4.73953">
        <ele>180.6</ele>
        <time>2021-04-18T08:48:59Z</time>
      </trkpt>
      <trkpt lat="49.81695" lon="4.73965">
        <ele>178.8</ele>
        <time>2021-04-18T08:49:01Z</time>
      </trkpt>
      <trkpt lat="49.81691" lon="4.73978">
        <ele>178</ele>
        <time>2021-04-18T08:49:03Z</time>
      </trkpt>
      <trkpt lat="49.81687" lon="4.73988">
        <ele>141.3</ele>
        <time>2021-04-18T08:49:06Z</time>
      </trkpt>
      <trkpt lat="49.81683" lon="4.73992">
        <ele>141.4</ele>
        <time>2021-04-18T08:49:09Z</time>
      </trkpt>
      <trkpt lat="49.81678" lon="4.73997">
        <ele>141.4</ele>
        <time>2021-04-18T08:49:15Z</time>
      </trkpt>
      <trkpt lat="49.81671" lon="4.74004">
        <ele>141</ele>
        <time>2021-04-18T08:49:35Z</time>
      </trkpt>
      <trkpt lat="49.81665" lon="4.74007">
        <ele>141</ele>
        <time>2021-04-18T08:49:38Z</time>
      </trkpt>
      <trkpt lat="49.81661" lon="4.74011">
        <ele>141.1</ele>
        <time>2021-04-18T08:49:41Z</time>
      </trkpt>
      <trkpt lat="49.81658" lon="4.74016">
        <ele>141.2</ele>
        <time>2021-04-18T08:49:43Z</time>
      </trkpt>
      <trkpt lat="49.81654" lon="4.74026">
        <ele>141.2</ele>
        <time>2021-04-18T08:49:45Z</time>
      </trkpt>
      <trkpt lat="49.81649" lon="4.74042">
        <ele>141.1</ele>
        <time>2021-04-18T08:49:48Z</time>
      </trkpt>
      <trkpt lat="49.81646" lon="4.74053">
        <ele>141.1</ele>
        <time>2021-04-18T08:49:50Z</time>
      </trkpt>
      <trkpt lat="49.81641" lon="4.74072">
        <ele>141.1</ele>
        <time>2021-04-18T08:49:53Z</time>
      </trkpt>
      <trkpt lat="49.81639" lon="4.74084">
        <ele>141</ele>
        <time>2021-04-18T08:49:55Z</time>
      </trkpt>
      <trkpt lat="49.81637" lon="4.74096">
        <ele>140.9</ele>
        <time>2021-04-18T08:49:57Z</time>
      </trkpt>
      <trkpt lat="49.81635" lon="4.74104">
        <ele>140.9</ele>
        <time>2021-04-18T08:49:59Z</time>
      </trkpt>
      <trkpt lat="49.81631" lon="4.74117">
        <ele>140.9</ele>
        <time>2021-04-18T08:50:07Z</time>
      </trkpt>
      <trkpt lat="49.81629" lon="4.74126">
        <ele>141.5</ele>
        <time>2021-04-18T08:50:09Z</time>
      </trkpt>
      <trkpt lat="49.81629" lon="4.74133">
        <ele>141.5</ele>
        <time>2021-04-18T08:50:11Z</time>
      </trkpt>
      <trkpt lat="49.81626" lon="4.74144">
        <ele>141.6</ele>
        <time>2021-04-18T08:50:14Z</time>
      </trkpt>
      <trkpt lat="49.81614" lon="4.74164">
        <ele>141.6</ele>
        <time>2021-04-18T08:50:16Z</time>
      </trkpt>
      <trkpt lat="49.816" lon="4.74168">
        <ele>141.6</ele>
        <time>2021-04-18T08:50:18Z</time>
      </trkpt>
      <trkpt lat="49.81592" lon="4.74167">
        <ele>141.5</ele>
        <time>2021-04-18T08:50:19Z</time>
      </trkpt>
      <trkpt lat="49.81584" lon="4.74166">
        <ele>141.5</ele>
        <time>2021-04-18T08:50:20Z</time>
      </trkpt>
      <trkpt lat="49.81568" lon="4.74161">
        <ele>141.6</ele>
        <time>2021-04-18T08:50:22Z</time>
      </trkpt>
      <trkpt lat="49.81554" lon="4.74149">
        <ele>141.6</ele>
        <time>2021-04-18T08:50:24Z</time>
      </trkpt>
      <trkpt lat="49.81544" lon="4.74139">
        <ele>141.6</ele>
        <time>2021-04-18T08:50:26Z</time>
      </trkpt>
      <trkpt lat="49.8154" lon="4.74135">
        <ele>141.6</ele>
        <time>2021-04-18T08:50:28Z</time>
      </trkpt>
      <trkpt lat="49.81536" lon="4.7413">
        <ele>140.6</ele>
        <time>2021-04-18T08:54:57Z</time>
      </trkpt>
      <trkpt lat="49.8157" lon="4.74154">
        <ele>141.3</ele>
        <time>2021-04-18T09:18:34Z</time>
      </trkpt>
      <trkpt lat="49.81577" lon="4.74156">
        <ele>141.3</ele>
        <time>2021-04-18T09:18:36Z</time>
      </trkpt>
      <trkpt lat="49.81583" lon="4.74159">
        <ele>141.3</ele>
        <time>2021-04-18T09:18:37Z</time>
      </trkpt>
      <trkpt lat="49.81588" lon="4.7416">
        <ele>141.4</ele>
        <time>2021-04-18T09:18:39Z</time>
      </trkpt>
      <trkpt lat="49.81595" lon="4.74163">
        <ele>141.3</ele>
        <time>2021-04-18T09:18:41Z</time>
      </trkpt>
      <trkpt lat="49.816" lon="4.74165">
        <ele>141.3</ele>
        <time>2021-04-18T09:18:44Z</time>
      </trkpt>
      <trkpt lat="49.81607" lon="4.74165">
        <ele>141.3</ele>
        <time>2021-04-18T09:18:48Z</time>
      </trkpt>
      <trkpt lat="49.81614" lon="4.74146">
        <ele>141.2</ele>
        <time>2021-04-18T09:19:01Z</time>
      </trkpt>
      <trkpt lat="49.81621" lon="4.74125">
        <ele>141.1</ele>
        <time>2021-04-18T09:19:03Z</time>
      </trkpt>
      <trkpt lat="49.81625" lon="4.74108">
        <ele>141.1</ele>
        <time>2021-04-18T09:19:05Z</time>
      </trkpt>
      <trkpt lat="49.81627" lon="4.741">
        <ele>141.1</ele>
        <time>2021-04-18T09:19:06Z</time>
      </trkpt>
      <trkpt lat="49.81631" lon="4.74083">
        <ele>141.1</ele>
        <time>2021-04-18T09:19:08Z</time>
      </trkpt>
      <trkpt lat="49.81633" lon="4.74073">
        <ele>141.1</ele>
        <time>2021-04-18T09:19:09Z</time>
      </trkpt>
      <trkpt lat="49.81636" lon="4.74064">
        <ele>141.1</ele>
        <time>2021-04-18T09:19:10Z</time>
      </trkpt>
      <trkpt lat="49.8164" lon="4.74044">
        <ele>141</ele>
        <time>2021-04-18T09:19:12Z</time>
      </trkpt>
      <trkpt lat="49.81642" lon="4.74033">
        <ele>141</ele>
        <time>2021-04-18T09:19:13Z</time>
      </trkpt>
      <trkpt lat="49.81643" lon="4.74021">
        <ele>141</ele>
        <time>2021-04-18T09:19:14Z</time>
      </trkpt>
      <trkpt lat="49.81641" lon="4.7401">
        <ele>141</ele>
        <time>2021-04-18T09:19:15Z</time>
      </trkpt>
      <trkpt lat="49.8163" lon="4.73998">
        <ele>141</ele>
        <time>2021-04-18T09:19:17Z</time>
      </trkpt>
      <trkpt lat="49.81622" lon="4.73997">
        <ele>141</ele>
        <time>2021-04-18T09:19:18Z</time>
      </trkpt>
      <trkpt lat="49.81607" lon="4.73998">
        <ele>141</ele>
        <time>2021-04-18T09:19:20Z</time>
      </trkpt>
      <trkpt lat="49.81593" lon="4.74">
        <ele>141</ele>
        <time>2021-04-18T09:19:22Z</time>
      </trkpt>
      <trkpt lat="49.81586" lon="4.73999">
        <ele>141.1</ele>
        <time>2021-04-18T09:19:23Z</time>
      </trkpt>
      <trkpt lat="49.81579" lon="4.73999">
        <ele>141.1</ele>
        <time>2021-04-18T09:19:24Z</time>
      </trkpt>
      <trkpt lat="49.81565" lon="4.74">
        <ele>141.2</ele>
        <time>2021-04-18T09:19:26Z</time>
      </trkpt>
      <trkpt lat="49.81557" lon="4.74">
        <ele>141.2</ele>
        <time>2021-04-18T09:19:27Z</time>
      </trkpt>
      <trkpt lat="49.81541" lon="4.74002">
        <ele>141.1</ele>
        <time>2021-04-18T09:19:29Z</time>
      </trkpt>
      <trkpt lat="49.81525" lon="4.74004">
        <ele>141.2</ele>
        <time>2021-04-18T09:19:31Z</time>
      </trkpt>
      <trkpt lat="49.8151" lon="4.74004">
        <ele>141.2</ele>
        <time>2021-04-18T09:19:33Z</time>
      </trkpt>
      <trkpt lat="49.81496" lon="4.74003">
        <ele>141.2</ele>
        <time>2021-04-18T09:19:35Z</time>
      </trkpt>
      <trkpt lat="49.81483" lon="4.74">
        <ele>141.3</ele>
        <time>2021-04-18T09:19:37Z</time>
      </trkpt>
      <trkpt lat="49.81477" lon="4.73997">
        <ele>141.3</ele>
        <time>2021-04-18T09:19:38Z</time>
      </trkpt>
      <trkpt lat="49.81464" lon="4.73991">
        <ele>141.3</ele>
        <time>2021-04-18T09:19:40Z</time>
      </trkpt>
      <trkpt lat="49.81458" lon="4.73987">
        <ele>141.3</ele>
        <time>2021-04-18T09:19:41Z</time>
      </trkpt>
      <trkpt lat="49.81451" lon="4.73983">
        <ele>141.4</ele>
        <time>2021-04-18T09:19:42Z</time>
      </trkpt>
      <trkpt lat="49.81444" lon="4.73979">
        <ele>141.4</ele>
        <time>2021-04-18T09:19:43Z</time>
      </trkpt>
      <trkpt lat="49.81431" lon="4.73971">
        <ele>141.4</ele>
        <time>2021-04-18T09:19:45Z</time>
      </trkpt>
      <trkpt lat="49.81419" lon="4.73963">
        <ele>141.4</ele>
        <time>2021-04-18T09:19:47Z</time>
      </trkpt>
      <trkpt lat="49.81405" lon="4.73956">
        <ele>141.4</ele>
        <time>2021-04-18T09:19:49Z</time>
      </trkpt>
      <trkpt lat="49.81399" lon="4.73953">
        <ele>141.3</ele>
        <time>2021-04-18T09:19:50Z</time>
      </trkpt>
      <trkpt lat="49.81386" lon="4.73947">
        <ele>141.4</ele>
        <time>2021-04-18T09:19:52Z</time>
      </trkpt>
      <trkpt lat="49.81373" lon="4.7394">
        <ele>141.4</ele>
        <time>2021-04-18T09:19:54Z</time>
      </trkpt>
      <trkpt lat="49.8136" lon="4.73934">
        <ele>141.4</ele>
        <time>2021-04-18T09:19:56Z</time>
      </trkpt>
      <trkpt lat="49.81354" lon="4.73931">
        <ele>141.4</ele>
        <time>2021-04-18T09:19:57Z</time>
      </trkpt>
      <trkpt lat="49.81348" lon="4.73929">
        <ele>141.4</ele>
        <time>2021-04-18T09:19:58Z</time>
      </trkpt>
      <trkpt lat="49.81341" lon="4.73927">
        <ele>141.4</ele>
        <time>2021-04-18T09:19:59Z</time>
      </trkpt>
      <trkpt lat="49.81329" lon="4.7392">
        <ele>132.8</ele>
        <time>2021-04-18T09:20:01Z</time>
      </trkpt>
      <trkpt lat="49.81318" lon="4.7391">
        <ele>132.9</ele>
        <time>2021-04-18T09:20:03Z</time>
      </trkpt>
      <trkpt lat="49.81312" lon="4.73907">
        <ele>134</ele>
        <time>2021-04-18T09:20:04Z</time>
      </trkpt>
      <trkpt lat="49.813" lon="4.7391">
        <ele>134.3</ele>
        <time>2021-04-18T09:20:06Z</time>
      </trkpt>
      <trkpt lat="49.81288" lon="4.73915">
        <ele>137.3</ele>
        <time>2021-04-18T09:20:08Z</time>
      </trkpt>
      <trkpt lat="49.81282" lon="4.73915">
        <ele>136</ele>
        <time>2021-04-18T09:20:09Z</time>
      </trkpt>
      <trkpt lat="49.81276" lon="4.73915">
        <ele>136.6</ele>
        <time>2021-04-18T09:20:10Z</time>
      </trkpt>
      <trkpt lat="49.81264" lon="4.73914">
        <ele>137.1</ele>
        <time>2021-04-18T09:20:12Z</time>
      </trkpt>
      <trkpt lat="49.81258" lon="4.73915">
        <ele>137.6</ele>
        <time>2021-04-18T09:20:13Z</time>
      </trkpt>
      <trkpt lat="49.81252" lon="4.73917">
        <ele>138</ele>
        <time>2021-04-18T09:20:14Z</time>
      </trkpt>
      <trkpt lat="49.81247" lon="4.73919">
        <ele>138</ele>
        <time>2021-04-18T09:20:15Z</time>
      </trkpt>
      <trkpt lat="49.81236" lon="4.73922">
        <ele>139.5</ele>
        <time>2021-04-18T09:20:17Z</time>
      </trkpt>
      <trkpt lat="49.81226" lon="4.73927">
        <ele>137.7</ele>
        <time>2021-04-18T09:20:19Z</time>
      </trkpt>
      <trkpt lat="49.81216" lon="4.73932">
        <ele>140</ele>
        <time>2021-04-18T09:20:21Z</time>
      </trkpt>
      <trkpt lat="49.8121" lon="4.73934">
        <ele>140</ele>
        <time>2021-04-18T09:20:22Z</time>
      </trkpt>
      <trkpt lat="49.81205" lon="4.73937">
        <ele>139.8</ele>
        <time>2021-04-18T09:20:23Z</time>
      </trkpt>
      <trkpt lat="49.812" lon="4.7394">
        <ele>140.6</ele>
        <time>2021-04-18T09:20:24Z</time>
      </trkpt>
      <trkpt lat="49.81191" lon="4.73946">
        <ele>139.9</ele>
        <time>2021-04-18T09:20:26Z</time>
      </trkpt>
      <trkpt lat="49.81182" lon="4.73953">
        <ele>140.6</ele>
        <time>2021-04-18T09:20:28Z</time>
      </trkpt>
      <trkpt lat="49.81178" lon="4.73956">
        <ele>141.1</ele>
        <time>2021-04-18T09:20:29Z</time>
      </trkpt>
      <trkpt lat="49.81169" lon="4.73962">
        <ele>142</ele>
        <time>2021-04-18T09:20:31Z</time>
      </trkpt>
      <trkpt lat="49.81159" lon="4.73968">
        <ele>140.1</ele>
        <time>2021-04-18T09:20:33Z</time>
      </trkpt>
      <trkpt lat="49.81154" lon="4.73971">
        <ele>141.4</ele>
        <time>2021-04-18T09:20:34Z</time>
      </trkpt>
      <trkpt lat="49.81145" lon="4.73977">
        <ele>140.5</ele>
        <time>2021-04-18T09:20:36Z</time>
      </trkpt>
      <trkpt lat="49.81136" lon="4.73983">
        <ele>141.2</ele>
        <time>2021-04-18T09:20:38Z</time>
      </trkpt>
      <trkpt lat="49.81131" lon="4.73986">
        <ele>142.2</ele>
        <time>2021-04-18T09:20:39Z</time>
      </trkpt>
      <trkpt lat="49.81121" lon="4.73992">
        <ele>138.6</ele>
        <time>2021-04-18T09:20:41Z</time>
      </trkpt>
      <trkpt lat="49.81116" lon="4.73994">
        <ele>145.2</ele>
        <time>2021-04-18T09:20:42Z</time>
      </trkpt>
      <trkpt lat="49.81108" lon="4.74">
        <ele>142.9</ele>
        <time>2021-04-18T09:20:44Z</time>
      </trkpt>
      <trkpt lat="49.81104" lon="4.74003">
        <ele>141.9</ele>
        <time>2021-04-18T09:20:45Z</time>
      </trkpt>
      <trkpt lat="49.81099" lon="4.74006">
        <ele>144.2</ele>
        <time>2021-04-18T09:20:46Z</time>
      </trkpt>
      <trkpt lat="49.8109" lon="4.74012">
        <ele>144.9</ele>
        <time>2021-04-18T09:20:48Z</time>
      </trkpt>
      <trkpt lat="49.81084" lon="4.74015">
        <ele>145.1</ele>
        <time>2021-04-18T09:20:49Z</time>
      </trkpt>
      <trkpt lat="49.81073" lon="4.74024">
        <ele>147</ele>
        <time>2021-04-18T09:20:51Z</time>
      </trkpt>
      <trkpt lat="49.81061" lon="4.74033">
        <ele>146.7</ele>
        <time>2021-04-18T09:20:53Z</time>
      </trkpt>
      <trkpt lat="49.81055" lon="4.74038">
        <ele>145.7</ele>
        <time>2021-04-18T09:20:54Z</time>
      </trkpt>
      <trkpt lat="49.81043" lon="4.74046">
        <ele>147</ele>
        <time>2021-04-18T09:20:56Z</time>
      </trkpt>
      <trkpt lat="49.81037" lon="4.7405">
        <ele>147.5</ele>
        <time>2021-04-18T09:20:57Z</time>
      </trkpt>
      <trkpt lat="49.81026" lon="4.74059">
        <ele>146.5</ele>
        <time>2021-04-18T09:20:59Z</time>
      </trkpt>
      <trkpt lat="49.81015" lon="4.74066">
        <ele>146.9</ele>
        <time>2021-04-18T09:21:01Z</time>
      </trkpt>
      <trkpt lat="49.81004" lon="4.74072">
        <ele>145.3</ele>
        <time>2021-04-18T09:21:03Z</time>
      </trkpt>
      <trkpt lat="49.80993" lon="4.7408">
        <ele>145.2</ele>
        <time>2021-04-18T09:21:05Z</time>
      </trkpt>
      <trkpt lat="49.80982" lon="4.74088">
        <ele>143.3</ele>
        <time>2021-04-18T09:21:07Z</time>
      </trkpt>
      <trkpt lat="49.80976" lon="4.74093">
        <ele>146.3</ele>
        <time>2021-04-18T09:21:08Z</time>
      </trkpt>
      <trkpt lat="49.80964" lon="4.74102">
        <ele>142.4</ele>
        <time>2021-04-18T09:21:10Z</time>
      </trkpt>
      <trkpt lat="49.80958" lon="4.74108">
        <ele>141.9</ele>
        <time>2021-04-18T09:21:11Z</time>
      </trkpt>
      <trkpt lat="49.80952" lon="4.74113">
        <ele>144.5</ele>
        <time>2021-04-18T09:21:12Z</time>
      </trkpt>
      <trkpt lat="49.80941" lon="4.74123">
        <ele>145</ele>
        <time>2021-04-18T09:21:14Z</time>
      </trkpt>
      <trkpt lat="49.80935" lon="4.74129">
        <ele>140.5</ele>
        <time>2021-04-18T09:21:15Z</time>
      </trkpt>
      <trkpt lat="49.8093" lon="4.74134">
        <ele>144.4</ele>
        <time>2021-04-18T09:21:16Z</time>
      </trkpt>
      <trkpt lat="49.80925" lon="4.74139">
        <ele>141.7</ele>
        <time>2021-04-18T09:21:17Z</time>
      </trkpt>
      <trkpt lat="49.80915" lon="4.74149">
        <ele>141.6</ele>
        <time>2021-04-18T09:21:19Z</time>
      </trkpt>
      <trkpt lat="49.80905" lon="4.74159">
        <ele>136.9</ele>
        <time>2021-04-18T09:21:21Z</time>
      </trkpt>
      <trkpt lat="49.809" lon="4.74164">
        <ele>145.1</ele>
        <time>2021-04-18T09:21:22Z</time>
      </trkpt>
      <trkpt lat="49.80895" lon="4.7417">
        <ele>143.4</ele>
        <time>2021-04-18T09:21:23Z</time>
      </trkpt>
      <trkpt lat="49.8089" lon="4.74175">
        <ele>142.6</ele>
        <time>2021-04-18T09:21:24Z</time>
      </trkpt>
      <trkpt lat="49.8088" lon="4.74186">
        <ele>140.9</ele>
        <time>2021-04-18T09:21:26Z</time>
      </trkpt>
      <trkpt lat="49.80875" lon="4.74191">
        <ele>142.5</ele>
        <time>2021-04-18T09:21:27Z</time>
      </trkpt>
      <trkpt lat="49.8087" lon="4.74196">
        <ele>142.4</ele>
        <time>2021-04-18T09:21:28Z</time>
      </trkpt>
      <trkpt lat="49.80865" lon="4.74201">
        <ele>142.2</ele>
        <time>2021-04-18T09:21:29Z</time>
      </trkpt>
      <trkpt lat="49.8086" lon="4.74206">
        <ele>145.2</ele>
        <time>2021-04-18T09:21:30Z</time>
      </trkpt>
      <trkpt lat="49.8085" lon="4.74214">
        <ele>141.1</ele>
        <time>2021-04-18T09:21:32Z</time>
      </trkpt>
      <trkpt lat="49.80841" lon="4.74221">
        <ele>143</ele>
        <time>2021-04-18T09:21:34Z</time>
      </trkpt>
      <trkpt lat="49.80832" lon="4.74227">
        <ele>147.3</ele>
        <time>2021-04-18T09:21:36Z</time>
      </trkpt>
      <trkpt lat="49.80822" lon="4.74232">
        <ele>148.6</ele>
        <time>2021-04-18T09:21:38Z</time>
      </trkpt>
      <trkpt lat="49.80817" lon="4.74235">
        <ele>144</ele>
        <time>2021-04-18T09:21:39Z</time>
      </trkpt>
      <trkpt lat="49.80812" lon="4.74238">
        <ele>147.5</ele>
        <time>2021-04-18T09:21:40Z</time>
      </trkpt>
      <trkpt lat="49.80802" lon="4.74244">
        <ele>146.2</ele>
        <time>2021-04-18T09:21:42Z</time>
      </trkpt>
      <trkpt lat="49.80793" lon="4.74251">
        <ele>148.9</ele>
        <time>2021-04-18T09:21:44Z</time>
      </trkpt>
      <trkpt lat="49.80789" lon="4.74254">
        <ele>143.2</ele>
        <time>2021-04-18T09:21:45Z</time>
      </trkpt>
      <trkpt lat="49.80779" lon="4.74261">
        <ele>145.6</ele>
        <time>2021-04-18T09:21:47Z</time>
      </trkpt>
      <trkpt lat="49.80774" lon="4.74264">
        <ele>147.7</ele>
        <time>2021-04-18T09:21:48Z</time>
      </trkpt>
      <trkpt lat="49.80764" lon="4.7427">
        <ele>148.4</ele>
        <time>2021-04-18T09:21:50Z</time>
      </trkpt>
      <trkpt lat="49.80759" lon="4.74274">
        <ele>146.8</ele>
        <time>2021-04-18T09:21:51Z</time>
      </trkpt>
      <trkpt lat="49.80749" lon="4.7428">
        <ele>151.4</ele>
        <time>2021-04-18T09:21:53Z</time>
      </trkpt>
      <trkpt lat="49.80744" lon="4.74283">
        <ele>146.7</ele>
        <time>2021-04-18T09:21:54Z</time>
      </trkpt>
      <trkpt lat="49.80734" lon="4.74289">
        <ele>149.5</ele>
        <time>2021-04-18T09:21:56Z</time>
      </trkpt>
      <trkpt lat="49.80729" lon="4.74292">
        <ele>147.7</ele>
        <time>2021-04-18T09:21:57Z</time>
      </trkpt>
      <trkpt lat="49.8072" lon="4.74299">
        <ele>148.7</ele>
        <time>2021-04-18T09:21:59Z</time>
      </trkpt>
      <trkpt lat="49.8071" lon="4.74305">
        <ele>147.8</ele>
        <time>2021-04-18T09:22:01Z</time>
      </trkpt>
      <trkpt lat="49.80705" lon="4.74308">
        <ele>149.8</ele>
        <time>2021-04-18T09:22:02Z</time>
      </trkpt>
      <trkpt lat="49.80695" lon="4.74314">
        <ele>149.5</ele>
        <time>2021-04-18T09:22:04Z</time>
      </trkpt>
      <trkpt lat="49.80685" lon="4.74321">
        <ele>152.3</ele>
        <time>2021-04-18T09:22:06Z</time>
      </trkpt>
      <trkpt lat="49.80675" lon="4.74328">
        <ele>151.7</ele>
        <time>2021-04-18T09:22:08Z</time>
      </trkpt>
      <trkpt lat="49.80671" lon="4.74331">
        <ele>150.6</ele>
        <time>2021-04-18T09:22:09Z</time>
      </trkpt>
      <trkpt lat="49.80662" lon="4.74338">
        <ele>152.1</ele>
        <time>2021-04-18T09:22:11Z</time>
      </trkpt>
      <trkpt lat="49.80653" lon="4.74344">
        <ele>150</ele>
        <time>2021-04-18T09:22:13Z</time>
      </trkpt>
      <trkpt lat="49.80649" lon="4.74347">
        <ele>150.7</ele>
        <time>2021-04-18T09:22:14Z</time>
      </trkpt>
      <trkpt lat="49.8064" lon="4.74354">
        <ele>152.4</ele>
        <time>2021-04-18T09:22:16Z</time>
      </trkpt>
      <trkpt lat="49.80635" lon="4.74357">
        <ele>150.8</ele>
        <time>2021-04-18T09:22:17Z</time>
      </trkpt>
      <trkpt lat="49.80631" lon="4.74361">
        <ele>152.8</ele>
        <time>2021-04-18T09:22:18Z</time>
      </trkpt>
      <trkpt lat="49.80626" lon="4.74364">
        <ele>154.1</ele>
        <time>2021-04-18T09:22:19Z</time>
      </trkpt>
      <trkpt lat="49.80617" lon="4.7437">
        <ele>154.2</ele>
        <time>2021-04-18T09:22:21Z</time>
      </trkpt>
      <trkpt lat="49.80609" lon="4.74377">
        <ele>154.2</ele>
        <time>2021-04-18T09:22:23Z</time>
      </trkpt>
      <trkpt lat="49.80604" lon="4.7438">
        <ele>155.5</ele>
        <time>2021-04-18T09:22:24Z</time>
      </trkpt>
      <trkpt lat="49.80597" lon="4.74385">
        <ele>159</ele>
        <time>2021-04-18T09:22:26Z</time>
      </trkpt>
      <trkpt lat="49.80593" lon="4.74389">
        <ele>155.3</ele>
        <time>2021-04-18T09:22:27Z</time>
      </trkpt>
      <trkpt lat="49.80586" lon="4.74394">
        <ele>158</ele>
        <time>2021-04-18T09:22:29Z</time>
      </trkpt>
      <trkpt lat="49.80579" lon="4.74399">
        <ele>157.4</ele>
        <time>2021-04-18T09:22:31Z</time>
      </trkpt>
      <trkpt lat="49.80573" lon="4.74404">
        <ele>155.2</ele>
        <time>2021-04-18T09:22:32Z</time>
      </trkpt>
      <trkpt lat="49.80565" lon="4.74409">
        <ele>160.4</ele>
        <time>2021-04-18T09:22:35Z</time>
      </trkpt>
      <trkpt lat="49.80554" lon="4.74418">
        <ele>158.7</ele>
        <time>2021-04-18T09:22:37Z</time>
      </trkpt>
      <trkpt lat="49.80543" lon="4.74424">
        <ele>159.2</ele>
        <time>2021-04-18T09:22:40Z</time>
      </trkpt>
      <trkpt lat="49.80538" lon="4.7443">
        <ele>158.5</ele>
        <time>2021-04-18T09:22:41Z</time>
      </trkpt>
      <trkpt lat="49.80534" lon="4.74433">
        <ele>161.4</ele>
        <time>2021-04-18T09:22:42Z</time>
      </trkpt>
      <trkpt lat="49.80467" lon="4.74489">
        <ele>169.5</ele>
        <time>2021-04-18T09:23:04Z</time>
      </trkpt>
      <trkpt lat="49.80462" lon="4.74493">
        <ele>171.9</ele>
        <time>2021-04-18T09:23:05Z</time>
      </trkpt>
      <trkpt lat="49.80456" lon="4.74497">
        <ele>169.7</ele>
        <time>2021-04-18T09:23:07Z</time>
      </trkpt>
      <trkpt lat="49.80301" lon="4.74641">
        <ele>188.4</ele>
        <time>2021-04-18T09:23:51Z</time>
      </trkpt>
      <trkpt lat="49.80296" lon="4.74646">
        <ele>189.4</ele>
        <time>2021-04-18T09:23:53Z</time>
      </trkpt>
      <trkpt lat="49.80289" lon="4.74651">
        <ele>188.4</ele>
        <time>2021-04-18T09:23:55Z</time>
      </trkpt>
      <trkpt lat="49.79931" lon="4.74872">
        <ele>210.1</ele>
        <time>2021-04-18T09:25:40Z</time>
      </trkpt>
      <trkpt lat="49.79926" lon="4.74875">
        <ele>212.9</ele>
        <time>2021-04-18T09:25:42Z</time>
      </trkpt>
      <trkpt lat="49.79919" lon="4.74877">
        <ele>207.2</ele>
        <time>2021-04-18T09:25:44Z</time>
      </trkpt>
      <trkpt lat="49.79841" lon="4.74909">
        <ele>211.5</ele>
        <time>2021-04-18T09:26:02Z</time>
      </trkpt>
      <trkpt lat="49.79831" lon="4.74914">
        <ele>214.7</ele>
        <time>2021-04-18T09:26:05Z</time>
      </trkpt>
      <trkpt lat="49.79826" lon="4.74915">
        <ele>213.7</ele>
        <time>2021-04-18T09:26:14Z</time>
      </trkpt>
      <trkpt lat="49.79818" lon="4.74919">
        <ele>214.3</ele>
        <time>2021-04-18T09:26:17Z</time>
      </trkpt>
      <trkpt lat="49.79813" lon="4.74922">
        <ele>212.4</ele>
        <time>2021-04-18T09:26:20Z</time>
      </trkpt>
      <trkpt lat="49.79806" lon="4.74925">
        <ele>213.4</ele>
        <time>2021-04-18T09:26:22Z</time>
      </trkpt>
      <trkpt lat="49.79799" lon="4.74928">
        <ele>214</ele>
        <time>2021-04-18T09:26:24Z</time>
      </trkpt>
      <trkpt lat="49.79793" lon="4.74929">
        <ele>211.8</ele>
        <time>2021-04-18T09:26:27Z</time>
      </trkpt>
      <trkpt lat="49.79786" lon="4.7493">
        <ele>215.5</ele>
        <time>2021-04-18T09:26:28Z</time>
      </trkpt>
      <trkpt lat="49.7978" lon="4.74933">
        <ele>213.6</ele>
        <time>2021-04-18T09:26:30Z</time>
      </trkpt>
      <trkpt lat="49.79765" lon="4.74939">
        <ele>214.1</ele>
        <time>2021-04-18T09:26:32Z</time>
      </trkpt>
      <trkpt lat="49.79687" lon="4.74962">
        <ele>213.9</ele>
        <time>2021-04-18T09:26:46Z</time>
      </trkpt>
      <trkpt lat="49.79682" lon="4.74962">
        <ele>212.8</ele>
        <time>2021-04-18T09:26:48Z</time>
      </trkpt>
      <trkpt lat="49.79675" lon="4.74961">
        <ele>213.9</ele>
        <time>2021-04-18T09:26:50Z</time>
      </trkpt>
      <trkpt lat="49.7967" lon="4.74961">
        <ele>211.8</ele>
        <time>2021-04-18T09:26:51Z</time>
      </trkpt>
      <trkpt lat="49.79663" lon="4.74961">
        <ele>212.6</ele>
        <time>2021-04-18T09:26:53Z</time>
      </trkpt>
      <trkpt lat="49.79658" lon="4.7496">
        <ele>210.5</ele>
        <time>2021-04-18T09:26:54Z</time>
      </trkpt>
      <trkpt lat="49.79648" lon="4.74957">
        <ele>212.6</ele>
        <time>2021-04-18T09:26:56Z</time>
      </trkpt>
      <trkpt lat="49.79642" lon="4.74956">
        <ele>211.3</ele>
        <time>2021-04-18T09:26:58Z</time>
      </trkpt>
      <trkpt lat="49.79634" lon="4.74953">
        <ele>212.7</ele>
        <time>2021-04-18T09:27:00Z</time>
      </trkpt>
      <trkpt lat="49.79628" lon="4.74951">
        <ele>213.7</ele>
        <time>2021-04-18T09:27:01Z</time>
      </trkpt>
      <trkpt lat="49.79623" lon="4.74949">
        <ele>213</ele>
        <time>2021-04-18T09:27:03Z</time>
      </trkpt>
      <trkpt lat="49.7961" lon="4.74943">
        <ele>215.1</ele>
        <time>2021-04-18T09:27:06Z</time>
      </trkpt>
      <trkpt lat="49.79602" lon="4.74939">
        <ele>214.6</ele>
        <time>2021-04-18T09:27:08Z</time>
      </trkpt>
      <trkpt lat="49.79595" lon="4.74933">
        <ele>214.9</ele>
        <time>2021-04-18T09:27:10Z</time>
      </trkpt>
      <trkpt lat="49.79589" lon="4.74929">
        <ele>216.4</ele>
        <time>2021-04-18T09:27:11Z</time>
      </trkpt>
      <trkpt lat="49.79583" lon="4.74925">
        <ele>214.9</ele>
        <time>2021-04-18T09:27:13Z</time>
      </trkpt>
      <trkpt lat="49.79576" lon="4.74919">
        <ele>215.1</ele>
        <time>2021-04-18T09:27:15Z</time>
      </trkpt>
      <trkpt lat="49.79571" lon="4.74913">
        <ele>217.8</ele>
        <time>2021-04-18T09:27:16Z</time>
      </trkpt>
      <trkpt lat="49.79567" lon="4.74908">
        <ele>218.6</ele>
        <time>2021-04-18T09:27:17Z</time>
      </trkpt>
      <trkpt lat="49.79558" lon="4.749">
        <ele>217</ele>
        <time>2021-04-18T09:27:19Z</time>
      </trkpt>
      <trkpt lat="49.79549" lon="4.74891">
        <ele>216.5</ele>
        <time>2021-04-18T09:27:21Z</time>
      </trkpt>
      <trkpt lat="49.7954" lon="4.74884">
        <ele>216.6</ele>
        <time>2021-04-18T09:27:23Z</time>
      </trkpt>
      <trkpt lat="49.79536" lon="4.7488">
        <ele>216.4</ele>
        <time>2021-04-18T09:27:24Z</time>
      </trkpt>
      <trkpt lat="49.79527" lon="4.74869">
        <ele>216.6</ele>
        <time>2021-04-18T09:27:26Z</time>
      </trkpt>
      <trkpt lat="49.79519" lon="4.74856">
        <ele>216.4</ele>
        <time>2021-04-18T09:27:28Z</time>
      </trkpt>
      <trkpt lat="49.79515" lon="4.7485">
        <ele>216.4</ele>
        <time>2021-04-18T09:27:29Z</time>
      </trkpt>
      <trkpt lat="49.79508" lon="4.74836">
        <ele>215.2</ele>
        <time>2021-04-18T09:27:31Z</time>
      </trkpt>
      <trkpt lat="49.79504" lon="4.74828">
        <ele>215.3</ele>
        <time>2021-04-18T09:27:32Z</time>
      </trkpt>
      <trkpt lat="49.795" lon="4.74821">
        <ele>215.5</ele>
        <time>2021-04-18T09:27:33Z</time>
      </trkpt>
      <trkpt lat="49.79492" lon="4.74805">
        <ele>214.2</ele>
        <time>2021-04-18T09:27:35Z</time>
      </trkpt>
      <trkpt lat="49.79484" lon="4.7479">
        <ele>214.2</ele>
        <time>2021-04-18T09:27:37Z</time>
      </trkpt>
      <trkpt lat="49.79472" lon="4.74785">
        <ele>217.9</ele>
        <time>2021-04-18T09:27:39Z</time>
      </trkpt>
      <trkpt lat="49.79463" lon="4.74796">
        <ele>219</ele>
        <time>2021-04-18T09:27:41Z</time>
      </trkpt>
      <trkpt lat="49.79461" lon="4.74803">
        <ele>213.4</ele>
        <time>2021-04-18T09:27:42Z</time>
      </trkpt>
      <trkpt lat="49.79459" lon="4.74819">
        <ele>216.5</ele>
        <time>2021-04-18T09:27:44Z</time>
      </trkpt>
      <trkpt lat="49.79459" lon="4.74826">
        <ele>219.2</ele>
        <time>2021-04-18T09:27:45Z</time>
      </trkpt>
      <trkpt lat="49.79461" lon="4.74844">
        <ele>219.6</ele>
        <time>2021-04-18T09:27:48Z</time>
      </trkpt>
      <trkpt lat="49.7946" lon="4.74854">
        <ele>215.9</ele>
        <time>2021-04-18T09:27:50Z</time>
      </trkpt>
      <trkpt lat="49.79462" lon="4.74872">
        <ele>217.4</ele>
        <time>2021-04-18T09:27:52Z</time>
      </trkpt>
      <trkpt lat="49.79462" lon="4.74879">
        <ele>222.6</ele>
        <time>2021-04-18T09:27:54Z</time>
      </trkpt>
      <trkpt lat="49.79468" lon="4.74965">
        <ele>219.8</ele>
        <time>2021-04-18T09:28:08Z</time>
      </trkpt>
      <trkpt lat="49.79459" lon="4.74977">
        <ele>220.2</ele>
        <time>2021-04-18T09:28:10Z</time>
      </trkpt>
      <trkpt lat="49.79455" lon="4.74983">
        <ele>221.6</ele>
        <time>2021-04-18T09:28:11Z</time>
      </trkpt>
      <trkpt lat="49.79447" lon="4.74992">
        <ele>216</ele>
        <time>2021-04-18T09:28:13Z</time>
      </trkpt>
      <trkpt lat="49.79428" lon="4.75013">
        <ele>224.6</ele>
        <time>2021-04-18T09:28:24Z</time>
      </trkpt>
      <trkpt lat="49.79426" lon="4.75021">
        <ele>213.4</ele>
        <time>2021-04-18T09:31:52Z</time>
      </trkpt>
      <trkpt lat="49.79421" lon="4.7503">
        <ele>213.3</ele>
        <time>2021-04-18T09:31:52Z</time>
      </trkpt>
      <trkpt lat="49.79396" lon="4.7507">
        <ele>213.4</ele>
        <time>2021-04-18T09:31:56Z</time>
      </trkpt>
      <trkpt lat="49.79381" lon="4.75091">
        <ele>213.4</ele>
        <time>2021-04-18T09:32:01Z</time>
      </trkpt>
      <trkpt lat="49.79373" lon="4.75103">
        <ele>213.4</ele>
        <time>2021-04-18T09:32:02Z</time>
      </trkpt>
      <trkpt lat="49.79358" lon="4.75124">
        <ele>213.4</ele>
        <time>2021-04-18T09:32:04Z</time>
      </trkpt>
      <trkpt lat="49.79352" lon="4.75132">
        <ele>213.4</ele>
        <time>2021-04-18T09:32:05Z</time>
      </trkpt>
      <trkpt lat="49.79341" lon="4.75148">
        <ele>213.4</ele>
        <time>2021-04-18T09:32:07Z</time>
      </trkpt>
      <trkpt lat="49.7933" lon="4.75162">
        <ele>213.5</ele>
        <time>2021-04-18T09:32:09Z</time>
      </trkpt>
      <trkpt lat="49.79324" lon="4.75169">
        <ele>213.5</ele>
        <time>2021-04-18T09:32:10Z</time>
      </trkpt>
      <trkpt lat="49.79313" lon="4.75182">
        <ele>213.4</ele>
        <time>2021-04-18T09:32:12Z</time>
      </trkpt>
      <trkpt lat="49.79302" lon="4.75194">
        <ele>213.5</ele>
        <time>2021-04-18T09:32:14Z</time>
      </trkpt>
      <trkpt lat="49.7929" lon="4.75207">
        <ele>213.4</ele>
        <time>2021-04-18T09:32:16Z</time>
      </trkpt>
      <trkpt lat="49.79283" lon="4.75212">
        <ele>213.4</ele>
        <time>2021-04-18T09:32:17Z</time>
      </trkpt>
      <trkpt lat="49.7927" lon="4.7522">
        <ele>213.4</ele>
        <time>2021-04-18T09:32:19Z</time>
      </trkpt>
      <trkpt lat="49.79263" lon="4.75224">
        <ele>213.4</ele>
        <time>2021-04-18T09:32:20Z</time>
      </trkpt>
      <trkpt lat="49.79249" lon="4.75229">
        <ele>213.4</ele>
        <time>2021-04-18T09:32:22Z</time>
      </trkpt>
      <trkpt lat="49.79234" lon="4.75233">
        <ele>213.4</ele>
        <time>2021-04-18T09:32:24Z</time>
      </trkpt>
      <trkpt lat="49.7922" lon="4.75234">
        <ele>213.5</ele>
        <time>2021-04-18T09:32:26Z</time>
      </trkpt>
      <trkpt lat="49.79212" lon="4.75233">
        <ele>213.5</ele>
        <time>2021-04-18T09:32:27Z</time>
      </trkpt>
      <trkpt lat="49.79197" lon="4.75231">
        <ele>213.5</ele>
        <time>2021-04-18T09:32:29Z</time>
      </trkpt>
      <trkpt lat="49.79189" lon="4.7523">
        <ele>213.5</ele>
        <time>2021-04-18T09:32:30Z</time>
      </trkpt>
      <trkpt lat="49.79175" lon="4.75227">
        <ele>213.4</ele>
        <time>2021-04-18T09:32:32Z</time>
      </trkpt>
      <trkpt lat="49.79168" lon="4.75225">
        <ele>213.5</ele>
        <time>2021-04-18T09:32:33Z</time>
      </trkpt>
      <trkpt lat="49.79155" lon="4.75224">
        <ele>213.5</ele>
        <time>2021-04-18T09:32:35Z</time>
      </trkpt>
      <trkpt lat="49.79143" lon="4.75222">
        <ele>213.4</ele>
        <time>2021-04-18T09:32:37Z</time>
      </trkpt>
      <trkpt lat="49.79136" lon="4.75222">
        <ele>213.4</ele>
        <time>2021-04-18T09:32:38Z</time>
      </trkpt>
      <trkpt lat="49.79121" lon="4.7522">
        <ele>215.2</ele>
        <time>2021-04-18T09:32:40Z</time>
      </trkpt>
      <trkpt lat="49.79105" lon="4.75219">
        <ele>209.9</ele>
        <time>2021-04-18T09:32:42Z</time>
      </trkpt>
      <trkpt lat="49.79097" lon="4.75217">
        <ele>210.2</ele>
        <time>2021-04-18T09:32:43Z</time>
      </trkpt>
      <trkpt lat="49.79083" lon="4.75214">
        <ele>209.6</ele>
        <time>2021-04-18T09:32:45Z</time>
      </trkpt>
      <trkpt lat="49.79076" lon="4.75212">
        <ele>210</ele>
        <time>2021-04-18T09:32:46Z</time>
      </trkpt>
      <trkpt lat="49.7907" lon="4.75211">
        <ele>207.8</ele>
        <time>2021-04-18T09:32:47Z</time>
      </trkpt>
      <trkpt lat="49.79059" lon="4.75208">
        <ele>213.4</ele>
        <time>2021-04-18T09:32:49Z</time>
      </trkpt>
      <trkpt lat="49.79049" lon="4.75205">
        <ele>212.2</ele>
        <time>2021-04-18T09:32:51Z</time>
      </trkpt>
      <trkpt lat="49.7904" lon="4.752">
        <ele>209.6</ele>
        <time>2021-04-18T09:32:53Z</time>
      </trkpt>
      <trkpt lat="49.79036" lon="4.75197">
        <ele>208</ele>
        <time>2021-04-18T09:32:54Z</time>
      </trkpt>
      <trkpt lat="49.79028" lon="4.75194">
        <ele>211.2</ele>
        <time>2021-04-18T09:32:56Z</time>
      </trkpt>
      <trkpt lat="49.79019" lon="4.75192">
        <ele>213.2</ele>
        <time>2021-04-18T09:32:59Z</time>
      </trkpt>
      <trkpt lat="49.79016" lon="4.75198">
        <ele>207.9</ele>
        <time>2021-04-18T09:33:01Z</time>
      </trkpt>
      <trkpt lat="49.78998" lon="4.75226">
        <ele>212.6</ele>
        <time>2021-04-18T09:33:22Z</time>
      </trkpt>
      <trkpt lat="49.79" lon="4.75235">
        <ele>209.9</ele>
        <time>2021-04-18T09:33:30Z</time>
      </trkpt>
      <trkpt lat="49.79074" lon="4.75302">
        <ele>205.7</ele>
        <time>2021-04-18T09:34:18Z</time>
      </trkpt>
      <trkpt lat="49.79077" lon="4.75307">
        <ele>206.2</ele>
        <time>2021-04-18T09:34:21Z</time>
      </trkpt>
      <trkpt lat="49.79079" lon="4.75313">
        <ele>208.8</ele>
        <time>2021-04-18T09:34:35Z</time>
      </trkpt>
      <trkpt lat="49.79083" lon="4.75317">
        <ele>216.2</ele>
        <time>2021-04-18T09:34:38Z</time>
      </trkpt>
      <trkpt lat="49.79107" lon="4.75352">
        <ele>207.8</ele>
        <time>2021-04-18T09:34:54Z</time>
      </trkpt>
      <trkpt lat="49.79111" lon="4.7536">
        <ele>205.9</ele>
        <time>2021-04-18T09:34:57Z</time>
      </trkpt>
      <trkpt lat="49.79134" lon="4.75396">
        <ele>203.6</ele>
        <time>2021-04-18T09:35:05Z</time>
      </trkpt>
      <trkpt lat="49.79148" lon="4.75442">
        <ele>194.5</ele>
        <time>2021-04-18T09:35:17Z</time>
      </trkpt>
      <trkpt lat="49.79151" lon="4.75448">
        <ele>195.4</ele>
        <time>2021-04-18T09:35:20Z</time>
      </trkpt>
      <trkpt lat="49.79153" lon="4.75455">
        <ele>193.5</ele>
        <time>2021-04-18T09:35:34Z</time>
      </trkpt>
      <trkpt lat="49.79154" lon="4.75463">
        <ele>192.7</ele>
        <time>2021-04-18T09:35:38Z</time>
      </trkpt>
      <trkpt lat="49.7916" lon="4.7551">
        <ele>193.8</ele>
        <time>2021-04-18T09:35:58Z</time>
      </trkpt>
      <trkpt lat="49.79162" lon="4.75517">
        <ele>194</ele>
        <time>2021-04-18T09:36:17Z</time>
      </trkpt>
      <trkpt lat="49.79161" lon="4.75532">
        <ele>190.3</ele>
        <time>2021-04-18T09:36:26Z</time>
      </trkpt>
      <trkpt lat="49.79165" lon="4.75538">
        <ele>187.5</ele>
        <time>2021-04-18T09:36:36Z</time>
      </trkpt>
      <trkpt lat="49.79164" lon="4.75566">
        <ele>184.2</ele>
        <time>2021-04-18T09:36:45Z</time>
      </trkpt>
      <trkpt lat="49.79165" lon="4.75574">
        <ele>182.9</ele>
        <time>2021-04-18T09:36:49Z</time>
      </trkpt>
      <trkpt lat="49.79159" lon="4.75575">
        <ele>183.3</ele>
        <time>2021-04-18T09:36:58Z</time>
      </trkpt>
      <trkpt lat="49.79155" lon="4.7558">
        <ele>178.6</ele>
        <time>2021-04-18T09:37:21Z</time>
      </trkpt>
      <trkpt lat="49.79155" lon="4.75589">
        <ele>177.7</ele>
        <time>2021-04-18T09:37:29Z</time>
      </trkpt>
      <trkpt lat="49.79152" lon="4.75595">
        <ele>172.6</ele>
        <time>2021-04-18T09:37:46Z</time>
      </trkpt>
      <trkpt lat="49.79157" lon="4.75604">
        <ele>174.5</ele>
        <time>2021-04-18T09:37:56Z</time>
      </trkpt>
      <trkpt lat="49.79162" lon="4.75612">
        <ele>172.5</ele>
        <time>2021-04-18T09:37:58Z</time>
      </trkpt>
      <trkpt lat="49.79164" lon="4.75619">
        <ele>168.4</ele>
        <time>2021-04-18T09:38:06Z</time>
      </trkpt>
      <trkpt lat="49.79175" lon="4.75636">
        <ele>162.6</ele>
        <time>2021-04-18T09:38:22Z</time>
      </trkpt>
      <trkpt lat="49.79176" lon="4.75644">
        <ele>155.6</ele>
        <time>2021-04-18T09:41:13Z</time>
      </trkpt>
      <trkpt lat="49.79171" lon="4.75645">
        <ele>155</ele>
        <time>2021-04-18T09:41:18Z</time>
      </trkpt>
      <trkpt lat="49.79089" lon="4.75599">
        <ele>156.3</ele>
        <time>2021-04-18T09:41:55Z</time>
      </trkpt>
      <trkpt lat="49.79082" lon="4.756">
        <ele>156.3</ele>
        <time>2021-04-18T09:42:25Z</time>
      </trkpt>
      <trkpt lat="49.79077" lon="4.75602">
        <ele>161.8</ele>
        <time>2021-04-18T09:42:30Z</time>
      </trkpt>
      <trkpt lat="49.79003" lon="4.75599">
        <ele>158</ele>
        <time>2021-04-18T09:42:41Z</time>
      </trkpt>
      <trkpt lat="49.78904" lon="4.75552">
        <ele>147.8</ele>
        <time>2021-04-18T09:43:04Z</time>
      </trkpt>
      <trkpt lat="49.78891" lon="4.75545">
        <ele>147.3</ele>
        <time>2021-04-18T09:43:05Z</time>
      </trkpt>
      <trkpt lat="49.78884" lon="4.75542">
        <ele>146.8</ele>
        <time>2021-04-18T09:43:06Z</time>
      </trkpt>
      <trkpt lat="49.78831" lon="4.75517">
        <ele>140.3</ele>
        <time>2021-04-18T09:43:16Z</time>
      </trkpt>
      <trkpt lat="49.78826" lon="4.7551">
        <ele>141.1</ele>
        <time>2021-04-18T09:43:18Z</time>
      </trkpt>
      <trkpt lat="49.7882" lon="4.75507">
        <ele>139.5</ele>
        <time>2021-04-18T09:43:20Z</time>
      </trkpt>
      <trkpt lat="49.78816" lon="4.75505">
        <ele>140.3</ele>
        <time>2021-04-18T09:43:21Z</time>
      </trkpt>
      <trkpt lat="49.78796" lon="4.75494">
        <ele>140</ele>
        <time>2021-04-18T09:43:30Z</time>
      </trkpt>
      <trkpt lat="49.78789" lon="4.75491">
        <ele>142.7</ele>
        <time>2021-04-18T09:43:37Z</time>
      </trkpt>
      <trkpt lat="49.78771" lon="4.75482">
        <ele>142.4</ele>
        <time>2021-04-18T09:43:45Z</time>
      </trkpt>
      <trkpt lat="49.78765" lon="4.75484">
        <ele>148.5</ele>
        <time>2021-04-18T09:43:49Z</time>
      </trkpt>
      <trkpt lat="49.78758" lon="4.7548">
        <ele>154</ele>
        <time>2021-04-18T09:43:54Z</time>
      </trkpt>
      <trkpt lat="49.78753" lon="4.75479">
        <ele>155.5</ele>
        <time>2021-04-18T09:43:59Z</time>
      </trkpt>
      <trkpt lat="49.78748" lon="4.75479">
        <ele>157.8</ele>
        <time>2021-04-18T09:44:04Z</time>
      </trkpt>
      <trkpt lat="49.78743" lon="4.75478">
        <ele>153.4</ele>
        <time>2021-04-18T09:44:07Z</time>
      </trkpt>
      <trkpt lat="49.78739" lon="4.75477">
        <ele>160.2</ele>
        <time>2021-04-18T09:44:09Z</time>
      </trkpt>
      <trkpt lat="49.78709" lon="4.75476">
        <ele>157.2</ele>
        <time>2021-04-18T09:44:19Z</time>
      </trkpt>
      <trkpt lat="49.78702" lon="4.75476">
        <ele>236.3</ele>
        <time>2021-04-18T09:44:22Z</time>
      </trkpt>
      <trkpt lat="49.78569" lon="4.75383">
        <ele>236.6</ele>
        <time>2021-04-18T09:45:09Z</time>
      </trkpt>
      <trkpt lat="49.78567" lon="4.75376">
        <ele>156.7</ele>
        <time>2021-04-18T09:45:23Z</time>
      </trkpt>
      <trkpt lat="49.78562" lon="4.75372">
        <ele>156.8</ele>
        <time>2021-04-18T09:45:28Z</time>
      </trkpt>
      <trkpt lat="49.78556" lon="4.75369">
        <ele>157.9</ele>
        <time>2021-04-18T09:46:22Z</time>
      </trkpt>
      <trkpt lat="49.7855" lon="4.75367">
        <ele>157.4</ele>
        <time>2021-04-18T09:46:24Z</time>
      </trkpt>
      <trkpt lat="49.78572" lon="4.75357">
        <ele>161.3</ele>
        <time>2021-04-18T09:46:49Z</time>
      </trkpt>
      <trkpt lat="49.78578" lon="4.75356">
        <ele>161.3</ele>
        <time>2021-04-18T09:46:53Z</time>
      </trkpt>
      <trkpt lat="49.78583" lon="4.75358">
        <ele>175</ele>
        <time>2021-04-18T09:46:57Z</time>
      </trkpt>
      <trkpt lat="49.78588" lon="4.75358">
        <ele>175</ele>
        <time>2021-04-18T09:47:00Z</time>
      </trkpt>
      <trkpt lat="49.78594" lon="4.7536">
        <ele>174.7</ele>
        <time>2021-04-18T09:47:02Z</time>
      </trkpt>
      <trkpt lat="49.78601" lon="4.7536">
        <ele>174.8</ele>
        <time>2021-04-18T09:47:06Z</time>
      </trkpt>
      <trkpt lat="49.78606" lon="4.75361">
        <ele>174.8</ele>
        <time>2021-04-18T09:47:09Z</time>
      </trkpt>
      <trkpt lat="49.7861" lon="4.75361">
        <ele>174.8</ele>
        <time>2021-04-18T09:47:12Z</time>
      </trkpt>
      <trkpt lat="49.78616" lon="4.75362">
        <ele>174.7</ele>
        <time>2021-04-18T09:47:16Z</time>
      </trkpt>
      <trkpt lat="49.7862" lon="4.75365">
        <ele>174.7</ele>
        <time>2021-04-18T09:47:19Z</time>
      </trkpt>
      <trkpt lat="49.78626" lon="4.75367">
        <ele>174.8</ele>
        <time>2021-04-18T09:47:22Z</time>
      </trkpt>
      <trkpt lat="49.78631" lon="4.75369">
        <ele>174.7</ele>
        <time>2021-04-18T09:47:26Z</time>
      </trkpt>
      <trkpt lat="49.78637" lon="4.75371">
        <ele>174.8</ele>
        <time>2021-04-18T09:47:30Z</time>
      </trkpt>
      <trkpt lat="49.78643" lon="4.75371">
        <ele>174.6</ele>
        <time>2021-04-18T09:47:34Z</time>
      </trkpt>
      <trkpt lat="49.78649" lon="4.75372">
        <ele>174.6</ele>
        <time>2021-04-18T09:47:39Z</time>
      </trkpt>
      <trkpt lat="49.78654" lon="4.75372">
        <ele>174.6</ele>
        <time>2021-04-18T09:47:43Z</time>
      </trkpt>
      <trkpt lat="49.7866" lon="4.75375">
        <ele>174.6</ele>
        <time>2021-04-18T09:47:48Z</time>
      </trkpt>
      <trkpt lat="49.78665" lon="4.75377">
        <ele>174.7</ele>
        <time>2021-04-18T09:47:51Z</time>
      </trkpt>
      <trkpt lat="49.78669" lon="4.75378">
        <ele>174.7</ele>
        <time>2021-04-18T09:47:55Z</time>
      </trkpt>
      <trkpt lat="49.78675" lon="4.75377">
        <ele>174.6</ele>
        <time>2021-04-18T09:47:59Z</time>
      </trkpt>
      <trkpt lat="49.7868" lon="4.75377">
        <ele>174.7</ele>
        <time>2021-04-18T09:48:02Z</time>
      </trkpt>
      <trkpt lat="49.78686" lon="4.75379">
        <ele>174.7</ele>
        <time>2021-04-18T09:48:06Z</time>
      </trkpt>
      <trkpt lat="49.78692" lon="4.7538">
        <ele>174.8</ele>
        <time>2021-04-18T09:48:10Z</time>
      </trkpt>
      <trkpt lat="49.78697" lon="4.75381">
        <ele>174.8</ele>
        <time>2021-04-18T09:48:13Z</time>
      </trkpt>
      <trkpt lat="49.78703" lon="4.75382">
        <ele>174.9</ele>
        <time>2021-04-18T09:48:19Z</time>
      </trkpt>
      <trkpt lat="49.78707" lon="4.75383">
        <ele>175</ele>
        <time>2021-04-18T09:48:24Z</time>
      </trkpt>
      <trkpt lat="49.78713" lon="4.75384">
        <ele>175.1</ele>
        <time>2021-04-18T09:48:29Z</time>
      </trkpt>
      <trkpt lat="49.78718" lon="4.75384">
        <ele>175.1</ele>
        <time>2021-04-18T09:48:35Z</time>
      </trkpt>
      <trkpt lat="49.78723" lon="4.75383">
        <ele>175</ele>
        <time>2021-04-18T09:48:39Z</time>
      </trkpt>
      <trkpt lat="49.78728" lon="4.75384">
        <ele>175.1</ele>
        <time>2021-04-18T09:48:43Z</time>
      </trkpt>
      <trkpt lat="49.78743" lon="4.75378">
        <ele>175.2</ele>
        <time>2021-04-18T09:48:55Z</time>
      </trkpt>
      <trkpt lat="49.78747" lon="4.75376">
        <ele>175.2</ele>
        <time>2021-04-18T09:48:58Z</time>
      </trkpt>
      <trkpt lat="49.78762" lon="4.75355">
        <ele>209</ele>
        <time>2021-04-18T09:49:12Z</time>
      </trkpt>
      <trkpt lat="49.78773" lon="4.75346">
        <ele>207.8</ele>
        <time>2021-04-18T09:49:22Z</time>
      </trkpt>
      <trkpt lat="49.78778" lon="4.75347">
        <ele>205.7</ele>
        <time>2021-04-18T09:49:33Z</time>
      </trkpt>
      <trkpt lat="49.78783" lon="4.75343">
        <ele>204.4</ele>
        <time>2021-04-18T09:49:43Z</time>
      </trkpt>
      <trkpt lat="49.78788" lon="4.75337">
        <ele>210.5</ele>
        <time>2021-04-18T09:49:49Z</time>
      </trkpt>
      <trkpt lat="49.78801" lon="4.7532">
        <ele>212.2</ele>
        <time>2021-04-18T09:50:00Z</time>
      </trkpt>
      <trkpt lat="49.78803" lon="4.75315">
        <ele>214.2</ele>
        <time>2021-04-18T09:50:04Z</time>
      </trkpt>
      <trkpt lat="49.78806" lon="4.75309">
        <ele>212.7</ele>
        <time>2021-04-18T09:50:07Z</time>
      </trkpt>
      <trkpt lat="49.78811" lon="4.75303">
        <ele>214.5</ele>
        <time>2021-04-18T09:50:12Z</time>
      </trkpt>
      <trkpt lat="49.78815" lon="4.75297">
        <ele>221.3</ele>
        <time>2021-04-18T09:50:16Z</time>
      </trkpt>
      <trkpt lat="49.78819" lon="4.75291">
        <ele>217.1</ele>
        <time>2021-04-18T09:50:20Z</time>
      </trkpt>
      <trkpt lat="49.78823" lon="4.75286">
        <ele>219.8</ele>
        <time>2021-04-18T09:50:23Z</time>
      </trkpt>
      <trkpt lat="49.78826" lon="4.75278">
        <ele>225.9</ele>
        <time>2021-04-18T09:50:27Z</time>
      </trkpt>
      <trkpt lat="49.78832" lon="4.75272">
        <ele>219.7</ele>
        <time>2021-04-18T09:50:33Z</time>
      </trkpt>
      <trkpt lat="49.78835" lon="4.75267">
        <ele>219</ele>
        <time>2021-04-18T09:50:43Z</time>
      </trkpt>
      <trkpt lat="49.78838" lon="4.75259">
        <ele>218.9</ele>
        <time>2021-04-18T09:50:48Z</time>
      </trkpt>
      <trkpt lat="49.78842" lon="4.75251">
        <ele>227</ele>
        <time>2021-04-18T09:54:22Z</time>
      </trkpt>
      <trkpt lat="49.78848" lon="4.75246">
        <ele>225.2</ele>
        <time>2021-04-18T09:54:24Z</time>
      </trkpt>
      <trkpt lat="49.79048" lon="4.75186">
        <ele>233.9</ele>
        <time>2021-04-18T09:55:29Z</time>
      </trkpt>
      <trkpt lat="49.79056" lon="4.75183">
        <ele>234.1</ele>
        <time>2021-04-18T09:55:31Z</time>
      </trkpt>
      <trkpt lat="49.79063" lon="4.75184">
        <ele>231.4</ele>
        <time>2021-04-18T09:55:32Z</time>
      </trkpt>
      <trkpt lat="49.79068" lon="4.75185">
        <ele>232.5</ele>
        <time>2021-04-18T09:55:34Z</time>
      </trkpt>
      <trkpt lat="49.79215" lon="4.75215">
        <ele>209.5</ele>
        <time>2021-04-18T09:56:03Z</time>
      </trkpt>
      <trkpt lat="49.79226" lon="4.75211">
        <ele>209.5</ele>
        <time>2021-04-18T09:56:06Z</time>
      </trkpt>
      <trkpt lat="49.79232" lon="4.7521">
        <ele>209.5</ele>
        <time>2021-04-18T09:56:07Z</time>
      </trkpt>
      <trkpt lat="49.7924" lon="4.75206">
        <ele>209.6</ele>
        <time>2021-04-18T09:56:10Z</time>
      </trkpt>
      <trkpt lat="49.79244" lon="4.75202">
        <ele>209.6</ele>
        <time>2021-04-18T09:56:11Z</time>
      </trkpt>
      <trkpt lat="49.7925" lon="4.75199">
        <ele>209.5</ele>
        <time>2021-04-18T09:56:13Z</time>
      </trkpt>
      <trkpt lat="49.79257" lon="4.75193">
        <ele>209.5</ele>
        <time>2021-04-18T09:56:16Z</time>
      </trkpt>
      <trkpt lat="49.79263" lon="4.75189">
        <ele>209.6</ele>
        <time>2021-04-18T09:56:18Z</time>
      </trkpt>
      <trkpt lat="49.79267" lon="4.75185">
        <ele>209.7</ele>
        <time>2021-04-18T09:56:22Z</time>
      </trkpt>
      <trkpt lat="49.79273" lon="4.7518">
        <ele>209.7</ele>
        <time>2021-04-18T09:56:25Z</time>
      </trkpt>
      <trkpt lat="49.79279" lon="4.75174">
        <ele>209.6</ele>
        <time>2021-04-18T09:56:27Z</time>
      </trkpt>
      <trkpt lat="49.79285" lon="4.75168">
        <ele>209.6</ele>
        <time>2021-04-18T09:56:28Z</time>
      </trkpt>
      <trkpt lat="49.7929" lon="4.7516">
        <ele>209.6</ele>
        <time>2021-04-18T09:56:31Z</time>
      </trkpt>
      <trkpt lat="49.79294" lon="4.75158">
        <ele>209.4</ele>
        <time>2021-04-18T09:56:33Z</time>
      </trkpt>
      <trkpt lat="49.793" lon="4.75153">
        <ele>209.5</ele>
        <time>2021-04-18T09:56:37Z</time>
      </trkpt>
      <trkpt lat="49.79306" lon="4.75149">
        <ele>209.6</ele>
        <time>2021-04-18T09:56:40Z</time>
      </trkpt>
      <trkpt lat="49.7931" lon="4.75146">
        <ele>209.6</ele>
        <time>2021-04-18T09:56:42Z</time>
      </trkpt>
      <trkpt lat="49.79313" lon="4.7514">
        <ele>209.5</ele>
        <time>2021-04-18T09:56:43Z</time>
      </trkpt>
      <trkpt lat="49.79318" lon="4.75134">
        <ele>209.5</ele>
        <time>2021-04-18T09:56:46Z</time>
      </trkpt>
      <trkpt lat="49.79322" lon="4.7513">
        <ele>209.5</ele>
        <time>2021-04-18T09:56:47Z</time>
      </trkpt>
      <trkpt lat="49.79329" lon="4.75123">
        <ele>209.5</ele>
        <time>2021-04-18T09:56:51Z</time>
      </trkpt>
      <trkpt lat="49.79336" lon="4.75119">
        <ele>209.5</ele>
        <time>2021-04-18T09:56:54Z</time>
      </trkpt>
      <trkpt lat="49.79341" lon="4.75116">
        <ele>209.5</ele>
        <time>2021-04-18T09:56:57Z</time>
      </trkpt>
      <trkpt lat="49.79346" lon="4.75113">
        <ele>209.6</ele>
        <time>2021-04-18T09:57:01Z</time>
      </trkpt>
      <trkpt lat="49.79351" lon="4.75106">
        <ele>209.6</ele>
        <time>2021-04-18T09:57:05Z</time>
      </trkpt>
      <trkpt lat="49.79355" lon="4.751">
        <ele>209.6</ele>
        <time>2021-04-18T09:57:09Z</time>
      </trkpt>
      <trkpt lat="49.79358" lon="4.75093">
        <ele>209.6</ele>
        <time>2021-04-18T09:57:12Z</time>
      </trkpt>
      <trkpt lat="49.79363" lon="4.75088">
        <ele>209.5</ele>
        <time>2021-04-18T09:57:15Z</time>
      </trkpt>
      <trkpt lat="49.794" lon="4.75034">
        <ele>209.6</ele>
        <time>2021-04-18T09:57:36Z</time>
      </trkpt>
      <trkpt lat="49.79401" lon="4.75027">
        <ele>213</ele>
        <time>2021-04-18T09:57:50Z</time>
      </trkpt>
      <trkpt lat="49.79408" lon="4.75027">
        <ele>213.2</ele>
        <time>2021-04-18T09:58:06Z</time>
      </trkpt>
      <trkpt lat="49.79405" lon="4.75022">
        <ele>213.3</ele>
        <time>2021-04-18T09:58:10Z</time>
      </trkpt>
      <trkpt lat="49.79409" lon="4.75025">
        <ele>213.5</ele>
        <time>2021-04-18T09:58:41Z</time>
      </trkpt>
      <trkpt lat="49.79404" lon="4.75026">
        <ele>213.5</ele>
        <time>2021-04-18T09:59:10Z</time>
      </trkpt>
      <trkpt lat="49.79407" lon="4.75031">
        <ele>213.4</ele>
        <time>2021-04-18T09:59:49Z</time>
      </trkpt>
      <trkpt lat="49.79409" lon="4.75023">
        <ele>213.3</ele>
        <time>2021-04-18T10:00:19Z</time>
      </trkpt>
      <trkpt lat="49.79405" lon="4.75028">
        <ele>213.5</ele>
        <time>2021-04-18T10:00:33Z</time>
      </trkpt>
      <trkpt lat="49.79404" lon="4.75035">
        <ele>213.5</ele>
        <time>2021-04-18T10:00:37Z</time>
      </trkpt>
    </trkseg>
  </trk>
</gpx>